[[{"header":{"parameterUnit":"m.s-1","parameterCategory":1,"la1":31.0,"la2":29.5877,"lo1":-88.7671,"lo2":-86.6584,"dy":0.0162,"dx":0.0185,"nx":115,"ny":88,"refTime":"2024-04-06T12:00:00:Z","depth":0,"parameterNumber":2,"parameterNumberName":"U-component_of_WINDS"},"data":[0.0,0.0,0.0,0.0,0.0,0.0,0.0,0.0,0.0,0.0,0.0,0.0,0.0,0.0,0.0,0.0,0.0,0.0,0.0,0.0,0.0,0.0,0.0,0.0,0.0,0.0,0.0,0.0,0.0,0.0,0.0,0.0,0.0,0.0,0.0,0.0,0.0,0.0,0.0,0.0,0.0,0.0,0.0,0.0,0.0,0.0,0.0,0.0,0.0,0.0,0.0,0.0,0.0,0.0,0.0,0.0,0.0,0.0,0.0,0.0,0.0,0.0,0.0,0.0,0.0,0.0,0.0,0.0,0.0,0.0,0.0,0.0,0.0,0.0,0.0,0.0,0.0,0.0,0.0,0.0,0.0,0.0,0.0,0.0,0.0,0.0,0.0,0.0,0.0,0.0,0.0,0.0,0.0,0.0,0.0,0.0,0.0,0.0,0.0,0.0,0.0,0.0,0.0,0.0,0.0,0.0,0.0,0.0,0.0,0.0,0.0,0.0,0.0,0.0,0.0,0.0,0.0,0.0,0.0,0.0,0.0,0.0,0.0,0.0,0.0,0.0,0.0,0.0,0.0,0.0,0.0,0.0,0.0,0.0,0.0,0.0,0.0,0.0,0.0,0.0,0.0,0.0,0.0,0.0,0.0,0.0,0.0,0.0,0.0,0.0,0.0,0.0,0.0,0.0,0.0,0.0,0.0,0.0,0.0,0.0,0.0,0.0,0.0,0.0,0.0,0.0,0.0,0.0,0.0,0.0,0.0,0.0,0.0,0.0,0.0,0.0,0.0,0.0,0.0,0.0,0.0,0.0,0.0,0.0,0.0,0.0,0.0,0.0,0.0,0.0,0.0,0.0,0.0,0.0,0.0,0.0,0.0,0.0,0.0,0.0,0.0,0.0,0.0,0.0,0.0,0.0,0.0,0.0,0.0,0.0,0.0,0.0,0.0,0.0,0.0,0.0,0.0,0.0,0.0,0.0,0.0,0.0,0.0,0.0,0.0,0.0,0.0,0.0,0.0,0.0,0.0,0.0,0.0,0.0,0.0,0.0,0.0,0.0,0.0,0.0,0.0,0.0,0.0,0.0,0.0,0.0,0.0,0.0,0.0,0.0,0.0,0.0,0.0,0.0,0.0,0.0,0.0,0.0,0.0,0.0,0.0,0.0,0.0,0.0,0.0,0.0,0.0,0.0,0.0,0.0,0.0,0.0,0.0,0.0,0.0,0.0,0.0,0.0,0.0,0.0,0.0,0.0,0.0,0.0,0.0,0.0,0.0,0.0,0.0,0.0,0.0,0.0,0.0,0.0,0.0,0.0,0.0,0.0,0.0,0.0,0.0,0.0,0.0,0.0,0.0,0.0,0.0,0.0,0.0,0.0,0.0,0.0,0.0,0.0,0.0,0.0,0.0,0.0,0.0,0.0,0.0,0.0,0.0,0.0,0.0,0.0,0.0,0.0,0.0,0.0,0.0,0.0,0.0,0.0,0.0,0.0,0.0,0.0,0.0,0.0,0.0,0.0,0.0,0.0,0.0,0.0,0.0,0.0,0.0,0.0,0.0,0.0,0.0,0.0,0.0,0.0,0.0,0.0,0.0,0.0,0.0,0.0,0.0,0.0,0.0,0.0,0.0,0.0,0.0,0.0,0.0,0.0,0.0,0.0,0.0,0.0,0.0,0.0,0.0,0.0,0.0,0.0,0.0,0.0,0.0,0.0,0.0,0.0,0.0,0.0,0.0,0.0,0.0,0.0,0.0,0.0,0.0,0.0,0.0,0.0,0.0,0.0,0.0,0.0,0.0,0.0,0.0,0.0,0.0,0.0,0.0,0.0,0.0,0.0,0.0,0.0,0.0,0.0,0.0,0.0,0.0,0.0,0.0,0.0,0.0,0.0,0.0,0.0,0.0,0.0,0.0,0.0,0.0,0.0,0.0,0.0,0.0,0.0,0.0,0.0,0.0,0.0,0.0,0.0,0.0,0.0,0.0,0.0,0.0,0.0,0.0,0.0,0.0,0.0,0.0,0.0,0.0,0.0,0.0,0.0,0.0,0.0,0.0,0.0,0.0,0.0,0.0,0.0,0.0,0.0,0.0,0.0,0.0,0.0,0.0,0.0,0.0,0.0,0.0,0.0,0.0,0.0,0.0,0.0,0.0,0.0,0.0,0.0,0.0,0.0,0.0,0.0,0.0,0.0,0.0,0.0,0.0,0.0,0.0,0.0,0.0,0.0,0.0,0.0,0.0,0.0,0.0,0.0,0.0,0.0,0.0,0.0,0.0,0.0,0.0,0.0,0.0,0.0,0.0,0.0,0.0,0.0,0.0,0.0,0.0,0.0,0.0,0.0,0.0,0.0,0.0,0.0,0.0,0.0,0.0,0.0,0.0,0.0,0.0,0.0,0.0,0.0,0.0,0.0,0.0,0.0,0.0,0.0,0.0,0.0,0.0,0.0,0.0,0.0,0.0,0.0,0.0,0.0,0.0,0.0,0.0,0.0,0.0,0.0,0.0,0.0,0.0,0.0,0.0,0.0,0.0,0.0,0.0,0.0,0.0,0.0,0.0,0.0,0.0,0.0,0.0,0.0,0.0,0.0,0.0,0.0,0.0,0.0,0.0,0.0,0.0,0.0,0.0,0.0,0.0,0.0,0.0,0.0,0.0,0.0,0.0,0.0,0.0,0.0,0.0,0.0,0.0,0.0,0.0,0.0,0.0,0.0,0.0,0.0,0.0,0.0,0.0,0.0,0.0,0.0,0.0,0.0,0.0,0.0,0.0,0.0,0.0,0.0,0.0,0.0,0.0,0.0,0.0,0.0,0.0,0.0,0.0,0.0,0.0,0.0,0.0,0.0,0.0,0.0,0.0,0.0,0.0,0.0,0.0,0.0,0.0,0.0,0.0,0.0,0.0,0.0,0.0,0.0,0.0,0.0,0.0,0.0,0.0,0.0,0.0,0.0,0.0,0.0,0.0,0.0,0.0,0.0,0.0,0.0,0.0,0.0,0.0,0.0,0.0,0.0,0.0,0.0,0.0,0.0,0.0,0.0,0.0,0.0,0.0,0.0,0.0,0.0,0.0,0.0,0.0,0.0,0.0,0.0,0.0,0.0,0.0,0.0,0.0,0.0,0.0,0.0,0.0,0.0,0.0,0.0,0.0,0.0,0.0,0.0,0.0,0.0,0.0,0.0,0.0,0.0,0.0,0.0,0.0,0.0,0.0,0.0,0.0,0.0,0.0,0.0,0.0,0.0,0.0,0.0,0.0,0.0,0.0,0.0,0.0,0.0,0.0,0.0,0.0,0.0,0.0,0.0,0.0,0.0,0.0,0.0,0.0,0.0,0.0,0.0,0.0,0.0,0.0,0.0,0.0,0.0,0.0,0.0,0.0,0.0,0.0,0.0,0.0,0.0,0.0,0.0,0.0,0.0,0.0,0.0,0.0,0.0,0.0,0.0,0.0,0.0,0.0,0.0,0.0,0.0,0.0,0.0,0.0,0.0,0.0,0.0,0.0,0.0,0.0,0.0,0.0,0.0,0.0,0.0,0.0,0.0,0.0,0.0,0.0,0.0,0.0,0.0,0.0,0.0,0.0,0.0,0.0,0.0,0.0,0.0,0.0,0.0,0.0,0.0,0.0,0.0,0.0,0.0,0.0,0.0,0.0,0.0,0.0,0.0,0.0,0.0,0.0,0.0,0.0,0.0,0.0,0.0,0.0,0.0,0.0,0.0,0.0,0.0,0.0,0.0,0.0,0.0,0.0,0.0,0.0,0.0,0.0,0.0,0.0,0.0,0.0,0.0,0.0,0.0,0.0,0.0,0.0,0.0,0.0,0.0,0.0,0.0,0.0,0.0,0.0,0.0,0.0,0.0,0.0,0.0,0.0,0.0,0.0,0.0,0.0,0.0,0.0,0.0,0.0,0.0,0.0,0.0,0.0,0.0,0.0,0.0,0.0,0.0,0.0,0.0,0.0,0.0,0.0,0.0,0.0,0.0,0.0,0.0,0.0,0.0,0.0,0.0,0.0,0.0,0.0,0.0,0.0,0.0,0.0,0.0,0.0,0.0,0.0,0.0,0.0,0.0,0.0,0.0,0.0,0.0,0.0,0.0,0.0,0.0,0.0,0.0,0.0,0.0,0.0,0.0,0.0,0.0,0.0,0.0,0.0,0.0,0.0,0.0,0.0,0.0,0.0,0.0,0.0,0.0,0.0,0.0,0.0,0.0,0.0,0.0,0.0,0.0,0.0,0.0,0.0,0.0,0.0,0.0,0.0,0.0,0.0,0.0,1.4971,0.0,0.0,0.0,0.0,0.0,0.0,0.0,0.0,0.0,0.0,0.0,0.0,0.0,0.0,0.0,0.0,0.0,0.0,0.0,0.0,0.0,0.0,0.0,0.0,0.0,0.0,0.0,0.0,0.0,0.0,0.0,0.0,0.0,0.0,0.0,0.0,0.0,0.0,0.0,0.0,0.0,0.0,0.0,0.0,0.0,0.0,0.0,0.0,0.0,0.0,0.0,0.0,0.0,0.0,0.0,0.0,0.0,0.0,0.0,0.0,0.0,0.0,0.0,0.0,0.0,0.0,0.0,0.0,0.0,0.0,0.0,0.0,0.0,0.0,0.0,0.0,0.0,0.0,0.0,0.0,0.0,0.0,0.0,0.0,0.0,0.0,0.0,0.0,0.0,0.0,0.0,0.0,0.0,0.0,0.0,0.0,0.0,0.0,0.0,0.0,0.0,0.0,0.0,0.0,0.0,0.0,0.0,0.0,0.0,0.0,1.5575,1.5665,1.5569,1.5594,1.5728,0.0,0.0,0.0,0.0,0.0,0.0,0.0,0.0,0.0,0.0,0.0,0.0,0.0,0.0,0.0,0.0,0.0,0.0,0.0,0.0,0.0,0.0,0.0,0.0,0.0,0.0,0.0,0.0,0.0,0.0,0.0,0.0,0.0,0.0,0.0,0.0,0.0,0.0,0.0,0.0,0.0,0.0,0.0,0.0,0.0,0.0,0.0,0.0,0.0,0.0,0.0,0.0,0.0,0.0,0.0,0.0,0.0,0.0,0.0,0.0,0.0,0.0,0.0,0.0,0.0,0.0,0.0,0.0,0.0,0.0,0.0,0.0,0.0,0.0,0.0,0.0,0.0,0.0,0.0,0.0,0.0,0.0,0.0,0.0,0.0,0.0,0.0,0.0,0.0,0.0,0.0,0.0,0.0,0.0,0.0,0.0,0.0,0.0,0.0,0.0,0.0,0.0,0.0,0.0,0.0,0.0,0.0,0.0,0.0,0.0,0.0,0.0,1.6013,1.6308,1.6414,0.0,0.0,0.0,0.0,0.0,0.0,0.0,0.0,0.0,0.0,0.0,0.0,0.0,0.0,0.0,0.0,0.0,0.0,0.0,0.0,0.0,0.0,0.0,0.0,0.0,0.0,0.0,0.0,0.0,0.0,0.0,0.0,0.0,0.0,0.0,0.0,0.0,0.0,0.0,0.0,0.0,0.0,0.0,0.0,0.0,0.0,0.0,0.0,0.0,0.0,0.0,0.0,0.0,0.0,0.0,0.0,0.0,0.0,0.0,0.0,0.0,0.0,0.0,0.0,0.0,0.0,0.0,0.0,0.0,0.0,0.0,0.0,0.0,0.0,0.0,0.0,0.0,0.0,0.0,0.0,0.0,0.0,0.0,0.0,0.0,0.0,0.0,0.0,0.0,0.0,0.0,0.0,0.0,0.0,0.0,0.0,0.0,0.0,0.0,0.0,0.0,0.0,0.0,0.0,0.0,0.0,0.0,0.0,0.0,0.0,1.5623,1.5764,1.594,0.0,1.6698,0.0,0.0,0.0,0.0,0.0,0.0,0.0,0.0,0.0,0.0,0.0,0.0,0.0,0.0,0.0,0.0,0.0,0.0,0.0,0.0,0.0,0.0,0.0,0.0,0.0,0.0,0.0,0.0,0.0,0.0,0.0,0.0,0.0,0.0,0.0,0.0,0.0,0.0,0.0,0.0,0.0,0.0,0.0,0.0,0.0,0.0,0.0,0.0,0.0,0.0,0.0,0.0,0.0,0.0,0.0,0.0,0.0,0.0,0.0,0.0,0.0,0.0,0.0,0.0,0.0,0.0,0.0,0.0,0.0,0.0,0.0,0.0,0.0,0.0,0.0,0.0,0.0,0.0,0.0,0.0,0.0,0.0,0.0,0.0,0.0,0.0,0.0,0.0,0.0,0.0,0.0,0.0,0.0,0.0,0.0,0.0,0.0,0.0,0.0,0.0,0.0,0.0,0.0,0.0,0.0,0.0,0.0,0.0,0.0,0.0,1.5379,1.5614,1.6565,1.7063,0.0,0.0,0.0,0.0,0.0,0.0,0.0,0.0,0.0,0.0,0.0,0.0,0.0,0.0,0.0,0.0,0.0,0.0,0.0,0.0,0.0,0.0,0.0,0.0,0.0,0.0,0.0,0.0,0.0,0.0,0.0,0.0,0.0,0.0,0.0,0.0,0.0,0.0,0.0,0.0,0.0,0.0,0.0,0.0,0.0,0.0,0.0,0.0,0.0,0.0,0.0,0.0,0.0,0.0,0.0,0.0,0.0,0.0,0.0,0.0,0.0,0.0,0.0,0.0,0.0,0.0,0.0,0.0,0.0,0.0,0.0,0.0,0.0,0.0,0.0,0.0,0.0,0.0,0.0,0.0,0.0,0.0,0.0,0.0,0.0,0.0,0.0,0.0,0.0,0.0,0.0,0.0,0.0,0.0,0.0,0.0,0.0,0.0,0.0,0.0,0.0,0.0,0.0,0.0,0.0,0.0,0.0,0.0,0.0,0.0,1.464,1.5108,1.5603,1.6714,1.7297,1.7128,0.0,0.0,0.0,0.0,0.0,0.0,0.0,0.0,0.0,0.0,0.0,0.0,0.0,0.0,0.0,0.0,0.0,0.0,0.0,0.0,0.0,0.0,0.0,0.0,0.0,0.0,0.0,0.0,0.0,0.0,0.0,0.0,0.0,0.0,0.0,0.0,0.0,0.0,0.0,0.0,0.0,0.0,0.0,0.0,0.0,0.0,0.0,0.0,0.0,0.0,0.0,0.0,0.0,0.0,0.0,0.0,0.0,0.0,0.0,0.0,0.0,0.0,0.0,0.0,0.0,0.0,0.0,0.0,0.0,0.0,0.0,0.0,0.0,0.0,0.0,0.0,0.0,0.0,0.0,0.0,0.0,0.0,0.0,0.0,0.0,0.0,0.0,0.0,0.0,0.0,0.0,0.0,0.0,0.0,0.0,0.0,0.0,0.0,0.0,0.0,0.0,0.0,0.0,0.0,0.0,0.0,0.0,0.0,1.3784,1.4212,1.488,1.5736,1.61,1.6349,0.0,0.0,0.0,0.0,0.0,0.0,0.0,0.0,0.0,0.0,0.0,0.0,0.0,0.0,0.0,0.0,0.0,0.0,0.0,0.0,0.0,0.0,0.0,0.0,0.0,0.0,0.0,0.0,0.0,0.0,0.0,0.0,0.0,0.0,0.0,0.0,0.0,0.0,0.0,0.0,0.0,0.0,0.0,0.0,0.0,0.0,0.0,0.0,0.0,0.0,0.0,0.0,0.0,0.0,0.0,0.0,0.0,0.0,0.0,0.0,0.0,0.0,0.0,0.0,0.0,0.0,0.0,0.0,0.0,0.0,0.0,0.0,0.0,0.0,0.0,0.0,0.0,0.0,0.0,0.0,0.0,0.0,0.0,0.0,0.0,0.0,0.0,0.0,0.0,0.0,0.0,0.0,0.0,0.0,0.0,0.0,0.0,0.0,0.0,0.0,0.0,0.0,0.0,0.0,0.0,0.0,0.0,0.0,0.0,1.3016,1.3941,1.4789,1.5647,1.5976,1.6207,0.0,0.0,0.0,0.0,0.0,0.0,0.0,0.0,0.0,0.0,0.0,0.0,0.0,0.0,0.0,0.0,0.0,0.0,0.0,0.0,0.0,0.0,0.0,0.0,0.0,0.0,0.0,0.0,0.0,0.0,0.0,0.0,0.0,0.0,0.0,0.0,0.0,0.0,0.0,0.0,0.0,0.0,0.0,0.0,0.0,0.0,0.0,0.0,0.0,0.0,0.0,0.0,0.0,0.0,0.0,0.0,0.0,0.0,0.0,0.0,0.0,0.0,0.0,0.0,0.0,0.0,0.0,0.0,0.0,0.0,0.0,0.0,0.0,0.0,0.0,0.0,0.0,0.0,0.0,0.0,0.0,0.0,0.0,0.0,0.0,0.0,0.0,0.0,0.0,0.0,0.0,0.0,0.0,0.0,0.0,0.0,0.0,0.0,0.0,0.0,0.0,0.0,0.0,0.0,0.0,0.0,0.0,0.0,0.0,1.175,0.0,1.368,1.4293,1.4708,1.5116,0.0,0.0,0.0,0.0,0.0,0.0,0.0,0.0,0.0,0.0,0.0,0.0,0.0,0.0,0.0,0.0,0.0,0.0,0.0,0.0,0.0,0.0,0.0,0.0,0.0,0.0,0.0,0.0,0.0,0.0,0.0,0.0,0.0,0.0,0.0,0.0,0.0,0.0,0.0,0.0,0.0,0.0,0.0,0.0,0.0,0.0,0.0,0.0,0.0,0.0,0.0,0.0,0.0,0.0,0.0,0.0,0.0,0.0,0.0,0.0,0.0,0.0,0.0,0.0,0.0,0.0,0.0,0.0,0.0,0.0,0.0,0.0,0.0,0.0,0.0,0.0,0.0,0.0,0.0,0.0,0.0,0.0,0.0,0.0,0.0,0.0,0.0,0.0,0.0,0.0,0.0,0.0,0.0,0.0,0.0,0.0,0.0,0.0,0.0,0.0,0.0,0.0,0.0,0.0,0.0,0.0,0.0,0.0,0.9389,0.9967,1.0792,1.133,1.1614,1.2256,1.3032,0.0,0.0,0.0,0.0,0.0,0.0,0.0,0.0,0.0,0.0,0.0,0.0,0.0,0.0,0.0,0.0,0.0,0.0,0.0,0.0,0.0,0.0,0.0,0.0,0.0,0.0,0.0,0.0,0.0,0.0,0.0,0.0,0.0,0.0,0.0,0.0,0.0,0.0,0.0,0.0,0.0,0.0,0.0,0.0,0.0,0.0,0.0,0.0,0.0,0.0,0.0,0.0,0.0,0.0,0.0,0.0,0.0,0.0,0.0,0.0,0.0,0.0,0.0,0.0,0.0,0.0,0.0,0.0,0.0,0.0,0.0,0.0,0.0,0.0,0.0,0.0,0.0,0.0,0.0,0.0,0.0,0.0,0.0,0.0,0.0,0.0,0.0,0.0,0.0,0.0,0.0,0.0,0.0,0.0,0.0,0.0,0.0,0.0,0.0,0.0,0.0,0.0,0.0,0.0,0.0,0.0,0.0,0.0,0.0,0.7946,0.8739,0.9611,1.062,1.1373,1.2319,0.0,0.0,0.0,0.0,0.0,0.0,0.0,0.0,0.0,0.0,0.0,0.0,0.0,0.0,0.0,0.0,0.0,0.0,0.0,0.0,0.0,0.0,0.0,0.0,0.0,0.0,0.0,0.0,0.0,0.0,0.0,0.0,0.0,0.0,0.0,0.0,0.0,0.0,0.0,0.0,0.0,0.0,0.0,0.0,0.0,0.0,0.0,0.0,0.0,0.0,0.0,0.0,0.0,0.0,0.0,0.0,0.0,0.0,0.0,0.0,0.0,0.0,0.0,0.0,0.0,0.0,0.0,0.0,0.0,0.0,0.0,0.0,0.0,0.0,0.0,0.0,0.0,0.0,0.0,0.0,0.0,0.0,0.0,0.0,0.0,0.0,0.0,0.0,0.0,0.0,0.0,0.0,0.0,0.0,0.0,0.0,0.0,0.0,0.0,0.0,0.0,0.0,0.0,0.0,0.0,0.0,0.0,0.0,0.0,0.2747,0.3775,0.5614,0.83,0.8473,1.007,1.3196,0.0,0.0,0.0,0.0,0.0,0.0,0.0,0.0,0.0,0.0,0.0,0.0,0.0,0.0,0.0,0.0,0.0,0.0,0.0,0.0,0.0,0.0,0.0,0.0,0.0,0.0,0.0,0.0,0.0,0.0,0.0,0.0,0.0,0.0,0.0,0.0,0.0,0.0,0.0,0.0,0.0,0.0,0.0,0.0,0.0,0.0,0.0,0.0,0.0,0.0,0.0,0.0,0.0,0.0,0.0,0.0,0.0,0.0,0.0,0.0,0.0,0.0,0.0,0.0,0.0,0.0,0.0,0.0,0.0,0.0,0.0,0.0,0.0,0.0,0.0,0.0,0.0,0.0,0.0,0.0,0.0,0.0,0.0,0.0,0.0,0.0,0.0,0.0,0.0,0.0,0.0,0.0,0.0,0.0,0.0,0.0,0.0,0.0,0.0,0.0,0.0,0.0,0.0,0.0,0.0,0.0,0.0,0.0,-0.4789,-0.3472,-0.0203,0.4986,0.4124,0.6631,0.0,0.0,0.0,0.0,0.0,0.0,0.0,0.0,0.0,0.0,0.0,0.0,0.0,0.0,0.0,0.0,0.0,0.0,0.0,0.0,0.0,0.0,0.0,0.0,0.0,0.0,0.0,0.0,0.0,0.0,0.0,0.0,0.0,0.0,0.0,0.0,0.0,0.0,0.0,0.0,0.0,0.0,0.0,0.0,0.0,0.0,0.0,0.0,0.0,0.0,0.0,0.0,0.0,0.0,0.0,0.0,0.0,0.0,0.0,0.0,0.0,0.0,0.0,0.0,0.0,0.0,0.0,0.0,0.0,0.0,0.0,0.0,0.0,0.0,0.0,0.0,0.0,0.0,0.0,0.0,0.0,0.0,0.0,0.0,0.0,0.0,0.0,0.0,0.0,0.0,0.0,0.0,0.0,0.0,0.0,0.0,0.0,0.0,0.0,0.0,0.0,0.0,0.0,0.0,0.0,0.0,0.0,0.0,0.0,-0.8245,-0.9356,-0.5781,0.2607,0.3235,0.6265,0.0,0.0,0.0,0.0,0.0,0.0,0.0,0.0,0.0,0.0,0.0,0.0,0.0,0.0,0.0,0.0,0.0,0.0,0.0,0.0,0.0,0.0,0.0,0.0,0.0,0.0,0.0,0.0,0.0,0.0,0.0,0.0,0.0,0.0,0.0,0.0,0.0,0.0,0.0,0.0,0.0,0.0,0.0,0.0,0.0,0.0,0.0,0.0,0.0,0.0,0.0,0.0,0.0,0.0,0.0,0.0,0.0,0.0,0.0,0.0,0.0,0.0,0.0,0.0,0.0,0.0,0.0,0.0,0.0,0.0,0.0,0.0,0.0,0.0,0.0,0.0,0.0,0.0,0.0,0.0,0.0,0.0,0.0,0.0,0.0,0.0,0.0,0.0,0.0,0.0,0.0,0.0,0.0,0.0,0.0,0.0,0.0,0.0,0.0,0.0,0.0,0.0,0.0,0.0,0.0,0.0,0.0,0.0,-0.5914,-1.0103,-1.1702,-0.8345,0.0221,0.0967,0.5092,0.0,0.0,0.0,0.0,0.0,0.0,0.0,0.0,0.0,0.0,0.0,0.0,0.0,0.0,0.0,0.0,0.0,0.0,0.0,0.0,0.0,0.0,0.0,0.0,0.0,0.0,0.0,0.0,0.0,0.0,0.0,0.0,0.0,0.0,0.0,0.0,0.0,0.0,0.0,0.0,0.0,0.0,0.0,0.0,0.0,0.0,0.0,0.0,0.0,0.0,0.0,0.0,0.0,0.0,0.0,0.0,0.0,0.0,0.0,0.0,0.0,0.0,0.0,0.0,0.0,0.0,0.0,0.0,0.0,0.0,0.0,0.0,0.0,0.0,0.0,0.0,0.0,0.0,0.0,0.0,0.0,0.0,0.0,0.0,0.0,0.0,0.0,0.0,0.0,0.0,0.0,0.0,0.0,0.0,0.0,0.0,0.0,0.0,0.0,0.0,0.0,0.0,0.0,0.0,0.0,0.0,0.0,0.0,-0.6258,-0.9654,-1.0747,-0.7959,-0.1322,-0.1203,0.3697,0.0,0.0,0.0,0.0,0.0,0.0,0.0,0.0,0.0,0.0,0.0,0.0,0.0,0.0,0.0,0.0,0.0,0.0,0.0,0.0,0.0,0.0,0.0,0.0,0.0,0.0,0.0,0.0,0.0,0.0,0.0,0.0,0.0,0.0,0.0,0.0,0.0,0.0,0.0,0.0,0.0,0.0,0.0,0.0,0.0,0.0,0.0,0.0,0.0,0.0,0.0,0.0,0.0,0.0,0.0,0.0,0.0,0.0,0.0,0.0,0.0,0.0,0.0,0.0,0.0,0.0,0.0,0.0,0.0,0.0,0.0,0.0,0.0,0.0,0.0,0.0,0.0,0.0,0.0,0.0,0.0,0.0,0.0,0.0,0.0,0.0,0.0,0.0,0.0,0.0,0.0,0.0,0.0,0.0,0.0,0.0,0.0,0.0,0.0,0.0,0.0,0.0,0.0,0.0,0.0,0.0,0.0,0.0,-0.3361,-0.3603,-0.4149,-0.1116,0.5744,0.1812,0.4224,0.0,0.0,0.0,0.0,0.0,0.0,0.0,0.0,0.0,0.0,0.0,0.0,0.0,0.0,0.0,0.0,0.0,0.0,0.0,0.0,0.0,0.0,0.0,0.0,0.0,0.0,0.0,0.0,0.0,0.0,0.0,0.0,0.0,0.0,0.0,0.0,0.0,0.0,0.0,0.0,0.0,0.0,0.0,0.0,0.0,0.0,0.0,0.0,2.1642,0.0,0.0,0.0,0.0,0.0,0.0,0.0,0.0,0.0,0.0,0.0,0.0,0.0,0.0,0.0,0.0,0.0,0.0,0.0,0.0,0.0,0.0,0.0,0.0,0.0,0.0,0.0,0.0,0.0,0.0,0.0,0.0,0.0,0.0,0.0,0.0,0.0,0.0,0.0,0.0,0.0,0.0,0.0,0.0,0.0,0.0,0.0,0.0,0.0,0.0,0.0,0.0,0.0,0.0,0.0,0.0,0.0,0.0,0.0,-0.2184,-0.1577,-0.1311,0.1758,0.756,0.6012,0.7944,0.0,0.0,0.0,0.0,0.0,0.0,0.0,0.0,0.0,0.0,0.0,0.0,0.0,0.0,0.0,0.0,0.0,0.0,0.0,0.0,0.0,0.0,0.0,0.0,0.0,0.0,0.0,0.0,0.0,0.0,0.0,0.0,0.0,0.0,0.0,0.0,0.0,0.0,0.0,0.0,0.0,0.0,0.0,0.0,0.0,0.0,0.0,0.0,0.0,0.0,0.0,0.0,0.0,0.0,0.0,0.0,0.0,0.0,0.0,0.0,0.0,0.0,0.0,0.0,0.0,0.0,0.0,0.0,0.0,0.0,0.0,0.0,0.0,0.0,0.0,0.0,0.0,0.0,0.0,0.0,0.0,0.0,0.0,0.0,0.0,0.0,0.0,0.0,0.0,0.0,0.0,0.0,0.0,0.0,0.0,0.0,0.0,0.0,0.0,0.0,0.0,0.0,0.0,0.0,0.0,0.0,0.0,-0.2092,-0.1159,-0.0106,0.1069,0.4111,0.913,1.0875,1.2812,1.5058,0.0,0.0,0.0,0.0,0.0,0.0,0.0,0.0,0.0,0.0,0.0,0.0,0.0,0.0,0.0,0.0,0.0,0.0,0.0,0.0,0.0,0.0,0.0,0.0,0.0,0.0,0.0,0.0,0.0,0.0,0.0,0.0,0.0,0.0,0.0,0.0,0.0,0.0,1.7587,1.8424,0.0,0.0,0.0,0.0,0.0,0.0,0.0,0.0,2.0914,0.0,0.0,0.0,0.0,0.0,0.0,0.0,0.0,0.0,0.0,0.0,0.0,0.0,0.0,0.0,0.0,0.0,0.0,0.0,0.0,0.0,0.0,0.0,0.0,0.0,0.0,0.0,0.0,0.0,0.0,0.0,0.0,0.0,0.0,0.0,0.0,0.0,0.0,0.0,0.0,0.0,0.0,0.0,0.0,0.0,0.0,0.0,0.0,0.0,0.0,0.0,0.0,0.0,0.0,0.0,0.0,-0.2213,-0.0697,0.1892,0.5638,0.7668,1.0908,1.5375,1.6309,1.6464,1.5945,0.0,0.0,0.0,0.0,0.0,0.0,0.0,0.0,0.0,0.0,0.0,0.0,0.0,0.0,0.0,0.0,0.0,0.0,0.0,0.0,0.0,0.0,0.0,0.0,0.0,0.0,0.0,0.0,0.0,0.0,0.0,0.0,0.0,0.0,0.0,0.0,0.0,0.0,0.0,1.5172,1.5037,0.0,0.0,0.0,0.0,0.0,0.0,0.0,0.0,1.8928,0.0,0.0,0.0,0.0,0.0,0.0,0.0,0.0,0.0,0.0,0.0,0.0,0.0,0.0,0.0,0.0,0.0,0.0,0.0,0.0,0.0,0.0,0.0,0.0,0.0,0.0,0.0,0.0,0.0,0.0,0.0,0.0,0.0,0.0,0.0,0.0,0.0,0.0,0.0,0.0,0.0,0.0,0.0,0.0,0.0,0.0,0.0,0.0,0.0,0.0,0.0,0.0,0.0,0.0,0.0,-0.1805,-0.0278,0.2581,0.6766,0.9351,1.249,1.6271,1.7752,1.7662,0.0,0.0,0.0,0.0,0.0,0.0,0.0,0.0,0.0,0.0,0.0,0.0,0.0,0.0,0.0,0.0,0.0,0.0,0.0,0.0,0.0,0.0,0.0,0.0,0.0,0.0,0.0,0.0,0.0,0.0,0.0,0.0,0.0,0.0,0.0,0.0,0.0,0.0,0.0,0.0,1.2221,1.0599,1.2268,0.0,0.0,0.0,0.0,0.0,0.0,1.6144,1.6958,0.0,0.0,0.0,0.0,0.0,0.0,0.0,0.0,0.0,0.0,0.0,0.0,0.0,0.0,0.0,0.0,0.0,0.0,0.0,0.0,0.0,0.0,0.0,0.0,0.0,0.0,0.0,0.0,0.0,0.0,0.0,0.0,0.0,0.0,0.0,0.0,0.0,0.0,0.0,0.0,0.0,0.0,0.0,0.0,0.0,0.0,0.0,0.0,0.0,0.0,0.0,0.0,0.0,0.0,0.0,-0.1457,0.0,0.256,0.6317,0.9257,1.2255,1.536,1.7208,1.7314,0.0,0.0,0.0,0.0,0.0,0.0,0.0,0.0,0.0,0.0,0.0,0.0,0.0,0.0,0.0,0.0,0.0,0.0,0.0,0.0,0.0,0.0,0.0,0.0,0.0,0.0,0.0,0.0,0.0,0.0,0.0,0.0,0.0,0.0,0.0,0.0,0.0,0.0,0.0,0.0,0.0,0.6404,0.6785,0.6311,0.0,0.0,0.0,0.0,1.1075,1.1856,0.0,0.0,0.0,0.0,0.0,0.0,0.0,0.0,0.0,0.0,0.0,0.0,0.0,0.0,0.0,0.0,0.0,0.0,0.0,0.0,0.0,0.0,0.0,0.0,0.0,0.0,0.0,0.0,0.0,0.0,0.0,0.0,0.0,0.0,0.0,0.0,0.0,0.0,0.0,0.0,0.0,0.0,0.0,0.0,0.0,0.0,0.0,0.0,0.0,0.0,0.0,0.0,0.0,0.0,0.0,0.0,-0.101,0.0626,0.2735,0.5371,0.8585,1.1563,1.4212,1.489,1.5071,0.0,0.0,0.0,0.0,0.0,0.0,0.0,0.0,0.0,0.0,0.0,0.0,0.0,0.0,0.0,0.0,0.0,0.0,0.0,0.0,0.0,0.0,0.0,0.0,0.0,0.0,0.0,0.0,0.0,0.0,0.0,0.0,0.0,0.0,0.0,0.0,0.0,0.0,0.0,0.0,0.0,0.2828,0.4973,0.1566,-0.003,0.0,0.0,0.427,0.3884,0.369,0.0,0.0,0.0,0.0,0.0,0.0,0.0,0.0,0.0,0.0,0.0,0.0,0.0,0.0,0.0,0.0,0.0,0.0,0.0,0.0,0.0,0.0,0.0,0.0,0.0,0.0,0.0,0.0,0.0,0.0,0.0,0.0,0.0,0.0,0.0,0.0,0.0,0.0,0.0,0.0,0.0,0.0,0.0,0.0,0.0,0.0,0.0,0.0,0.0,0.0,0.0,0.0,0.0,0.0,0.0,-0.1476,-0.0883,0.0538,0.2375,0.4741,0.8004,1.0601,1.2514,1.3841,1.4123,0.0,0.0,0.0,0.0,0.0,0.0,0.0,0.0,0.0,0.0,0.0,0.0,0.0,0.0,0.0,0.0,0.0,0.0,0.0,0.0,0.0,0.0,0.0,0.0,0.0,0.0,0.0,0.0,0.0,0.0,0.0,0.0,0.0,0.0,0.0,0.0,0.0,0.0,0.0,0.0,0.0,0.0,-0.2679,-0.4959,0.0,0.0,0.0,-0.1704,-0.1449,0.0,0.0,0.0,0.0,0.0,0.0,0.0,0.0,0.0,0.0,0.0,0.0,0.0,0.0,0.0,0.0,0.0,0.0,0.0,0.0,0.0,0.0,0.0,0.0,0.0,0.0,0.0,0.0,0.0,0.0,0.0,0.0,0.0,0.0,0.0,0.0,0.0,0.0,0.0,0.0,0.0,0.0,0.0,0.0,0.0,0.0,0.0,0.0,0.0,0.0,0.0,0.0,0.0,0.0,0.0,0.0,0.0,-0.0915,0.0151,0.1729,0.3773,0.5996,0.7784,0.905,0.982,0.0,0.0,0.0,0.0,0.0,0.0,0.0,0.0,0.0,0.0,0.0,0.0,0.0,0.0,0.0,0.0,0.0,0.0,0.0,0.0,0.0,0.0,0.0,0.0,0.0,0.0,0.0,0.7551,0.0,0.0,0.0,0.0,0.0,0.0,0.0,0.0,0.0,0.0,0.0,0.0,0.0,0.0,-0.5931,-0.8868,-1.0245,-1.1296,0.0,0.0,-0.7753,-0.7417,-0.7342,-0.6562,0.0,0.0,0.0,0.0,0.0,0.0,0.0,0.0,0.0,0.0,0.0,0.0,0.0,0.0,0.0,0.0,0.0,0.0,0.0,0.0,0.0,0.0,0.0,0.0,0.0,0.0,0.0,0.0,0.0,0.0,0.0,0.0,0.0,0.0,0.0,0.0,0.0,0.0,0.0,0.0,0.0,0.0,0.0,0.0,0.0,0.0,0.0,0.0,0.0,0.0,0.0,0.0,0.0,0.0,0.0,-0.1232,-0.0376,0.0709,0.2102,0.1619,0.183,0.2725,0.0177,-0.0109,0.0,0.0,0.0,0.0,0.0,0.0,0.0,0.0,0.0,0.0,0.0,0.0,0.0,0.0,0.0,0.0,0.0,0.0,0.0,0.0,0.0,0.0,0.0,0.0,0.0,0.0,0.0,0.0,0.0,0.0,0.0,0.0,0.0,0.0,0.0,0.0,0.0,0.0,0.0,0.0,0.0,-0.6862,-1.0281,-1.277,-1.4464,0.0,0.0,-1.4108,-1.4969,-1.522,-1.3885,-0.9769,0.0,0.0,0.0,0.0,0.0,0.0,0.0,0.0,0.0,0.0,0.0,0.0,0.0,0.0,0.0,0.0,0.0,0.0,0.0,0.0,0.0,0.0,0.0,0.0,0.0,0.0,0.0,0.0,0.0,0.0,0.0,0.0,0.0,0.0,0.0,0.0,0.0,0.0,0.0,0.0,0.0,0.0,0.0,0.0,0.0,0.0,0.0,0.0,0.0,0.0,0.0,0.0,0.0,-0.203,-0.1852,-0.1449,-0.0964,-0.0308,0.0047,0.0087,-0.0124,-0.1524,-0.1946,0.0,0.0,0.0,0.0,0.0,0.0,0.0,0.0,0.0,0.0,0.0,0.0,0.0,0.0,0.0,0.0,0.0,0.0,0.0,0.0,0.0,0.0,0.0,0.0,0.0,0.0,0.0,0.0,0.3985,0.4243,0.455,0.0,0.0,0.0,0.0,0.0,0.0,0.0,0.0,0.0,0.0,-0.8064,-1.145,-1.4075,0.0,0.0,-1.7288,-1.7748,-1.8133,-1.8815,-1.8635,-1.664,-1.6253,0.0,0.0,0.0,0.0,0.0,0.0,0.0,0.0,0.0,0.0,0.0,0.0,0.0,0.0,0.0,0.0,0.0,0.0,0.0,0.0,0.0,0.0,0.0,0.0,0.0,0.0,0.0,0.0,0.0,0.0,0.0,0.0,0.0,0.0,0.0,0.0,0.0,0.0,0.0,0.0,0.0,0.0,0.0,0.0,0.0,0.0,0.0,0.0,0.0,0.0,0.0,0.0,-0.2591,-0.2481,-0.2514,-0.2431,-0.23,-0.2528,-0.3083,-0.3969,-0.5293,-0.5868,0.0,0.0,0.0,0.0,0.0,0.0,0.0,0.0,0.0,0.0,0.0,0.0,0.0,0.0,0.0,0.0,0.0,0.0,0.0,0.0,0.0,0.0,0.0,0.0,0.0,0.0,0.0,0.0,0.1992,0.2203,0.2282,0.0,0.0,0.0,0.0,0.0,0.0,0.0,0.0,0.0,0.0,-0.8996,-1.2205,-1.4628,-1.658,-1.7912,-1.8918,-1.9533,-1.9682,-2.05,-2.109,-2.0991,0.0,0.0,0.0,0.0,0.0,0.0,0.0,0.0,0.0,0.0,0.0,0.0,0.0,0.0,0.0,0.0,0.0,0.0,0.0,0.0,0.0,0.0,0.0,0.0,0.0,0.0,0.0,0.0,0.0,0.0,-0.9604,0.0,0.0,0.0,0.0,0.0,0.0,0.0,0.0,0.0,0.0,0.0,0.0,0.0,0.0,0.0,0.0,0.0,0.0,0.0,0.0,0.0,0.0,-0.3091,-0.3211,-0.342,-0.3628,-0.3738,-0.6648,-0.8477,-0.9289,-1.279,-1.3707,-1.1572,0.0,0.0,0.0,0.0,0.0,0.0,0.0,0.0,0.0,0.0,0.0,0.0,0.0,0.0,0.0,0.0,0.0,0.0,0.0,0.0,0.0,0.0,0.0,0.0,0.0,0.0,-0.136,-0.1101,-0.0822,0.0,0.0,0.0,0.0,0.0,0.0,0.0,0.0,0.0,0.0,-0.6961,-0.9556,-1.2439,-1.4467,-1.6349,-1.8429,-1.9086,-1.9469,-1.9847,-2.0376,-2.1022,0.0,0.0,0.0,0.0,0.0,0.0,0.0,0.0,0.0,0.0,0.0,0.0,0.0,0.0,0.0,0.0,0.0,0.0,0.0,0.0,0.0,0.0,0.0,0.0,0.0,0.0,0.0,-1.1898,-1.1083,0.0,0.0,0.0,0.0,0.0,0.0,0.0,0.0,0.0,0.0,0.0,-1.0279,-0.9626,0.0,0.0,0.0,0.0,0.0,0.0,0.0,0.0,0.0,0.0,0.0,0.0,-0.4074,-0.4121,-0.458,-0.525,-0.6096,-0.7918,-0.9702,-1.1525,-1.3639,-1.4401,-1.3561,0.0,0.0,0.0,0.0,0.0,0.0,0.0,0.0,0.0,0.0,0.0,0.0,0.0,0.0,0.0,0.0,0.0,0.0,0.0,0.0,0.0,0.0,0.0,0.0,0.0,-0.2741,0.0,0.0,0.0,0.0,0.0,0.0,0.0,0.0,0.0,0.0,0.0,-0.562,-0.6558,-0.772,-0.9256,-1.1404,-1.3578,-1.5729,0.0,0.0,0.0,0.0,0.0,0.0,0.0,0.0,0.0,0.0,0.0,0.0,0.0,0.0,-1.1985,-0.781,-0.7069,-0.7149,-0.7282,0.0,0.0,0.0,0.0,0.0,0.0,0.0,0.0,0.0,0.0,0.0,0.0,0.0,0.0,-1.2737,0.0,-1.1035,0.0,0.0,0.0,0.0,0.0,0.0,0.0,0.0,-1.1117,-1.0824,-1.0346,-0.9761,-0.9179,0.0,-0.7848,-0.6795,0.0,0.0,0.0,0.0,0.0,0.0,0.0,0.0,-0.4733,-0.4838,-0.5431,-0.6205,-0.714,-0.8641,-1.0196,-1.1823,-1.3432,-1.4297,-1.432,-1.3493,-1.2221,0.0,0.0,0.0,0.0,0.0,0.0,0.0,0.0,0.0,0.0,0.0,0.0,0.0,0.0,0.0,0.0,0.0,0.0,0.0,0.0,0.0,0.0,0.0,-0.4403,0.0,0.0,0.0,0.0,0.0,0.0,0.0,0.0,0.0,-0.7148,-0.701,-0.7205,-0.7901,-0.8673,-0.9768,-1.1386,0.0,0.0,0.0,0.0,0.0,0.0,0.0,-2.0896,-2.0765,-2.0548,-2.0112,-1.93,-1.8899,-1.8455,-1.7711,0.0,0.0,-1.2586,-1.1962,-1.1972,-1.1929,-1.2353,-1.2343,-1.1058,-1.0345,-0.9525,0.0,0.0,0.0,0.0,0.0,0.0,0.0,0.0,-1.3877,-1.3329,0.0,-1.1786,0.0,0.0,0.0,0.0,0.0,-1.1599,0.0,0.0,-1.0624,-1.0343,-0.9926,-0.9658,-0.9306,-0.8798,-0.8288,-0.7684,-0.6977,-0.58,0.0,0.0,0.0,0.0,0.0,0.0,-0.5174,-0.5303,-0.6041,-0.6521,-0.6863,-0.8874,-1.0144,-1.0667,-1.2487,-1.3714,-1.4189,-1.373,-1.3086,-1.2393,-1.0507,0.0,0.0,0.0,0.0,0.0,0.0,0.0,0.0,0.0,0.0,0.0,0.0,0.0,0.0,0.0,0.0,0.0,0.0,0.0,0.0,-0.6837,0.0,0.0,0.0,0.0,0.0,0.0,0.0,0.0,0.0,0.0,-0.8367,-0.8181,-0.8168,-0.8668,0.0,0.0,0.0,0.0,-1.5565,-1.6673,-1.7678,-1.8494,-1.9158,-1.994,-2.064,-2.1225,0.0,0.0,-1.9541,-1.844,-1.7513,-1.6719,-1.6386,-1.6303,-1.6792,-1.5852,-1.5121,-1.475,-1.4343,-1.4107,-1.3576,-1.2437,-1.166,-1.5268,0.0,0.0,0.0,0.0,-1.4216,-1.3871,-1.335,-1.2922,-1.2473,-1.1918,-1.095,0.0,0.0,0.0,0.0,0.0,0.0,-1.0716,-1.0295,-1.0419,-1.0391,-1.0025,-0.9878,-0.9716,-0.954,-0.8619,-0.7797,-0.7165,-0.6326,-0.5593,-0.4981,0.0,0.0,0.0,0.0,-0.5267,-0.5315,-0.6117,-0.6773,-0.7251,-0.8567,-1.0173,-1.2026,-1.2944,-1.3804,-1.4653,-1.4387,-1.399,-1.3494,-1.2137,0.0,0.0,0.0,0.0,0.0,0.0,0.0,0.0,0.0,0.0,0.0,0.0,0.0,0.0,0.0,0.0,0.0,0.0,0.0,-0.7655,-0.7694,-0.7546,0.0,0.0,0.0,0.0,0.0,0.0,0.0,0.0,0.0,-0.8351,-0.8571,-0.8731,0.0,0.0,-1.0849,-1.1818,-1.3557,-1.5302,-1.6709,0.0,0.0,0.0,-1.9672,-1.9674,-2.0022,-1.9564,-1.884,-1.8044,-1.7423,-1.6879,-1.6487,-1.6206,-1.5987,-1.5746,-1.5517,-1.5198,-1.4885,-1.4436,-1.3916,-1.3251,-1.2402,-1.1455,-1.4702,-1.4492,-1.3953,-1.3726,-1.3808,-1.3622,-1.3243,-1.2894,-1.2431,-1.2073,-1.1732,-1.088,-1.0702,-1.0863,-1.0105,0.0,0.0,0.0,-0.9609,-0.9076,-0.9359,-0.9355,-0.9068,-0.8782,-0.8639,-0.8444,-0.7717,-0.7178,-0.6821,-0.6328,-0.5768,-0.5068,0.0,0.0,-0.474,-0.5182,-0.539,-0.5307,-0.6118,-0.6746,-0.7055,-0.8427,-1.0049,-1.1918,-1.2452,-1.3097,-1.3992,-1.3936,-1.3879,-1.4063,-1.3052,-1.1675,0.0,0.0,0.0,0.0,0.0,0.0,0.0,0.0,0.0,0.0,0.0,-0.5586,0.0,0.0,0.0,0.0,-0.8099,-0.819,-0.8212,-0.8285,0.0,0.0,0.0,0.0,0.0,0.0,0.0,-0.8053,-0.7922,-0.789,-0.8152,-0.8338,-0.8727,-0.9285,-1.0114,-1.0975,-1.1847,0.0,-1.4792,-1.5923,-1.6654,-1.7503,-1.8605,-1.8578,-1.8423,-1.8577,-1.8218,-1.7674,-1.7028,-1.6541,-1.6156,-1.5695,-1.5373,-1.5046,-1.4545,-1.4469,-1.4451,-1.4315,-1.3989,-1.3516,-1.2969,-1.2026,-1.1099,-1.4225,-1.3932,-1.3742,-1.3681,-1.3659,-1.3328,-1.2993,-1.2648,-1.2248,-1.1962,-1.1789,-1.111,-1.0821,-1.0659,-1.0084,0.0,-0.7479,-0.8437,-0.8449,-0.7537,-0.783,-0.7823,-0.752,-0.6951,-0.6661,-0.647,-0.6178,-0.5989,-0.5884,-0.5877,-0.559,-0.5211,-0.5076,-0.5065,-0.5109,-0.5292,-0.5403,-0.5406,-0.6236,-0.6649,-0.6698,-0.8392,-0.9723,-1.0742,-1.1162,-1.1778,-1.2668,-1.2691,-1.3086,-1.3999,-1.3302,-1.2251,-1.0927,0.0,0.0,0.0,0.0,0.0,0.0,0.0,0.0,0.0,0.0,0.0,0.0,0.0,0.0,0.0,-0.8698,0.0,-0.8685,-0.8649,0.0,0.0,0.0,-0.8018,-0.7991,-0.7698,-0.7573,-0.771,0.0,0.0,-0.7706,0.0,-0.825,-0.9395,-1.0359,-1.1333,-1.2135,-1.3164,-1.405,-1.4562,-1.5346,-1.6102,-1.6787,-1.705,-1.7189,-1.7145,-1.7139,-1.6917,-1.6218,-1.5756,-1.5163,-1.4426,-1.4027,-1.3673,-1.3171,-1.3055,-1.3018,-1.3128,-1.3077,-1.2952,-1.2471,-1.1512,-1.0663,-1.4109,-1.4084,-1.3247,-1.2783,-1.2636,-1.2248,-1.1661,-1.0983,-1.0835,-1.0443,-0.9827,-0.948,-0.9175,-0.8999,-0.8855,-0.8491,-0.8217,-0.8422,-0.8337,-0.8096,-0.8092,-0.8035,-0.7828,-0.723,-0.6888,-0.6786,-0.6317,-0.5705,-0.5228,-0.5395,-0.4998,-0.4223,-0.4188,-0.4463,-0.4836,-0.502,-0.5235,-0.5644,-0.6337,-0.6924,-0.7446,-0.8323,-0.9059,-0.9603,-1.011,-1.0844,-1.1748,-1.1693,-1.1909,-1.268,-1.2621,-1.2151,-1.1444,-1.0629,0.0,0.0,0.0,0.0,0.0,0.0,0.0,0.0,0.0,-0.7967,-0.8093,0.0,-0.8152,0.0,-0.8685,-0.8907,-0.9204,-0.9074,0.0,0.0,-0.858,-0.8321,-0.763,-0.7344,-0.7085,-0.6883,-0.6942,-0.7019,-0.6865,-0.7403,-0.7842,-0.8027,-0.9285,-1.0376,-1.0906,-1.2177,-1.3215,-1.3681,-1.4353,-1.5144,-1.566,-1.6192,-1.6356,-1.6111,-1.5861,-1.5508,-1.4871,-1.4378,-1.3882,-1.352,-1.2872,-1.2365,-1.1922,-1.1465,-1.1007,-1.0714,-1.1248,-1.17,-1.131,-1.0369,-0.948,-1.3031,-1.3131,-1.2234,-1.1748,-1.1515,-1.1595,-1.119,-1.0429,-1.0353,-0.9831,-0.9098,-0.8887,-0.8638,-0.8156,-0.8152,-0.8014,-0.7747,-0.7641,-0.7672,-0.744,-0.7536,-0.7366,-0.7235,-0.6665,-0.6435,-0.6533,-0.5781,-0.5269,-0.5074,-0.494,-0.4534,-0.4051,-0.3975,-0.4235,-0.4802,-0.4839,-0.5083,-0.5532,-0.6284,-0.6948,-0.7501,-0.8036,-0.8604,-0.9192,-0.9724,-1.0324,-1.1218,-1.1172,-1.152,-1.2188,-1.2352,-1.2271,-1.1972,-1.131,-1.0576,0.0,0.0,0.0,0.0,0.0,0.0,0.0,0.0,0.0,0.0,0.0,-0.808,0.0,-0.8192,-0.8282,-0.8562,-0.8352,-0.8176,-0.7938,-0.778,-0.739,-0.6651,-0.6322,-0.605,-0.5894,-0.5905,-0.5972,-0.5873,-0.6169,-0.6423,-0.6325,-0.7196,-0.8362,-0.9653,-1.0777,-1.1594,-1.2245,-1.2968,-1.3708,-1.4283,-1.4728,-1.4934,-1.4657,-1.4363,-1.3947,-1.3375,-1.2903,-1.2438,-1.1948,-1.1421,-1.093,-1.0536,-1.0126,-0.9669,-0.914,-0.913,-0.9427,-0.9804,-0.9115,-0.8305,-1.178,-1.1623,-1.1117,-1.0695,-1.0543,-1.1278,-1.1001,-1.0152,-1.0013,-0.9496,-0.8702,-0.8702,-0.8414,-0.7871,-0.7759,-0.7484,-0.685,-0.6844,-0.6782,-0.6668,-0.6665,-0.66,-0.6382,-0.5864,-0.5758,-0.5962,-0.5142,-0.4935,-0.5037,-0.4561,-0.4328,-0.4228,-0.4068,-0.4218,-0.486,-0.4804,-0.5055,-0.5526,-0.6363,-0.6934,-0.7315,-0.7722,-0.8284,-0.9082,-0.9495,-1.0004,-1.0589,-1.0805,-1.1203,-1.1715,-1.2012,-1.2154,-1.2154,-1.1427,-1.0864,0.0,-0.9433,0.0,0.0,0.0,0.0,0.0,0.0,0.0,0.0,-0.7928,-0.7854,-0.7785,-0.7492,-0.7315,-0.7571,-0.7329,-0.6993,-0.6829,-0.6412,-0.5901,-0.5552,-0.5131,-0.4875,-0.4863,-0.4859,-0.4757,-0.4914,-0.4776,-0.4703,-0.4856,-0.5201,-0.6159,-0.7983,-0.887,-0.9658,-1.0559,-1.123,-1.1883,-1.2485,-1.2851,-1.2924,-1.2785,-1.2565,-1.2352,-1.1768,-1.1426,-1.09,-1.0284,-0.9903,-0.9514,-0.9133,-0.8813,-0.8426,-0.7821,-0.7119,-0.7026,-0.7918,-0.7677,-0.6939,-1.1524,-1.1273,-1.0755,-1.0382,-1.0361,-1.0055,-0.949,-0.8587,-0.8558,-0.8149,-0.7487,-0.7485,-0.7473,-0.7343,-0.734,-0.7221,-0.7089,-0.7089,-0.7027,-0.6918,-0.6915,-0.685,-0.673,-0.6012,-0.5765,-0.576,-0.5174,-0.4736,-0.4539,-0.4618,-0.451,-0.4111,-0.4395,-0.4652,-0.4778,0.0,0.0,0.0,-0.6975,-0.7302,-0.7236,-0.7303,-0.7579,-0.8024,-0.8349,0.0,-0.9308,-0.949,-0.9732,-1.0065,-1.0387,0.0,0.0,0.0,0.0,0.0,0.0,0.0,0.0,0.0,0.0,0.0,-0.7371,-0.7321,-0.7861,-0.7453,-0.7127,-0.7285,-0.7102,-0.714,-0.7469,-0.6964,-0.6527,-0.644,-0.592,-0.5444,-0.518,-0.4994,-0.4791,-0.4711,-0.4596,-0.4594,-0.4615,-0.4661,-0.4566,-0.458,-0.4814,-0.5046,-0.5363,-0.6781,-0.7863,-0.8604,-0.9382,-0.9884,-1.0237,-1.0645,-1.083,-1.0559,-1.0484,-1.0346,-1.0126,-0.9857,-0.9672,-0.9231,-0.8803,-0.8267,-0.7807,-0.7126,-0.6472,-0.6013,-0.5371,-0.5266,-0.6177,-0.5764,-0.5115,-1.0207,0.0,-0.97,-0.946,0.0,-0.9137,-0.8634,-0.7982,-0.8144,-0.7926,-0.7244,-0.7244,-0.7099,-0.6935,-0.6935,-0.6824,-0.6715,-0.6715,-0.6654,-0.6552,-0.6549,-0.6488,-0.6376,-0.5901,-0.5668,-0.5768,-0.5199,-0.4947,-0.4908,-0.4804,-0.4478,-0.4237,-0.4334,-0.4614,-0.4973,-0.5763,-0.633,-0.6737,-0.6854,-0.7148,-0.7344,-0.7443,-0.7632,-0.8076,0.0,0.0,0.0,0.0,0.0,0.0,0.0,0.0,0.0,0.0,0.0,-0.8856,-0.81,-0.7548,-0.7205,-0.6832,-0.6605,-0.6605,-0.6218,-0.6263,-0.6929,-0.6717,-0.6496,-0.6505,-0.6269,-0.6166,-0.6256,-0.5772,-0.542,-0.5365,-0.4996,-0.4598,-0.4337,-0.3963,-0.3771,-0.3821,-0.3524,-0.3427,-0.3723,-0.3482,-0.3381,-0.3491,-0.3381,-0.3442,-0.4022,-0.5257,-0.6461,-0.7172,-0.7957,-0.8501,-0.8816,-0.9139,-0.932,-0.9092,-0.8986,-0.8861,-0.877,-0.8308,-0.7962,-0.7727,-0.7301,-0.6752,-0.6339,-0.572,-0.501,-0.4372,-0.3736,-0.317,-0.3357,-0.3401,-0.3291,-0.905,-0.8805,-0.8805,-0.8667,-0.8404,-0.8281,-0.7964,-0.7605,0.0,0.0,0.0,-0.7138,-0.6974,-0.6659,-0.6641,-0.6519,-0.6301,-0.6281,-0.6227,-0.6146,-0.6141,-0.6096,-0.6013,-0.5674,-0.5665,-0.5875,-0.5329,-0.5177,-0.5313,-0.4898,-0.4654,-0.4487,-0.4378,-0.4673,-0.5367,-0.6253,-0.6738,-0.6825,-0.6683,-0.6938,-0.7406,-0.7468,-0.777,-0.8139,-0.8318,-0.8521,-0.8641,-0.8874,-0.9125,-0.9125,-0.9262,-0.9331,-0.9501,-0.8803,-0.8185,-0.7742,-0.6962,-0.6349,-0.5994,-0.5652,-0.5492,-0.5422,-0.5144,-0.5153,-0.5765,-0.5863,-0.5799,-0.552,-0.5225,-0.5007,-0.5023,-0.4599,-0.433,-0.4258,-0.3959,-0.3559,-0.3326,-0.2778,-0.2505,-0.2773,-0.2294,-0.2111,-0.2585,-0.2175,-0.1884,-0.2083,-0.1984,-0.187,-0.2801,-0.4126,-0.5339,-0.6074,-0.6552,-0.7073,-0.7413,-0.7644,-0.7768,-0.7465,-0.7445,-0.7395,-0.7141,-0.6785,-0.6403,-0.6149,-0.5577,-0.5179,-0.4807,-0.4261,-0.3622,-0.2832,-0.2045,-0.1258,-0.0547,-0.0921,-0.1209,-0.9059,-0.869,-0.869,-0.85,-0.8154,-0.7783,-0.747,-0.6984,-0.7143,-0.7161,-0.7031,-0.6791,-0.655,-0.6531,-0.6441,-0.6398,-0.6396,-0.6312,-0.6267,0.0,-0.6253,-0.6246,-0.6224,-0.5914,-0.5656,-0.5647,-0.5254,-0.5102,-0.509,-0.509,-0.4976,-0.5071,-0.5177,-0.5554,-0.5985,-0.609,-0.6326,-0.679,-0.686,-0.6942,-0.6941,-0.6917,-0.6998,-0.7272,-0.7092,-0.7176,-0.7719,-0.7309,-0.7148,-0.7322,-0.7025,-0.6782,-0.67,-0.6618,-0.6346,-0.6074,-0.5811,-0.5549,-0.5463,-0.5099,-0.4728,-0.4334,-0.4258,-0.4416,-0.4881,-0.4775,-0.4733,-0.4626,-0.4559,-0.4567,-0.4549,-0.4128,-0.3725,-0.3701,-0.3007,-0.243,-0.2423,-0.1884,-0.1614,-0.1704,-0.1522,-0.1517,-0.161,-0.1514,-0.1418,-0.1515,-0.1417,-0.1419,-0.1761,-0.318,-0.4376,-0.4782,-0.4949,-0.5032,-0.5218,-0.528,-0.5444,-0.5079,-0.5405,-0.5473,-0.5107,-0.4978,-0.4859,-0.4511,-0.398,-0.3565,-0.3119,-0.226,-0.1688,-0.1204,-0.0562,0.016,0.0943,0.1305,0.1367,-0.8733,-0.8367,-0.8489,-0.8331,-0.8149,-0.7707,-0.7371,-0.6896,-0.6677,-0.6722,-0.679,-0.6667,-0.6398,-0.5992,-0.6183,-0.6047,-0.5695,-0.5834,-0.5901,-0.5899,-0.585,-0.5714,-0.5596,-0.5335,-0.5202,-0.509,-0.4833,-0.4792,-0.4968,-0.4964,-0.4941,-0.5112,-0.5428,-0.5725,-0.6095,-0.615,-0.6434,-0.6836,-0.6691,-0.6657,-0.7055,-0.6988,-0.6954,-0.7044,-0.6753,-0.6718,-0.6932,-0.659,-0.6461,-0.6644,-0.6314,-0.6098,-0.6012,-0.5736,-0.546,-0.509,-0.5,-0.4818,-0.4541,-0.4208,-0.3868,-0.3521,-0.3366,-0.3373,-0.3436,-0.3753,-0.3952,-0.3915,-0.3686,-0.3523,-0.3489,-0.3074,-0.2761,-0.273,-0.2033,-0.1636,-0.1529,-0.0987,-0.0718,-0.0897,-0.0628,-0.0538,-0.0807,-0.0628,-0.0538,-0.0807,-0.0897,-0.0897,-0.0718,-0.1588,-0.2435,-0.2782,-0.3217,-0.3566,-0.3736,-0.3996,-0.4064,-0.3939,-0.384,-0.3648,-0.328,-0.3233,-0.2958,-0.2597,-0.2165,-0.1752,-0.1358,-0.0795,-0.0159,0.0478,0.1114,0.1819,0.2506,0.333,0.3613,-0.8399,-0.8312,-0.8315,-0.8156,-0.8095,-0.7602,-0.7244,-0.678,-0.6403,-0.6363,-0.654,-0.6533,-0.625,-0.5708,-0.5806,-0.5678,-0.5312,-0.5348,-0.5309,-0.5303,-0.5244,-0.51,-0.4868,-0.4856,-0.4732,-0.4502,-0.4487,-0.4561,-0.4728,-0.4724,-0.4802,-0.4957,-0.5258,-0.5459,-0.5672,-0.597,-0.6275,-0.6466,-0.6222,-0.6415,-0.7074,-0.6863,-0.6798,-0.6798,-0.6499,-0.6255,-0.6258,-0.5942,-0.5831,-0.5926,-0.5623,-0.5422,-0.5422,-0.5045,-0.4761,-0.4383,-0.4381,-0.4106,-0.3645,-0.3358,-0.3171,-0.2897,-0.2642,-0.2368,-0.227,-0.2567,-0.2848,-0.2914,-0.2677,-0.2404,-0.2275,-0.1867,-0.1659,-0.1538,-0.1131,-0.0834,-0.073,-0.0182,0.0091,-0.0273,0.0182,0.0273,0.0091,0.0182,0.0364,0.0091,-0.009,-0.0179,0.0,-0.009,-0.0361,-0.0721,-0.1438,-0.2145,-0.2505,-0.2679,-0.2662,-0.2626,-0.2272,-0.191,-0.1542,-0.136,-0.1177,-0.0827,-0.049,-0.0081,0.0238,0.0786,0.1413,0.2041,0.2747,0.3444,0.4148,0.4993,0.5508,-0.8562,-0.8554,-0.8543,-0.8296,-0.7709,-0.7345,-0.6869,-0.641,-0.6039,-0.5914,-0.6023,-0.6027,-0.5898,-0.588,-0.5561,-0.5285,-0.5279,-0.4966,-0.4814,-0.4814,-0.4807,-0.4803,-0.4673,-0.4613,-0.4582,-0.4572,-0.4516,-0.448,-0.4463,-0.4576,-0.4575,-0.4562,-0.4722,-0.4792,-0.4895,-0.5042,-0.5322,-0.5633,-0.5606,-0.5865,-0.66,-0.6287,-0.6126,-0.6129,-0.5625,-0.5422,-0.5691,-0.4929,-0.4594,-0.4785,-0.4332,-0.4005,-0.4007,-0.3912,-0.391,-0.3816,-0.3818,-0.365,-0.3223,-0.2935,-0.266,-0.2404,-0.2007,-0.1708,-0.1608,-0.1107,-0.1006,-0.1504,-0.1509,-0.1309,-0.1005,-0.0694,-0.0589,-0.0586,-0.0096,0.0285,0.0284,0.0569,0.0664,0.0664,0.0755,0.0758,0.0755,0.0849,0.0939,0.1294,0.1185,0.1265,0.1446,0.1371,0.1383,0.1195,0.0273,-0.063,-0.072,-0.0718,-0.0629,-0.0179,-0.0179,0.0,0.0267,0.0351,0.0345,0.0942,0.1005,0.1475,0.2017,0.2467,0.3062,0.369,0.4233,0.4838,0.5774,0.6546,0.6754,-0.8587,-0.8587,-0.8587,-0.8317,-0.7722,-0.7285,-0.6923,-0.6407,-0.5792,-0.5546,-0.5546,-0.5425,-0.5302,-0.5302,-0.5143,-0.5007,-0.4755,-0.4807,-0.4773,-0.477,-0.4729,-0.4589,-0.4462,-0.4284,-0.4252,-0.4021,-0.3993,-0.4075,-0.4265,-0.4369,-0.448,-0.4477,-0.4339,-0.4438,-0.4764,-0.4735,-0.4933,-0.5372,-0.5154,-0.5218,-0.5441,-0.5714,-0.5833,-0.5829,-0.5267,-0.5037,-0.5033,-0.4501,-0.4187,-0.4287,-0.3862,-0.3552,-0.3454,-0.3354,-0.3157,-0.296,-0.2958,-0.2869,-0.2493,-0.2195,-0.1903,-0.1716,-0.1312,-0.111,-0.111,-0.0505,-0.0303,-0.0404,-0.0505,-0.0404,-0.0302,-0.0099,0.0098,0.0098,0.0579,0.0954,0.1049,0.1335,0.1526,0.1622,0.1811,0.1907,0.1906,0.2096,0.2185,0.2449,0.2426,0.2413,0.2511,0.2621,0.2724,0.2725,0.2333,0.158,0.0928,0.0743,0.0836,0.0928,0.1208,0.158,0.2221,0.2309,0.2461,0.3021,0.3129,0.3393,0.3981,0.4356,0.4874,0.5374,0.6041,0.6696,0.7234,0.7999,0.8376,-0.8587,-0.8581,-0.8557,-0.8157,-0.7714,-0.7302,-0.6937,-0.6414,-0.579,-0.5546,-0.5546,-0.5056,-0.4935,-0.4933,-0.481,-0.4685,-0.4432,-0.451,-0.4609,-0.4605,-0.4435,-0.4292,-0.4166,-0.4108,-0.3962,-0.3725,-0.3711,-0.3795,-0.3983,-0.4203,-0.4315,-0.4315,-0.4073,-0.4064,-0.4397,-0.4268,-0.4367,-0.47,-0.4369,-0.4344,-0.4498,-0.4912,-0.5241,-0.5318,-0.4943,-0.4694,-0.4572,-0.4063,-0.3751,-0.3732,-0.3432,-0.323,-0.3029,-0.2725,-0.2422,-0.2219,-0.2119,-0.2018,-0.1817,-0.1515,-0.1313,-0.101,-0.0707,-0.0404,-0.0303,0.0101,0.0505,0.0707,0.0606,0.0404,0.0504,0.0599,0.0792,0.089,0.1172,0.1551,0.1746,0.2035,0.2232,0.2423,0.2624,0.2808,0.2902,0.3089,0.3267,0.3264,0.3343,0.3428,0.3434,0.3534,0.3644,0.3743,0.3851,0.346,0.2386,0.2276,0.2284,0.2473,0.2939,0.3411,0.4087,0.418,0.4265,0.4578,0.5082,0.5346,0.5606,0.5957,0.6423,0.6911,0.7556,0.8214,0.8546,0.9377,0.9895,-0.8587,-0.8571,-0.8473,-0.8099,-0.7707,-0.7234,-0.6874,-0.6405,-0.6037,-0.5919,-0.5794,-0.5181,-0.4933,-0.4933,-0.4562,-0.4438,-0.4315,-0.4066,-0.394,-0.4063,-0.3936,-0.3939,-0.3937,-0.3882,-0.3849,-0.3833,-0.3786,-0.3762,-0.3875,-0.3872,-0.3878,-0.3872,-0.3812,-0.3556,-0.3432,-0.3274,-0.3137,-0.3361,-0.3249,-0.336,-0.3575,-0.3628,-0.3891,-0.4166,-0.4563,-0.4414,-0.4047,-0.3625,-0.329,-0.3233,-0.2726,-0.2422,-0.2422,-0.2219,-0.1917,-0.1614,-0.1414,-0.1212,-0.1212,-0.101,-0.0707,-0.0404,0.0,0.0404,0.0608,0.1013,0.1318,0.1518,0.1419,0.1417,0.142,0.1414,0.1613,0.1816,0.1915,0.211,0.2311,0.2601,0.2716,0.2912,0.3104,0.3399,0.331,0.3564,0.3922,0.4001,0.4148,0.43,0.4319,0.417,0.43,0.4418,0.4544,0.4365,0.4137,0.394,0.4216,0.4409,0.4524,0.5063,0.5514,0.5879,0.597,0.6134,0.6435,0.6687,0.7058,0.7397,0.7875,0.8337,0.8797,0.9374,0.9713,1.0315,1.0812,-0.8587,-0.8584,-0.8278,-0.8021,-0.7589,-0.704,-0.6679,-0.641,-0.579,-0.5546,-0.5546,-0.5056,-0.481,-0.4562,-0.4439,-0.4318,-0.4071,-0.395,-0.395,-0.395,-0.395,-0.395,-0.3944,-0.3888,-0.3861,-0.3857,-0.3838,-0.3827,-0.3823,-0.379,-0.3768,-0.3759,-0.3476,-0.3333,-0.3209,-0.2941,-0.2805,-0.2805,-0.2691,-0.258,-0.2691,-0.2675,-0.2672,-0.2681,-0.3033,-0.3186,-0.306,-0.2505,-0.2171,-0.2157,-0.1929,-0.1816,-0.1615,-0.1414,-0.1212,-0.111,-0.0808,-0.0606,-0.0404,-0.0202,0.0101,0.0303,0.0505,0.0711,0.0923,0.1234,0.1446,0.1457,0.1756,0.1961,0.1972,0.1948,0.2031,0.2457,0.2543,0.2726,0.3025,0.3225,0.3428,0.3833,0.4236,0.4535,0.4628,0.4906,0.4986,0.4982,0.525,0.5326,0.5429,0.5563,0.5775,0.5884,0.6106,0.6208,0.6145,0.5333,0.5038,0.5525,0.5821,0.641,0.6881,0.7155,0.7249,0.7541,0.7743,0.8034,0.8413,0.8878,0.9321,0.9737,1.0267,1.0671,1.0929,1.1453,1.1778,-0.8587,-0.8581,-0.8148,-0.7916,-0.7515,-0.6965,-0.648,-0.6211,-0.5834,-0.5571,-0.5304,-0.5056,-0.4687,-0.4438,-0.4316,-0.4071,-0.395,-0.395,-0.395,-0.395,-0.395,-0.395,-0.3944,-0.3907,-0.389,-0.389,-0.389,-0.389,-0.3886,-0.3847,-0.3828,-0.3826,-0.3412,-0.3152,-0.3025,-0.2746,-0.2489,-0.2375,-0.2138,-0.2131,-0.2019,-0.1907,-0.181,-0.1713,-0.178,-0.1961,-0.2168,-0.183,-0.1488,-0.1466,-0.1344,-0.1227,-0.0911,-0.0808,-0.0606,-0.0404,-0.0202,0.0,0.0202,0.0404,0.0608,0.0917,0.102,0.1027,0.1149,0.1466,0.158,0.1695,0.2006,0.2318,0.2446,0.2408,0.2476,0.29,0.3077,0.3349,0.3732,0.393,0.4232,0.4738,0.5037,0.5336,0.5534,0.5636,0.5734,0.5737,0.5942,0.6142,0.6342,0.6642,0.6939,0.7039,0.7232,0.7335,0.7301,0.6688,0.6391,0.6688,0.688,0.7518,0.7935,0.8237,0.8506,0.8803,0.9208,0.9423,0.9907,1.0357,1.0782,1.1165,1.164,1.2099,1.2283,1.2531,1.2782,-0.8587,-0.844,-0.8068,-0.7636,-0.7341,-0.6877,-0.6396,-0.6061,-0.592,-0.5747,-0.5442,-0.506,-0.4687,-0.4439,-0.4195,-0.395,-0.395,-0.395,-0.395,-0.395,-0.395,-0.395,-0.395,-0.3944,-0.394,-0.3942,-0.3947,-0.3947,-0.3942,-0.3935,-0.3933,-0.3809,-0.351,-0.3236,-0.2888,-0.2569,-0.2185,-0.1947,-0.1812,-0.1797,-0.1795,-0.1458,-0.1357,-0.1262,-0.0801,-0.0908,-0.1569,-0.1361,-0.1227,-0.1072,-0.0958,-0.0629,-0.0509,-0.0404,-0.0202,0.0202,0.0405,0.0506,0.0709,0.0812,0.1024,0.1242,0.135,0.1465,0.1699,0.2025,0.2135,0.2143,0.2459,0.2684,0.3044,0.3112,0.3164,0.3334,0.3625,0.3901,0.4356,0.4636,0.5035,0.5436,0.5636,0.5636,0.5636,0.5937,0.6139,0.6239,0.6437,0.6637,0.6942,0.7241,0.7335,0.763,0.7832,0.8035,0.8038,0.7939,0.7939,0.8035,0.8021,0.8333,0.8733,0.9133,0.9327,0.9645,1.0316,1.0619,1.1204,1.165,1.1858,1.2302,1.2868,1.3234,1.3226,1.3333,1.3682,-0.8056,-0.7786,-0.7486,-0.7165,-0.6979,-0.6549,-0.6354,-0.6137,-0.5827,-0.5659,-0.55,-0.5081,-0.4687,-0.4439,-0.4316,-0.4071,-0.395,-0.395,-0.395,-0.395,-0.395,-0.395,-0.395,-0.395,-0.395,-0.395,-0.395,-0.395,-0.395,-0.395,-0.395,-0.3816,-0.3526,-0.3257,-0.2893,-0.2482,-0.2096,-0.1841,-0.1832,-0.1703,-0.1461,-0.1234,-0.0904,-0.0688,-0.0345,-0.0229,-0.0456,-0.0454,-0.0335,0.0,-0.0322,-0.0211,-0.0103,0.0,0.0203,0.0411,0.0824,0.1036,0.1151,0.1361,0.1574,0.1795,0.1903,0.2027,0.2272,0.2387,0.2509,0.2527,0.2735,0.3061,0.3419,0.3898,0.4146,0.4223,0.4281,0.4526,0.5056,0.5438,0.5641,0.5842,0.6242,0.6442,0.6442,0.6642,0.6839,0.7036,0.7235,0.7537,0.7836,0.8031,0.8329,0.8428,0.8531,0.8531,0.863,0.8733,0.8832,0.8832,0.8832,0.9027,0.9426,0.9727,1.0019,1.0605,1.1184,1.1793,1.2373,1.2845,1.3059,1.3254,1.3636,1.3774,1.386,1.4142,1.4448,-0.7925,-0.766,-0.7252,-0.6951,-0.6896,-0.6337,-0.6155,-0.6086,-0.5592,-0.5419,-0.5277,-0.4964,-0.4562,-0.4318,-0.4195,-0.4073,-0.395,-0.395,-0.3826,-0.3826,-0.3826,-0.395,-0.395,-0.395,-0.3826,-0.3703,-0.3703,-0.3702,-0.3579,-0.3702,-0.3703,-0.3694,-0.3422,-0.3162,-0.2914,-0.2397,-0.201,-0.1874,-0.1736,-0.1602,-0.1247,-0.09,-0.0567,-0.0347,-0.0115,0.0,0.0,0.0,0.0,0.0,0.0,0.0,0.0,0.0208,0.0415,0.0732,0.1154,0.1475,0.1596,0.1914,0.2138,0.2255,0.2367,0.2386,0.2639,0.2651,0.2776,0.2904,0.3112,0.3429,0.376,0.4173,0.4631,0.4849,0.4902,0.5242,0.5665,0.5939,0.6139,0.6239,0.6442,0.6739,0.6942,0.7042,0.7338,0.7633,0.7935,0.8137,0.8333,0.8627,0.8726,0.8928,0.9031,0.913,0.9225,0.9426,0.9628,0.9525,0.9525,0.9723,0.992,1.0117,1.031,1.1189,1.1868,1.2635,1.3149,1.3708,1.4011,1.4207,1.4384,1.4609,1.4796,1.494,1.529,-0.8058,-0.7925,-0.7252,-0.6982,-0.6833,-0.6233,-0.607,-0.6167,-0.5509,-0.5189,-0.5039,-0.4731,-0.4324,-0.3952,-0.4083,-0.3961,-0.3952,-0.3962,-0.3833,-0.3704,-0.3703,-0.3826,-0.3703,-0.3703,-0.3579,-0.3455,-0.3455,-0.3331,-0.3085,-0.3331,-0.3455,-0.3453,-0.308,-0.2958,-0.2825,-0.231,-0.1931,-0.1916,-0.1638,-0.1498,-0.1377,-0.0791,-0.0454,-0.035,0.0,0.0,0.0,0.0,0.0,0.0,0.0,0.0,0.0,0.032,0.0638,0.0961,0.1494,0.1928,0.2141,0.2375,0.2607,0.2645,0.2646,0.265,0.2801,0.3024,0.313,0.3138,0.3358,0.3674,0.3975,0.4416,0.479,0.535,0.5588,0.5836,0.5969,0.625,0.6439,0.6439,0.6437,0.6736,0.7238,0.7338,0.7637,0.7939,0.8137,0.8336,0.8531,0.8829,0.9027,0.913,0.9426,0.9525,0.962,0.9821,1.0023,1.0413,1.031,1.0413,1.0708,1.0801,1.1287,1.2068,1.2651,1.3414,1.3974,1.4512,1.4779,1.4857,1.5029,1.5465,1.5677,1.57,1.6124,-0.739,-0.6853,-0.6721,-0.6587,-0.6583,-0.6427,-0.6283,-0.6404,-0.5902,-0.5422,-0.5119,-0.4794,-0.4362,-0.3958,-0.4244,-0.4241,-0.4091,-0.4241,-0.4111,-0.3582,-0.3579,-0.3455,-0.3331,-0.3208,-0.3208,-0.3085,-0.3085,-0.3085,-0.296,-0.3086,-0.3086,-0.3085,-0.2838,-0.259,-0.2587,-0.2212,-0.1952,-0.193,-0.1777,-0.1513,-0.1035,-0.0906,-0.0563,-0.0113,0.0,0.0,0.0,0.0,0.0,0.0,0.0,0.0,0.0326,0.0539,0.0862,0.1195,0.1742,0.2091,0.2353,0.2589,0.2839,0.3108,0.3076,0.3184,0.3422,0.3499,0.3479,0.3475,0.3586,0.3916,0.445,0.486,0.5422,0.625,0.6318,0.6332,0.6449,0.6597,0.6642,0.6742,0.715,0.7537,0.7749,0.8035,0.8432,0.8733,0.8836,0.8935,0.9031,0.9229,0.9327,0.9525,0.9624,0.9821,1.0019,1.0216,1.0511,1.11,1.1292,1.1292,1.1683,1.2073,1.2754,1.3624,1.3817,1.4394,1.4962,1.5514,1.5431,1.5285,1.5491,1.5718,1.5992,1.6084,1.6711,-0.7259,-0.6857,-0.6589,-0.6453,-0.6449,-0.6281,-0.6285,-0.6291,-0.5792,-0.5479,-0.5309,-0.4834,-0.4395,-0.4241,-0.4245,-0.4232,-0.3959,-0.4234,-0.398,-0.3585,-0.3208,-0.3085,-0.296,-0.296,-0.296,-0.2837,-0.2837,-0.2724,-0.2609,-0.2724,-0.2723,-0.2734,-0.2599,-0.2467,-0.2467,-0.2222,-0.1969,-0.1947,-0.1801,-0.1421,-0.0938,-0.0809,-0.0459,0.0,0.0,0.0,0.0,0.0,0.0,0.0,0.0,0.0225,0.0443,0.089,0.1226,0.1343,0.2024,0.2509,0.2541,0.2904,0.3265,0.3402,0.3498,0.3603,0.3706,0.3661,0.3625,0.3628,0.3828,0.4246,0.4759,0.5347,0.607,0.6706,0.6838,0.6727,0.669,0.6799,0.6862,0.7059,0.7415,0.7969,0.8216,0.8574,0.8935,0.9232,0.9331,0.943,0.9529,0.9628,0.9624,0.9723,0.992,1.0117,1.031,1.0511,1.0904,1.159,1.2268,1.2268,1.2462,1.2953,1.3528,1.4208,1.4694,1.5267,1.5547,1.5825,1.5758,1.5611,1.5792,1.588,1.6074,1.665,1.7298,-0.7526,-0.7393,-0.6721,-0.6453,-0.6443,-0.6107,-0.6125,-0.6279,-0.5779,-0.5483,-0.549,-0.4998,-0.4563,-0.4537,-0.4274,-0.4104,-0.3965,-0.4114,-0.3842,-0.3461,-0.296,-0.2714,-0.2837,-0.2838,-0.2714,-0.2467,-0.2466,-0.2359,-0.2247,-0.2358,-0.2493,-0.2506,-0.2489,-0.2476,-0.2354,-0.2103,-0.1977,-0.1968,-0.1699,-0.1323,-0.0957,-0.0709,-0.0351,0.0,0.0,0.0231,0.0345,0.0457,0.0341,0.0115,0.0349,0.0574,0.0564,0.1158,0.1397,0.1618,0.2207,0.2696,0.2829,0.3305,0.3786,0.3796,0.379,0.3778,0.3767,0.3725,0.3798,0.3895,0.4191,0.4587,0.5176,0.5945,0.6634,0.7158,0.7254,0.7172,0.7026,0.7038,0.7205,0.729,0.7607,0.8059,0.8477,0.8847,0.9027,0.943,0.9529,0.9529,0.9628,0.9727,0.9821,0.992,1.0117,1.031,1.0507,1.0801,1.1389,1.198,1.2948,1.3238,1.3141,1.3528,1.3817,1.4304,1.4885,1.5267,1.5642,1.5818,1.5812,1.5812,1.5818,1.6015,1.6292,1.7166,1.7887,-0.7393,-0.7121,-0.6721,-0.6453,-0.6451,-0.6435,-0.6435,-0.6447,-0.6277,-0.5963,-0.5531,-0.5228,-0.4764,-0.4171,-0.4616,-0.4623,-0.415,-0.4421,-0.4421,-0.3458,-0.2837,-0.259,-0.259,-0.2345,-0.2223,-0.2099,-0.2099,-0.2105,-0.2111,-0.2126,-0.2136,-0.2141,-0.2138,-0.2134,-0.2131,-0.2112,-0.1977,-0.1971,-0.1582,-0.133,-0.0964,-0.0715,-0.0354,0.0,0.0235,0.0469,0.0703,0.0818,0.0813,0.0691,0.0799,0.091,0.1144,0.127,0.1515,0.176,0.2118,0.2609,0.287,0.324,0.3619,0.3891,0.3861,0.3839,0.3837,0.3785,0.3962,0.4266,0.4577,0.509,0.5899,0.6761,0.7318,0.7453,0.7651,0.7828,0.7807,0.7742,0.7849,0.7919,0.8333,0.8834,0.8962,0.9234,0.945,0.9632,0.9624,0.9624,0.9727,0.9826,0.992,1.0117,1.0314,1.0511,1.0801,1.1194,1.178,1.2365,1.3335,1.3919,1.3817,1.3913,1.4208,1.4592,1.4981,1.5356,1.573,1.5825,1.5818,1.5825,1.6021,1.6211,1.6676,1.7512,1.8434,-0.7257,-0.6985,-0.6587,-0.6453,-0.6453,-0.6453,-0.6453,-0.6453,-0.6453,-0.6295,-0.5848,-0.5549,-0.5089,-0.4637,-0.4671,-0.4374,-0.4177,-0.4412,-0.426,-0.3461,-0.296,-0.2713,-0.2467,-0.2222,-0.1977,-0.1977,-0.1977,-0.1982,-0.1995,-0.2001,-0.2011,-0.2036,-0.2027,-0.2017,-0.2018,-0.2003,-0.199,-0.1977,-0.1839,-0.1464,-0.0974,-0.0847,-0.0359,0.0119,0.0473,0.0707,0.106,0.1168,0.1165,0.1272,0.1366,0.1357,0.1385,0.1527,0.1785,0.1907,0.2282,0.2535,0.292,0.3292,0.3547,0.3824,0.3917,0.4029,0.413,0.4085,0.4375,0.4775,0.5184,0.5698,0.6728,0.7154,0.7607,0.7823,0.8045,0.8266,0.8232,0.8189,0.8169,0.8335,0.8709,0.8907,0.9232,0.9434,0.9561,0.964,0.9628,0.9624,0.9821,0.992,1.0216,1.0413,1.0609,1.0806,1.11,1.1585,1.2268,1.2851,1.3528,1.401,1.4106,1.4304,1.4592,1.4885,1.5172,1.5458,1.5737,1.573,1.5825,1.5832,1.6021,1.6487,1.7044,1.7785,1.8804,-0.7257,-0.6985,-0.6585,-0.6453,-0.6453,-0.6453,-0.6453,-0.6453,-0.6453,-0.6449,-0.6307,-0.5574,-0.5279,-0.4993,-0.4571,-0.4247,-0.4052,-0.3997,-0.3852,-0.3582,-0.3208,-0.296,-0.259,-0.2346,-0.2099,-0.1977,-0.1984,-0.1998,-0.2006,-0.2005,-0.203,-0.2059,-0.2041,-0.2037,-0.2034,-0.2026,-0.2013,-0.199,-0.1861,-0.1483,-0.0987,-0.0739,-0.0244,0.0485,0.072,0.0951,0.1422,0.1527,0.1634,0.1882,0.184,0.172,0.1631,0.1791,0.1962,0.1936,0.2201,0.2455,0.2826,0.3202,0.3452,0.3826,0.3948,0.407,0.4298,0.4383,0.4682,0.5309,0.5809,0.6497,0.7516,0.7756,0.7868,0.8084,0.8412,0.8628,0.8605,0.8507,0.8435,0.8602,0.8941,0.9186,0.9286,0.9489,0.9614,0.9657,0.9644,0.964,0.9846,1.0122,1.0323,1.0511,1.0708,1.11,1.1394,1.2078,1.2856,1.3147,1.3817,1.4106,1.44,1.4598,1.4885,1.4975,1.5261,1.5547,1.5737,1.573,1.5825,1.5832,1.6116,1.6588,1.7232,1.8064,1.918,-0.7257,-0.6985,-0.6587,-0.6453,-0.6453,-0.6453,-0.6453,-0.6453,-0.6453,-0.6317,-0.6046,-0.5498,-0.519,-0.4898,-0.4796,-0.4607,-0.4374,-0.4178,-0.3873,-0.3717,-0.3463,-0.3214,-0.2838,-0.2467,-0.2221,-0.2107,-0.1996,-0.2012,-0.2023,-0.2039,-0.2056,-0.2085,-0.2071,-0.2066,-0.2076,-0.2069,-0.2042,-0.2016,-0.176,-0.1251,-0.0744,-0.0247,0.0247,0.1104,0.1221,0.1457,0.1686,0.1798,0.1907,0.189,0.19,0.1907,0.179,0.1912,0.1928,0.1958,0.2094,0.2346,0.2714,0.296,0.3208,0.3579,0.3826,0.4071,0.4313,0.4547,0.5102,0.5848,0.6645,0.7177,0.7516,0.7915,0.8314,0.8549,0.8891,0.8994,0.8967,0.8883,0.8889,0.9067,0.9275,0.9365,0.948,0.9599,0.9742,0.9803,0.9786,0.9782,0.9983,1.0216,1.0336,1.0623,1.0904,1.1296,1.1785,1.2662,1.3346,1.3437,1.3919,1.4304,1.4592,1.4892,1.5083,1.5172,1.5356,1.5547,1.573,1.5825,1.5825,1.5832,1.6211,1.6683,1.7441,1.8288,1.9345,-0.7257,-0.6719,-0.6585,-0.6453,-0.6453,-0.6453,-0.6453,-0.6453,-0.6453,-0.6453,-0.6049,-0.5646,-0.5364,-0.5077,-0.469,-0.4519,-0.4436,-0.4239,-0.405,-0.3881,-0.3621,-0.3354,-0.2967,-0.2716,-0.2346,-0.2107,-0.2003,-0.202,-0.202,-0.2031,-0.2068,-0.2097,-0.2093,-0.2096,-0.2104,-0.2094,-0.2071,-0.1921,-0.1658,-0.114,-0.05,0.0124,0.0865,0.1359,0.1483,0.1722,0.1835,0.1936,0.1934,0.193,0.1917,0.1928,0.1935,0.1933,0.1929,0.1967,0.1977,0.2223,0.2715,0.296,0.3208,0.3702,0.3948,0.4318,0.4687,0.5046,0.5628,0.6483,0.7018,0.7431,0.7829,0.8225,0.847,0.8944,0.9215,0.9222,0.9164,0.9089,0.9238,0.9489,0.95,0.9523,0.9715,0.9844,0.9883,0.9953,0.9933,1.003,1.0132,1.0348,1.0649,1.0847,1.1227,1.1683,1.2273,1.2953,1.3636,1.3829,1.4016,1.44,1.4688,1.4987,1.5172,1.5356,1.5547,1.5635,1.573,1.5825,1.5825,1.5825,1.6305,1.6784,1.765,1.8613,1.9535,-0.7125,-0.6587,-0.6587,-0.6453,-0.6453,-0.6453,-0.6453,-0.6453,-0.6453,-0.6453,-0.6453,-0.5783,-0.5381,-0.524,-0.4687,-0.4258,-0.421,-0.4151,-0.4095,-0.3937,-0.3803,-0.34,-0.2999,-0.2738,-0.2498,-0.2134,-0.2019,-0.2028,-0.2031,-0.2035,-0.2065,-0.2101,-0.2116,-0.2114,-0.2117,-0.212,-0.2099,-0.1952,-0.1684,-0.1157,-0.0253,0.0625,0.124,0.1611,0.1608,0.1729,0.1971,0.1955,0.1955,0.1954,0.1941,0.1928,0.1963,0.1954,0.1953,0.1971,0.2099,0.2469,0.2715,0.3085,0.3331,0.3702,0.4195,0.4562,0.5179,0.5661,0.6485,0.7088,0.7434,0.764,0.8076,0.8437,0.8804,0.9161,0.933,0.9334,0.9228,0.9246,0.9353,0.9475,0.9566,0.9793,0.9993,1.0056,1.0091,1.0339,1.0323,1.0422,1.0617,1.0732,1.1019,1.1245,1.1649,1.2186,1.2657,1.3238,1.3727,1.4016,1.4112,1.44,1.4688,1.4981,1.5172,1.5452,1.5635,1.573,1.5825,1.5825,1.5825,1.592,1.6305,1.6935,1.7705,1.8754,1.9788,-0.7257,-0.6851,-0.6587,-0.6453,-0.6453,-0.6453,-0.6453,-0.6453,-0.6453,-0.6453,-0.6453,-0.5783,-0.5381,-0.5235,-0.452,-0.4229,-0.4204,-0.4172,-0.4135,-0.4117,-0.3987,-0.3723,-0.3205,-0.3082,-0.2683,-0.217,-0.205,-0.2058,-0.2059,-0.2059,-0.2089,-0.2131,-0.2125,-0.2121,-0.2142,-0.2142,-0.2133,-0.1978,-0.1709,-0.0913,0.0257,0.1014,0.1512,0.1757,0.1869,0.1981,0.1981,0.1971,0.1972,0.1973,0.1971,0.1968,0.1975,0.1975,0.1973,0.2098,0.2221,0.2468,0.2714,0.3085,0.3455,0.3825,0.4193,0.4685,0.5546,0.6401,0.7096,0.7108,0.7646,0.806,0.8344,0.8756,0.9167,0.9369,0.9432,0.9398,0.931,0.9439,0.9542,0.9698,0.9839,1.0069,1.0289,1.0335,1.0305,1.0573,1.0725,1.0822,1.0976,1.1182,1.1341,1.1654,1.2216,1.2753,1.3044,1.3624,1.3913,1.4208,1.4304,1.4496,1.479,1.5077,1.5363,1.5547,1.5737,1.5825,1.5825,1.5825,1.5825,1.6042,1.636,1.6989,1.7743,1.8797,2.0115,-0.7257,-0.6985,-0.6587,-0.6453,-0.6453,-0.6453,-0.6453,-0.6453,-0.6453,-0.6453,-0.6453,-0.5915,-0.5512,-0.4967,-0.4409,-0.4268,-0.4262,-0.4236,-0.4206,-0.4181,-0.4174,-0.3901,-0.3485,-0.3225,-0.2839,-0.2456,-0.2197,-0.2076,-0.2082,-0.2093,-0.2114,-0.2144,-0.2142,-0.214,-0.2154,-0.2155,-0.2013,-0.1599,-0.0927,0.0,0.0782,0.1417,0.1916,0.2043,0.2015,0.2001,0.1996,0.1983,0.1978,0.1977,0.1977,0.1977,0.1977,0.1977,0.1977,0.2099,0.2469,0.2715,0.2837,0.3207,0.3579,0.4071,0.4561,0.5421,0.628,0.7013,0.7495,0.7559,0.7971,0.8269,0.8576,0.8969,0.9173,0.9386,0.9486,0.9388,0.9439,0.9523,0.9663,0.9946,1.0235,1.0389,1.0643,1.0623,1.0621,1.0957,1.1061,1.1121,1.1323,1.168,1.1821,1.2028,1.272,1.3434,1.3505,1.3823,1.401,1.4304,1.4304,1.4496,1.4885,1.5178,1.5452,1.5642,1.573,1.5825,1.5825,1.5832,1.5838,1.6082,1.6341,1.7124,1.794,1.9681,2.1045,-0.7393,-0.7121,-0.6721,-0.6453,-0.6453,-0.6453,-0.6453,-0.6453,-0.6453,-0.6453,-0.6319,-0.5914,-0.5377,-0.4841,-0.4438,-0.43,-0.4304,-0.4307,-0.4281,-0.4251,-0.4233,-0.3951,-0.3672,-0.3267,-0.3006,-0.2608,-0.2226,-0.2104,-0.2114,-0.2123,-0.2133,-0.2154,-0.2152,-0.2153,-0.2154,-0.2155,-0.2017,-0.1343,-0.0533,0.0265,0.0925,0.1437,0.1819,0.1935,0.2042,0.2018,0.2014,0.1992,0.1977,0.1977,0.1977,0.1977,0.1977,0.1977,0.1977,0.2097,0.2582,0.2938,0.3065,0.344,0.3943,0.4438,0.5298,0.6035,0.7018,0.7508,0.763,0.798,0.8288,0.848,0.8812,0.9155,0.9327,0.9406,0.9493,0.9487,0.9398,0.9648,1.0,1.0299,1.0509,1.0792,1.0928,1.0815,1.0966,1.1266,1.1423,1.1442,1.1711,1.2049,1.227,1.2389,1.283,1.3517,1.3842,1.3943,1.4226,1.4322,1.4418,1.4592,1.4981,1.5267,1.5452,1.5635,1.5825,1.5825,1.5825,1.5838,1.5865,1.619,1.6629,1.7315,1.8363,2.0162,2.1578,-0.7529,-0.7393,-0.6721,-0.6453,-0.6453,-0.6453,-0.6453,-0.6453,-0.6453,-0.6453,-0.6453,-0.5783,-0.5245,-0.4841,-0.4441,-0.4307,-0.4307,-0.4307,-0.4298,-0.4297,-0.4297,-0.415,-0.3736,-0.3468,-0.3075,-0.2675,-0.2402,-0.2139,-0.2148,-0.2144,-0.215,-0.2155,-0.2155,-0.2155,-0.2155,-0.202,-0.1751,-0.1211,-0.0402,0.0268,0.0802,0.1326,0.1448,0.1963,0.2054,0.2019,0.2017,0.1995,0.1978,0.1978,0.1977,0.1977,0.1977,0.1977,0.1977,0.2097,0.2569,0.292,0.3038,0.3666,0.4309,0.4805,0.5544,0.6528,0.7383,0.775,0.7994,0.8244,0.8572,0.8818,0.9147,0.946,0.9509,0.9564,0.952,0.9549,0.9603,0.9849,1.02,1.064,1.0914,1.1109,1.1241,1.1244,1.1427,1.1607,1.1975,1.1993,1.2146,1.2388,1.2585,1.2791,1.2978,1.3496,1.3871,1.4116,1.4449,1.4522,1.4594,1.4833,1.5077,1.5261,1.5445,1.5635,1.5825,1.5825,1.5852,1.5912,1.6005,1.6263,1.6835,1.764,1.8949,2.068,2.1712,-0.7529,-0.7393,-0.6721,-0.6453,-0.6453,-0.6453,-0.6453,-0.6453,-0.6453,-0.6453,-0.6453,-0.5783,-0.5379,-0.4977,-0.4575,-0.4307,-0.4307,-0.4307,-0.4307,-0.4307,-0.4307,-0.4172,-0.3902,-0.3498,-0.3094,-0.2961,-0.2558,-0.2155,-0.2154,-0.2155,-0.2155,-0.2155,-0.2155,-0.2155,-0.2155,-0.1751,-0.1346,-0.0943,-0.0269,0.0539,0.0941,0.1341,0.1603,0.2133,0.2101,0.2065,0.2046,0.2018,0.1996,0.1981,0.1978,0.1977,0.1977,0.1977,0.1977,0.2099,0.2571,0.2915,0.3013,0.3879,0.4635,0.5663,0.6283,0.7018,0.7627,0.7872,0.8119,0.8366,0.8732,0.9098,0.9319,0.9526,0.9717,0.9632,0.9669,0.971,0.9927,1.0179,1.0453,1.0926,1.126,1.1483,1.1598,1.1573,1.1749,1.2055,1.2306,1.2537,1.2696,1.2764,1.2881,1.3223,1.3538,1.394,1.4358,1.4501,1.4642,1.4777,1.4832,1.503,1.5268,1.5356,1.5547,1.573,1.5825,1.5825,1.5879,1.6005,1.6236,1.6488,1.7218,1.8095,1.966,2.118,2.1971,-0.7529,-0.7393,-0.6721,-0.6453,-0.6453,-0.6453,-0.6453,-0.6453,-0.6453,-0.6453,-0.6319,-0.5649,-0.5379,-0.5111,-0.4575,-0.4307,-0.4307,-0.4307,-0.4307,-0.4307,-0.4307,-0.4307,-0.4037,-0.3632,-0.3228,-0.3094,-0.2558,-0.2155,-0.2155,-0.2155,-0.2155,-0.2155,-0.2155,-0.2155,-0.202,-0.1481,-0.1077,-0.0673,-0.0135,0.0673,0.1077,0.1346,0.1749,0.2014,0.212,0.2099,0.2069,0.2039,0.2009,0.1993,0.1984,0.1977,0.1977,0.1977,0.1977,0.2221,0.2578,0.2921,0.3128,0.3853,0.5081,0.6218,0.6641,0.7258,0.775,0.7994,0.8244,0.861,0.8854,0.9098,0.9451,0.964,0.9703,0.9608,0.9839,0.9901,1.0266,1.0521,1.094,1.1351,1.1559,1.1727,1.1836,1.1795,1.2031,1.2229,1.2512,1.2735,1.2909,1.2995,1.3332,1.3588,1.4062,1.4518,1.4972,1.5092,1.5293,1.5199,1.5201,1.5316,1.5402,1.5473,1.5553,1.573,1.5825,1.5825,1.5912,1.6039,1.6316,1.661,1.754,1.8665,1.9712,2.1167,2.1988,-0.7529,-0.7393,-0.6855,-0.6453,-0.6453,-0.6453,-0.6453,-0.6453,-0.6453,-0.6317,-0.5914,-0.5513,-0.5245,-0.4841,-0.4441,-0.4307,-0.4307,-0.4307,-0.4307,-0.4307,-0.4307,-0.4307,-0.4037,-0.3632,-0.3228,-0.3094,-0.2558,-0.229,-0.2155,-0.2155,-0.2155,-0.2155,-0.2155,-0.2155,-0.2155,-0.1481,-0.0943,-0.0539,-0.0135,0.0404,0.0943,0.1212,0.1616,0.2014,0.2131,0.2114,0.2091,0.206,0.2031,0.201,0.1992,0.1984,0.1977,0.1977,0.1977,0.2099,0.256,0.2883,0.2955,0.4064,0.5281,0.651,0.681,0.723,0.7739,0.8116,0.8491,0.8732,0.9098,0.9339,0.9536,0.972,0.9673,0.9768,0.9888,1.0126,1.0495,1.0867,1.1168,1.1443,1.1607,1.1772,1.1889,1.1981,1.2132,1.2399,1.27,1.2929,1.3112,1.3354,1.3605,1.3907,1.4302,1.4987,1.5453,1.5725,1.5846,1.5738,1.5636,1.5607,1.5615,1.573,1.5728,1.5852,1.5825,1.5825,1.5939,1.6072,1.6596,1.7168,1.8193,1.9155,2.0166,2.1105,2.192,-0.7791,-0.7526,-0.6989,-0.6719,-0.6589,-0.6453,-0.6453,-0.6453,-0.6453,-0.6317,-0.5914,-0.5513,-0.5111,-0.4841,-0.444,-0.4307,-0.4307,-0.4307,-0.4307,-0.4307,-0.4307,-0.4307,-0.4171,-0.3767,-0.3497,-0.3094,-0.2692,-0.2425,-0.2155,-0.2155,-0.2155,-0.2155,-0.202,-0.1751,-0.1616,-0.1077,-0.0539,-0.0539,-0.0135,0.0404,0.0943,0.1077,0.1481,0.2154,0.2142,0.2129,0.2113,0.2081,0.2059,0.203,0.2009,0.1999,0.1986,0.1981,0.1979,0.21,0.2448,0.3021,0.3668,0.4586,0.5514,0.6282,0.6856,0.716,0.764,0.8207,0.8474,0.8854,0.9095,0.9457,0.968,0.9788,0.9761,0.9764,1.0006,1.0364,1.0612,1.0985,1.1374,1.1623,1.1772,1.1776,1.1893,1.2014,1.2183,1.2516,1.2825,1.3103,1.331,1.3601,1.3874,1.4179,1.4633,1.5378,1.5816,1.622,1.6454,1.6404,1.607,1.5878,1.5907,1.5901,1.5856,1.5858,1.5838,1.5838,1.6039,1.639,1.7175,1.79,1.8594,1.9264,2.0189,2.1011,2.1928,-0.7925,-0.7526,-0.7121,-0.6853,-0.6587,-0.6453,-0.6453,-0.6453,-0.6453,-0.6183,-0.5781,-0.5515,-0.5111,-0.4708,-0.444,-0.4307,-0.4307,-0.4307,-0.4307,-0.4307,-0.4307,-0.4307,-0.4172,-0.3902,-0.3497,-0.3229,-0.2827,-0.2559,-0.2155,-0.2155,-0.2155,-0.2155,-0.1751,-0.1616,-0.1346,-0.0808,-0.0404,-0.0269,0.0,0.0404,0.0943,0.1212,0.1481,0.202,0.2151,0.2145,0.2128,0.211,0.2092,0.2057,0.2037,0.2026,0.2009,0.1997,0.1993,0.2114,0.2562,0.337,0.4362,0.4718,0.54,0.6116,0.6627,0.7088,0.76,0.8057,0.8471,0.8854,0.9095,0.9457,0.97,0.9697,0.9819,0.994,1.0179,1.0539,1.0781,1.1152,1.1522,1.1772,1.1776,1.1776,1.1776,1.1893,1.1993,1.247,1.2831,1.3104,1.3504,1.381,1.4117,1.4582,1.5085,1.5851,1.6333,1.6726,1.6982,1.7047,1.6773,1.6355,1.6137,1.6149,1.6011,1.5872,1.5852,1.5912,1.6192,1.6718,1.7305,1.7846,1.8338,1.9153,2.0094,2.0909,2.1827,-0.7925,-0.7526,-0.7123,-0.6853,-0.6587,-0.6453,-0.6453,-0.6453,-0.6453,-0.6051,-0.5381,-0.5515,-0.5111,-0.4441,-0.4307,-0.4307,-0.4307,-0.4307,-0.4307,-0.4307,-0.4307,-0.4307,-0.4172,-0.4037,-0.3632,-0.3229,-0.2961,-0.2558,-0.2289,-0.2155,-0.2155,-0.2155,-0.1751,-0.1481,-0.1077,-0.0808,-0.0404,-0.0135,0.0,0.0,0.0943,0.1077,0.1481,0.202,0.2153,0.2153,0.2141,0.2127,0.2113,0.2093,0.2078,0.2068,0.2053,0.2035,0.2025,0.2245,0.2784,0.3808,0.4693,0.4925,0.5191,0.5914,0.6453,0.6919,0.7357,0.7906,0.8474,0.8854,0.9095,0.9335,0.97,0.97,0.9819,1.0061,1.0425,1.0668,1.091,1.1156,1.1647,1.1776,1.1776,1.1776,1.1776,1.1893,1.2014,1.2483,1.284,1.3186,1.3489,1.3984,1.4425,1.5129,1.568,1.6334,1.6903,1.7134,1.7207,1.7213,1.7328,1.7035,1.6806,1.6514,1.6341,1.6219,1.5939,1.5999,1.6346,1.674,1.7123,1.775,1.8283,1.8945,1.9887,2.0814,2.1623,-0.8323,-0.7925,-0.7524,-0.7123,-0.6853,-0.6587,-0.6453,-0.6453,-0.6453,-0.6051,-0.5381,-0.5647,-0.5245,-0.4307,-0.4574,-0.444,-0.444,-0.4307,-0.4307,-0.4307,-0.4307,-0.4307,-0.4307,-0.4171,-0.3767,-0.3362,-0.3095,-0.2692,-0.2289,-0.2155,-0.2155,-0.2155,-0.1885,-0.1481,-0.1077,-0.0673,-0.0404,0.0,0.0,0.0,0.0943,0.1077,0.1616,0.202,0.2155,0.2155,0.215,0.2146,0.2131,0.211,0.2102,0.2091,0.2063,0.2054,0.2173,0.2769,0.3302,0.4051,0.4703,0.5192,0.533,0.565,0.6265,0.6706,0.7264,0.7856,0.8352,0.8732,0.8976,0.9339,0.9579,0.97,0.97,0.994,1.0425,1.0789,1.0914,1.1281,1.1651,1.1776,1.1776,1.1776,1.1776,1.1776,1.2014,1.2483,1.284,1.308,1.3564,1.4052,1.453,1.524,1.5952,1.6537,1.6897,1.7155,1.7277,1.7444,1.7464,1.7489,1.729,1.6996,1.677,1.652,1.6159,1.6253,1.6573,1.6894,1.711,1.7702,1.8325,1.8945,1.9776,2.0601,2.142,-0.8459,-0.8058,-0.766,-0.7257,-0.6851,-0.6585,-0.6453,-0.6453,-0.6453,-0.6185,-0.5647,-0.5778,-0.5377,-0.4707,-0.4707,-0.4572,-0.4307,-0.4307,-0.4307,-0.4307,-0.4307,-0.4307,-0.4307,-0.4307,-0.3767,-0.3497,-0.3094,-0.2827,-0.2424,-0.2155,-0.2155,-0.2155,-0.1885,-0.1481,-0.1212,-0.0808,-0.0539,0.0,0.0,0.0,0.0808,0.1077,0.1616,0.202,0.2155,0.2155,0.2155,0.2155,0.2143,0.2129,0.2127,0.2121,0.2093,0.2081,0.2705,0.317,0.3591,0.4355,0.5119,0.5385,0.5392,0.5566,0.6082,0.652,0.7118,0.7608,0.8066,0.8491,0.8854,0.9217,0.9339,0.9579,0.97,0.9819,1.0304,1.0793,1.116,1.1405,1.1651,1.1776,1.1776,1.1776,1.1776,1.1776,1.1893,1.2363,1.2599,1.2964,1.3444,1.4052,1.4525,1.5116,1.5946,1.6655,1.6897,1.725,1.7349,1.7547,1.789,1.7812,1.7626,1.7546,1.7417,1.6907,1.6319,1.6486,1.6687,1.6727,1.6962,1.7585,1.8227,1.8743,1.9465,2.0403,2.1216,-0.8454,-0.8056,-0.766,-0.7125,-0.6587,-0.6453,-0.6453,-0.6453,-0.6453,-0.6317,-0.5912,-0.5912,-0.551,-0.4841,-0.4839,-0.4574,-0.4441,-0.4307,-0.4307,-0.4307,-0.4307,-0.4307,-0.4307,-0.4307,-0.3901,-0.3497,-0.3094,-0.2826,-0.2424,-0.2155,-0.2155,-0.2155,-0.2155,-0.1885,-0.1346,-0.1077,0.0,0.0,0.0,0.0269,0.0808,0.1077,0.1481,0.202,0.2155,0.2155,0.2155,0.2155,0.2155,0.2155,0.2153,0.215,0.2131,0.2094,0.2845,0.3585,0.3888,0.4534,0.5298,0.5692,0.5551,0.5591,0.6028,0.6345,0.6815,0.7454,0.7917,0.8236,0.8729,0.8976,0.9217,0.9579,0.97,0.994,1.0186,1.0671,1.0914,1.1285,1.1772,1.1776,1.1776,1.1772,1.176,1.1756,1.1836,1.2213,1.2431,1.2667,1.332,1.4043,1.4525,1.4992,1.5822,1.6419,1.6897,1.7132,1.7367,1.7689,1.7996,1.8121,1.7925,1.7896,1.8063,1.7361,1.6673,1.6613,1.6714,1.6754,1.7029,1.7569,1.8122,1.8436,1.916,2.0086,2.0711,-0.8587,-0.8456,-0.7791,-0.7123,-0.6589,-0.6453,-0.6453,-0.6453,-0.6453,-0.6317,-0.5914,-0.5912,-0.551,-0.4975,-0.4839,-0.4572,-0.4307,-0.4307,-0.4307,-0.4307,-0.4307,-0.4307,-0.4307,-0.4307,-0.3901,-0.3362,-0.3094,-0.2826,-0.2289,-0.2155,-0.2155,-0.2155,-0.2155,-0.1885,-0.1481,-0.1212,0.0,0.0,0.0,0.0269,0.0673,0.0943,0.1346,0.1751,0.1885,0.2155,0.2155,0.2155,0.2155,0.2155,0.2155,0.2155,0.2152,0.2096,0.2861,0.3902,0.408,0.4721,0.5352,0.5751,0.5618,0.5602,0.5792,0.6184,0.6633,0.7393,0.7881,0.819,0.8485,0.8854,0.9095,0.9457,0.9819,0.9943,1.0186,1.0425,1.0789,1.1281,1.1772,1.1776,1.1776,1.1764,1.1748,1.1831,1.1918,1.1992,1.2056,1.2421,1.3145,1.3794,1.4286,1.4759,1.5585,1.6301,1.6655,1.7132,1.7367,1.7719,1.804,1.8062,1.8192,1.8281,1.829,1.7635,1.7094,1.7034,1.6921,1.6794,1.7136,1.7657,1.7905,1.822,1.8715,1.9531,2.0202,-0.8541,-0.8454,-0.7791,-0.7125,-0.6587,-0.6453,-0.6453,-0.6453,-0.6453,-0.6319,-0.6183,-0.5914,-0.5644,-0.4975,-0.4839,-0.4572,-0.4307,-0.4307,-0.4307,-0.4307,-0.4307,-0.4307,-0.4307,-0.4307,-0.3767,-0.3362,-0.2826,-0.2558,-0.2289,-0.2155,-0.2155,-0.2155,-0.2155,-0.202,-0.1616,-0.1212,-0.0808,0.0,0.0,0.0269,0.0539,0.0943,0.1212,0.1616,0.1885,0.2155,0.2155,0.2155,0.2155,0.2155,0.2155,0.2155,0.228,0.2244,0.2894,0.368,0.4275,0.4791,0.5431,0.5678,0.5676,0.5647,0.5756,0.6019,0.6431,0.7166,0.774,0.8056,0.8581,0.897,0.9214,0.9579,0.9697,0.994,1.0183,1.0547,1.0914,1.1402,1.1772,1.1776,1.1776,1.1772,1.1732,1.1626,1.1717,1.1692,1.1867,1.198,1.2689,1.3545,1.4043,1.4644,1.5591,1.6177,1.6537,1.7009,1.7485,1.7719,1.8071,1.8377,1.8622,1.8678,1.849,1.8003,1.7622,1.7435,1.7308,1.7141,1.7161,1.7613,1.7793,1.8003,1.8596,1.9058,1.9547,-0.8357,-0.8315,-0.7791,-0.7125,-0.6589,-0.6453,-0.6453,-0.6453,-0.6453,-0.6453,-0.6453,-0.6048,-0.5646,-0.5379,-0.4975,-0.4574,-0.4307,-0.4307,-0.4307,-0.4307,-0.4307,-0.4307,-0.4307,-0.4307,-0.3767,-0.3229,-0.2693,-0.2424,-0.2155,-0.2155,-0.2155,-0.2155,-0.2155,-0.202,-0.1616,-0.1212,-0.0808,-0.0269,0.0135,0.0539,0.0673,0.0942,0.1344,0.1613,0.2017,0.2153,0.2151,0.2153,0.2153,0.2155,0.2155,0.229,0.228,0.2521,0.3051,0.3834,0.4433,0.4844,0.5373,0.5728,0.5574,0.5656,0.5775,0.5978,0.6391,0.6919,0.7599,0.8184,0.8705,0.9067,0.931,0.9572,0.9694,0.9815,1.0179,1.0397,1.1,1.1483,1.1607,1.1732,1.1732,1.1732,1.1703,1.1593,1.1529,1.1622,1.1614,1.1854,1.2255,1.3113,1.3803,1.4639,1.5472,1.6059,1.6414,1.7009,1.7485,1.7837,1.8194,1.8661,1.9074,1.8984,1.8865,1.8577,1.8243,1.7956,1.7729,1.7555,1.7622,1.7669,1.7687,1.7898,1.8401,1.8904,1.9078,-0.8091,-0.7658,-0.7526,-0.7123,-0.6587,-0.6453,-0.6453,-0.6453,-0.6453,-0.6453,-0.6319,-0.5783,-0.5381,-0.5381,-0.471,-0.4307,-0.4307,-0.4307,-0.4307,-0.4307,-0.4307,-0.4307,-0.4307,-0.4172,-0.3767,-0.323,-0.2693,-0.2425,-0.229,-0.2155,-0.2155,-0.2155,-0.2155,-0.202,-0.1616,-0.1212,-0.0673,-0.0135,0.0404,0.0808,0.1212,0.1478,0.1469,0.1737,0.2007,0.2133,0.2131,0.2144,0.2151,0.2155,0.229,0.2425,0.255,0.2798,0.3322,0.397,0.4568,0.4988,0.5381,0.5634,0.5718,0.5553,0.5686,0.6077,0.6471,0.7066,0.7606,0.8356,0.8873,0.9064,0.9349,0.9654,0.9795,0.9923,1.0169,1.0325,1.0632,1.0982,1.1217,1.1454,1.1569,1.1634,1.1723,1.1614,1.15,1.1476,1.1459,1.1699,1.1938,1.279,1.3545,1.4515,1.5467,1.6065,1.6537,1.7126,1.7602,1.7843,1.8194,1.8777,1.9127,1.9352,1.9132,1.8878,1.8664,1.8404,1.8196,1.8016,1.7916,1.7903,1.7682,1.7799,1.8415,1.8815,1.9145]},{"header":{"parameterUnit":"m.s-1","parameterCategory":1,"la1":31.0,"la2":29.5877,"lo1":-88.7671,"lo2":-86.6584,"dy":0.0162,"dx":0.0185,"nx":115,"ny":88,"refTime":"2024-04-06T12:00:00:Z","depth":0,"parameterNumber":3,"parameterNumberName":"V-component_of_WINDS"},"data":[0.0,0.0,0.0,0.0,0.0,0.0,0.0,0.0,0.0,0.0,0.0,0.0,0.0,0.0,0.0,0.0,0.0,0.0,0.0,0.0,0.0,0.0,0.0,0.0,0.0,0.0,0.0,0.0,0.0,0.0,0.0,0.0,0.0,0.0,0.0,0.0,0.0,0.0,0.0,0.0,0.0,0.0,0.0,0.0,0.0,0.0,0.0,0.0,0.0,0.0,0.0,0.0,0.0,0.0,0.0,0.0,0.0,0.0,0.0,0.0,0.0,0.0,0.0,0.0,0.0,0.0,0.0,0.0,0.0,0.0,0.0,0.0,0.0,0.0,0.0,0.0,0.0,0.0,0.0,0.0,0.0,0.0,0.0,0.0,0.0,0.0,0.0,0.0,0.0,0.0,0.0,0.0,0.0,0.0,0.0,0.0,0.0,0.0,0.0,0.0,0.0,0.0,0.0,0.0,0.0,0.0,0.0,0.0,0.0,0.0,0.0,0.0,0.0,0.0,0.0,0.0,0.0,0.0,0.0,0.0,0.0,0.0,0.0,0.0,0.0,0.0,0.0,0.0,0.0,0.0,0.0,0.0,0.0,0.0,0.0,0.0,0.0,0.0,0.0,0.0,0.0,0.0,0.0,0.0,0.0,0.0,0.0,0.0,0.0,0.0,0.0,0.0,0.0,0.0,0.0,0.0,0.0,0.0,0.0,0.0,0.0,0.0,0.0,0.0,0.0,0.0,0.0,0.0,0.0,0.0,0.0,0.0,0.0,0.0,0.0,0.0,0.0,0.0,0.0,0.0,0.0,0.0,0.0,0.0,0.0,0.0,0.0,0.0,0.0,0.0,0.0,0.0,0.0,0.0,0.0,0.0,0.0,0.0,0.0,0.0,0.0,0.0,0.0,0.0,0.0,0.0,0.0,0.0,0.0,0.0,0.0,0.0,0.0,0.0,0.0,0.0,0.0,0.0,0.0,0.0,0.0,0.0,0.0,0.0,0.0,0.0,0.0,0.0,0.0,0.0,0.0,0.0,0.0,0.0,0.0,0.0,0.0,0.0,0.0,0.0,0.0,0.0,0.0,0.0,0.0,0.0,0.0,0.0,0.0,0.0,0.0,0.0,0.0,0.0,0.0,0.0,0.0,0.0,0.0,0.0,0.0,0.0,0.0,0.0,0.0,0.0,0.0,0.0,0.0,0.0,0.0,0.0,0.0,0.0,0.0,0.0,0.0,0.0,0.0,0.0,0.0,0.0,0.0,0.0,0.0,0.0,0.0,0.0,0.0,0.0,0.0,0.0,0.0,0.0,0.0,0.0,0.0,0.0,0.0,0.0,0.0,0.0,0.0,0.0,0.0,0.0,0.0,0.0,0.0,0.0,0.0,0.0,0.0,0.0,0.0,0.0,0.0,0.0,0.0,0.0,0.0,0.0,0.0,0.0,0.0,0.0,0.0,0.0,0.0,0.0,0.0,0.0,0.0,0.0,0.0,0.0,0.0,0.0,0.0,0.0,0.0,0.0,0.0,0.0,0.0,0.0,0.0,0.0,0.0,0.0,0.0,0.0,0.0,0.0,0.0,0.0,0.0,0.0,0.0,0.0,0.0,0.0,0.0,0.0,0.0,0.0,0.0,0.0,0.0,0.0,0.0,0.0,0.0,0.0,0.0,0.0,0.0,0.0,0.0,0.0,0.0,0.0,0.0,0.0,0.0,0.0,0.0,0.0,0.0,0.0,0.0,0.0,0.0,0.0,0.0,0.0,0.0,0.0,0.0,0.0,0.0,0.0,0.0,0.0,0.0,0.0,0.0,0.0,0.0,0.0,0.0,0.0,0.0,0.0,0.0,0.0,0.0,0.0,0.0,0.0,0.0,0.0,0.0,0.0,0.0,0.0,0.0,0.0,0.0,0.0,0.0,0.0,0.0,0.0,0.0,0.0,0.0,0.0,0.0,0.0,0.0,0.0,0.0,0.0,0.0,0.0,0.0,0.0,0.0,0.0,0.0,0.0,0.0,0.0,0.0,0.0,0.0,0.0,0.0,0.0,0.0,0.0,0.0,0.0,0.0,0.0,0.0,0.0,0.0,0.0,0.0,0.0,0.0,0.0,0.0,0.0,0.0,0.0,0.0,0.0,0.0,0.0,0.0,0.0,0.0,0.0,0.0,0.0,0.0,0.0,0.0,0.0,0.0,0.0,0.0,0.0,0.0,0.0,0.0,0.0,0.0,0.0,0.0,0.0,0.0,0.0,0.0,0.0,0.0,0.0,0.0,0.0,0.0,0.0,0.0,0.0,0.0,0.0,0.0,0.0,0.0,0.0,0.0,0.0,0.0,0.0,0.0,0.0,0.0,0.0,0.0,0.0,0.0,0.0,0.0,0.0,0.0,0.0,0.0,0.0,0.0,0.0,0.0,0.0,0.0,0.0,0.0,0.0,0.0,0.0,0.0,0.0,0.0,0.0,0.0,0.0,0.0,0.0,0.0,0.0,0.0,0.0,0.0,0.0,0.0,0.0,0.0,0.0,0.0,0.0,0.0,0.0,0.0,0.0,0.0,0.0,0.0,0.0,0.0,0.0,0.0,0.0,0.0,0.0,0.0,0.0,0.0,0.0,0.0,0.0,0.0,0.0,0.0,0.0,0.0,0.0,0.0,0.0,0.0,0.0,0.0,0.0,0.0,0.0,0.0,0.0,0.0,0.0,0.0,0.0,0.0,0.0,0.0,0.0,0.0,0.0,0.0,0.0,0.0,0.0,0.0,0.0,0.0,0.0,0.0,0.0,0.0,0.0,0.0,0.0,0.0,0.0,0.0,0.0,0.0,0.0,0.0,0.0,0.0,0.0,0.0,0.0,0.0,0.0,0.0,0.0,0.0,0.0,0.0,0.0,0.0,0.0,0.0,0.0,0.0,0.0,0.0,0.0,0.0,0.0,0.0,0.0,0.0,0.0,0.0,0.0,0.0,0.0,0.0,0.0,0.0,0.0,0.0,0.0,0.0,0.0,0.0,0.0,0.0,0.0,0.0,0.0,0.0,0.0,0.0,0.0,0.0,0.0,0.0,0.0,0.0,0.0,0.0,0.0,0.0,0.0,0.0,0.0,0.0,0.0,0.0,0.0,0.0,0.0,0.0,0.0,0.0,0.0,0.0,0.0,0.0,0.0,0.0,0.0,0.0,0.0,0.0,0.0,0.0,0.0,0.0,0.0,0.0,0.0,0.0,0.0,0.0,0.0,0.0,0.0,0.0,0.0,0.0,0.0,0.0,0.0,0.0,0.0,0.0,0.0,0.0,0.0,0.0,0.0,0.0,0.0,0.0,0.0,0.0,0.0,0.0,0.0,0.0,0.0,0.0,0.0,0.0,0.0,0.0,0.0,0.0,0.0,0.0,0.0,0.0,0.0,0.0,0.0,0.0,0.0,0.0,0.0,0.0,0.0,0.0,0.0,0.0,0.0,0.0,0.0,0.0,0.0,0.0,0.0,0.0,0.0,0.0,0.0,0.0,0.0,0.0,0.0,0.0,0.0,0.0,0.0,0.0,0.0,0.0,0.0,0.0,0.0,0.0,0.0,0.0,0.0,0.0,0.0,0.0,0.0,0.0,0.0,0.0,0.0,0.0,0.0,0.0,0.0,0.0,0.0,0.0,0.0,0.0,0.0,0.0,0.0,0.0,0.0,0.0,0.0,0.0,0.0,0.0,0.0,0.0,0.0,0.0,0.0,0.0,0.0,0.0,0.0,0.0,0.0,0.0,0.0,0.0,0.0,0.0,0.0,0.0,0.0,0.0,0.0,0.0,0.0,0.0,0.0,0.0,0.0,0.0,0.0,0.0,0.0,0.0,0.0,0.0,0.0,0.0,0.0,0.0,0.0,0.0,0.0,0.0,0.0,0.0,0.0,0.0,0.0,0.0,0.0,0.0,0.0,0.0,0.0,0.0,0.0,0.0,0.0,0.0,0.0,0.0,0.0,0.0,0.0,0.0,0.0,0.0,0.0,0.0,0.0,0.0,0.0,0.0,0.0,0.0,0.0,0.0,0.0,0.0,0.0,0.0,0.0,0.0,0.0,0.0,0.0,0.0,0.0,0.0,0.0,0.0,0.0,0.0,0.0,0.0,0.0,0.0,0.0,0.0,0.0,0.0,0.0,0.0,0.0,0.0,0.0,0.0,0.0,0.0,0.0,0.0,0.0,0.0,0.0,0.0,0.0,0.0,0.0,0.0,0.0,0.0,0.0,0.0,0.0,0.0,0.0,0.0,0.0,0.0,0.0,0.0,0.0,0.0,0.0,1.5707,0.0,0.0,0.0,0.0,0.0,0.0,0.0,0.0,0.0,0.0,0.0,0.0,0.0,0.0,0.0,0.0,0.0,0.0,0.0,0.0,0.0,0.0,0.0,0.0,0.0,0.0,0.0,0.0,0.0,0.0,0.0,0.0,0.0,0.0,0.0,0.0,0.0,0.0,0.0,0.0,0.0,0.0,0.0,0.0,0.0,0.0,0.0,0.0,0.0,0.0,0.0,0.0,0.0,0.0,0.0,0.0,0.0,0.0,0.0,0.0,0.0,0.0,0.0,0.0,0.0,0.0,0.0,0.0,0.0,0.0,0.0,0.0,0.0,0.0,0.0,0.0,0.0,0.0,0.0,0.0,0.0,0.0,0.0,0.0,0.0,0.0,0.0,0.0,0.0,0.0,0.0,0.0,0.0,0.0,0.0,0.0,0.0,0.0,0.0,0.0,0.0,0.0,0.0,0.0,0.0,0.0,0.0,0.0,0.0,0.0,1.9406,1.8751,1.7831,1.6944,1.6145,0.0,0.0,0.0,0.0,0.0,0.0,0.0,0.0,0.0,0.0,0.0,0.0,0.0,0.0,0.0,0.0,0.0,0.0,0.0,0.0,0.0,0.0,0.0,0.0,0.0,0.0,0.0,0.0,0.0,0.0,0.0,0.0,0.0,0.0,0.0,0.0,0.0,0.0,0.0,0.0,0.0,0.0,0.0,0.0,0.0,0.0,0.0,0.0,0.0,0.0,0.0,0.0,0.0,0.0,0.0,0.0,0.0,0.0,0.0,0.0,0.0,0.0,0.0,0.0,0.0,0.0,0.0,0.0,0.0,0.0,0.0,0.0,0.0,0.0,0.0,0.0,0.0,0.0,0.0,0.0,0.0,0.0,0.0,0.0,0.0,0.0,0.0,0.0,0.0,0.0,0.0,0.0,0.0,0.0,0.0,0.0,0.0,0.0,0.0,0.0,0.0,0.0,0.0,0.0,0.0,0.0,0.0,0.0,0.0,0.0,0.0,0.0,1.8584,1.772,1.6703,0.0,0.0,0.0,0.0,0.0,0.0,0.0,0.0,0.0,0.0,0.0,0.0,0.0,0.0,0.0,0.0,0.0,0.0,0.0,0.0,0.0,0.0,0.0,0.0,0.0,0.0,0.0,0.0,0.0,0.0,0.0,0.0,0.0,0.0,0.0,0.0,0.0,0.0,0.0,0.0,0.0,0.0,0.0,0.0,0.0,0.0,0.0,0.0,0.0,0.0,0.0,0.0,0.0,0.0,0.0,0.0,0.0,0.0,0.0,0.0,0.0,0.0,0.0,0.0,0.0,0.0,0.0,0.0,0.0,0.0,0.0,0.0,0.0,0.0,0.0,0.0,0.0,0.0,0.0,0.0,0.0,0.0,0.0,0.0,0.0,0.0,0.0,0.0,0.0,0.0,0.0,0.0,0.0,0.0,0.0,0.0,0.0,0.0,0.0,0.0,0.0,0.0,0.0,0.0,0.0,0.0,0.0,0.0,0.0,0.0,2.0361,2.0177,1.9081,0.0,1.7596,0.0,0.0,0.0,0.0,0.0,0.0,0.0,0.0,0.0,0.0,0.0,0.0,0.0,0.0,0.0,0.0,0.0,0.0,0.0,0.0,0.0,0.0,0.0,0.0,0.0,0.0,0.0,0.0,0.0,0.0,0.0,0.0,0.0,0.0,0.0,0.0,0.0,0.0,0.0,0.0,0.0,0.0,0.0,0.0,0.0,0.0,0.0,0.0,0.0,0.0,0.0,0.0,0.0,0.0,0.0,0.0,0.0,0.0,0.0,0.0,0.0,0.0,0.0,0.0,0.0,0.0,0.0,0.0,0.0,0.0,0.0,0.0,0.0,0.0,0.0,0.0,0.0,0.0,0.0,0.0,0.0,0.0,0.0,0.0,0.0,0.0,0.0,0.0,0.0,0.0,0.0,0.0,0.0,0.0,0.0,0.0,0.0,0.0,0.0,0.0,0.0,0.0,0.0,0.0,0.0,0.0,0.0,0.0,0.0,0.0,2.0595,2.0441,1.914,1.8458,0.0,0.0,0.0,0.0,0.0,0.0,0.0,0.0,0.0,0.0,0.0,0.0,0.0,0.0,0.0,0.0,0.0,0.0,0.0,0.0,0.0,0.0,0.0,0.0,0.0,0.0,0.0,0.0,0.0,0.0,0.0,0.0,0.0,0.0,0.0,0.0,0.0,0.0,0.0,0.0,0.0,0.0,0.0,0.0,0.0,0.0,0.0,0.0,0.0,0.0,0.0,0.0,0.0,0.0,0.0,0.0,0.0,0.0,0.0,0.0,0.0,0.0,0.0,0.0,0.0,0.0,0.0,0.0,0.0,0.0,0.0,0.0,0.0,0.0,0.0,0.0,0.0,0.0,0.0,0.0,0.0,0.0,0.0,0.0,0.0,0.0,0.0,0.0,0.0,0.0,0.0,0.0,0.0,0.0,0.0,0.0,0.0,0.0,0.0,0.0,0.0,0.0,0.0,0.0,0.0,0.0,0.0,0.0,0.0,0.0,2.1103,2.0794,2.0426,1.9398,1.8959,1.9191,0.0,0.0,0.0,0.0,0.0,0.0,0.0,0.0,0.0,0.0,0.0,0.0,0.0,0.0,0.0,0.0,0.0,0.0,0.0,0.0,0.0,0.0,0.0,0.0,0.0,0.0,0.0,0.0,0.0,0.0,0.0,0.0,0.0,0.0,0.0,0.0,0.0,0.0,0.0,0.0,0.0,0.0,0.0,0.0,0.0,0.0,0.0,0.0,0.0,0.0,0.0,0.0,0.0,0.0,0.0,0.0,0.0,0.0,0.0,0.0,0.0,0.0,0.0,0.0,0.0,0.0,0.0,0.0,0.0,0.0,0.0,0.0,0.0,0.0,0.0,0.0,0.0,0.0,0.0,0.0,0.0,0.0,0.0,0.0,0.0,0.0,0.0,0.0,0.0,0.0,0.0,0.0,0.0,0.0,0.0,0.0,0.0,0.0,0.0,0.0,0.0,0.0,0.0,0.0,0.0,0.0,0.0,0.0,2.1532,2.137,2.0958,2.0323,2.0061,1.9833,0.0,0.0,0.0,0.0,0.0,0.0,0.0,0.0,0.0,0.0,0.0,0.0,0.0,0.0,0.0,0.0,0.0,0.0,0.0,0.0,0.0,0.0,0.0,0.0,0.0,0.0,0.0,0.0,0.0,0.0,0.0,0.0,0.0,0.0,0.0,0.0,0.0,0.0,0.0,0.0,0.0,0.0,0.0,0.0,0.0,0.0,0.0,0.0,0.0,0.0,0.0,0.0,0.0,0.0,0.0,0.0,0.0,0.0,0.0,0.0,0.0,0.0,0.0,0.0,0.0,0.0,0.0,0.0,0.0,0.0,0.0,0.0,0.0,0.0,0.0,0.0,0.0,0.0,0.0,0.0,0.0,0.0,0.0,0.0,0.0,0.0,0.0,0.0,0.0,0.0,0.0,0.0,0.0,0.0,0.0,0.0,0.0,0.0,0.0,0.0,0.0,0.0,0.0,0.0,0.0,0.0,0.0,0.0,0.0,2.2096,2.157,2.1023,2.0392,2.0085,1.9925,0.0,0.0,0.0,0.0,0.0,0.0,0.0,0.0,0.0,0.0,0.0,0.0,0.0,0.0,0.0,0.0,0.0,0.0,0.0,0.0,0.0,0.0,0.0,0.0,0.0,0.0,0.0,0.0,0.0,0.0,0.0,0.0,0.0,0.0,0.0,0.0,0.0,0.0,0.0,0.0,0.0,0.0,0.0,0.0,0.0,0.0,0.0,0.0,0.0,0.0,0.0,0.0,0.0,0.0,0.0,0.0,0.0,0.0,0.0,0.0,0.0,0.0,0.0,0.0,0.0,0.0,0.0,0.0,0.0,0.0,0.0,0.0,0.0,0.0,0.0,0.0,0.0,0.0,0.0,0.0,0.0,0.0,0.0,0.0,0.0,0.0,0.0,0.0,0.0,0.0,0.0,0.0,0.0,0.0,0.0,0.0,0.0,0.0,0.0,0.0,0.0,0.0,0.0,0.0,0.0,0.0,0.0,0.0,0.0,2.1867,0.0,2.0668,2.0225,1.9877,1.9789,0.0,0.0,0.0,0.0,0.0,0.0,0.0,0.0,0.0,0.0,0.0,0.0,0.0,0.0,0.0,0.0,0.0,0.0,0.0,0.0,0.0,0.0,0.0,0.0,0.0,0.0,0.0,0.0,0.0,0.0,0.0,0.0,0.0,0.0,0.0,0.0,0.0,0.0,0.0,0.0,0.0,0.0,0.0,0.0,0.0,0.0,0.0,0.0,0.0,0.0,0.0,0.0,0.0,0.0,0.0,0.0,0.0,0.0,0.0,0.0,0.0,0.0,0.0,0.0,0.0,0.0,0.0,0.0,0.0,0.0,0.0,0.0,0.0,0.0,0.0,0.0,0.0,0.0,0.0,0.0,0.0,0.0,0.0,0.0,0.0,0.0,0.0,0.0,0.0,0.0,0.0,0.0,0.0,0.0,0.0,0.0,0.0,0.0,0.0,0.0,0.0,0.0,0.0,0.0,0.0,0.0,0.0,0.0,2.1985,2.078,2.0297,2.0025,1.9816,1.9518,1.9504,0.0,0.0,0.0,0.0,0.0,0.0,0.0,0.0,0.0,0.0,0.0,0.0,0.0,0.0,0.0,0.0,0.0,0.0,0.0,0.0,0.0,0.0,0.0,0.0,0.0,0.0,0.0,0.0,0.0,0.0,0.0,0.0,0.0,0.0,0.0,0.0,0.0,0.0,0.0,0.0,0.0,0.0,0.0,0.0,0.0,0.0,0.0,0.0,0.0,0.0,0.0,0.0,0.0,0.0,0.0,0.0,0.0,0.0,0.0,0.0,0.0,0.0,0.0,0.0,0.0,0.0,0.0,0.0,0.0,0.0,0.0,0.0,0.0,0.0,0.0,0.0,0.0,0.0,0.0,0.0,0.0,0.0,0.0,0.0,0.0,0.0,0.0,0.0,0.0,0.0,0.0,0.0,0.0,0.0,0.0,0.0,0.0,0.0,0.0,0.0,0.0,0.0,0.0,0.0,0.0,0.0,0.0,0.0,0.0,2.1113,2.084,2.0495,2.0079,1.9798,1.9524,0.0,0.0,0.0,0.0,0.0,0.0,0.0,0.0,0.0,0.0,0.0,0.0,0.0,0.0,0.0,0.0,0.0,0.0,0.0,0.0,0.0,0.0,0.0,0.0,0.0,0.0,0.0,0.0,0.0,0.0,0.0,0.0,0.0,0.0,0.0,0.0,0.0,0.0,0.0,0.0,0.0,0.0,0.0,0.0,0.0,0.0,0.0,0.0,0.0,0.0,0.0,0.0,0.0,0.0,0.0,0.0,0.0,0.0,0.0,0.0,0.0,0.0,0.0,0.0,0.0,0.0,0.0,0.0,0.0,0.0,0.0,0.0,0.0,0.0,0.0,0.0,0.0,0.0,0.0,0.0,0.0,0.0,0.0,0.0,0.0,0.0,0.0,0.0,0.0,0.0,0.0,0.0,0.0,0.0,0.0,0.0,0.0,0.0,0.0,0.0,0.0,0.0,0.0,0.0,0.0,0.0,0.0,0.0,0.0,2.0185,1.9422,1.8952,1.8753,1.7965,1.7708,1.8079,0.0,0.0,0.0,0.0,0.0,0.0,0.0,0.0,0.0,0.0,0.0,0.0,0.0,0.0,0.0,0.0,0.0,0.0,0.0,0.0,0.0,0.0,0.0,0.0,0.0,0.0,0.0,0.0,0.0,0.0,0.0,0.0,0.0,0.0,0.0,0.0,0.0,0.0,0.0,0.0,0.0,0.0,0.0,0.0,0.0,0.0,0.0,0.0,0.0,0.0,0.0,0.0,0.0,0.0,0.0,0.0,0.0,0.0,0.0,0.0,0.0,0.0,0.0,0.0,0.0,0.0,0.0,0.0,0.0,0.0,0.0,0.0,0.0,0.0,0.0,0.0,0.0,0.0,0.0,0.0,0.0,0.0,0.0,0.0,0.0,0.0,0.0,0.0,0.0,0.0,0.0,0.0,0.0,0.0,0.0,0.0,0.0,0.0,0.0,0.0,0.0,0.0,0.0,0.0,0.0,0.0,0.0,0.0,1.8189,1.6334,1.5526,1.5815,1.4381,1.4385,0.0,0.0,0.0,0.0,0.0,0.0,0.0,0.0,0.0,0.0,0.0,0.0,0.0,0.0,0.0,0.0,0.0,0.0,0.0,0.0,0.0,0.0,0.0,0.0,0.0,0.0,0.0,0.0,0.0,0.0,0.0,0.0,0.0,0.0,0.0,0.0,0.0,0.0,0.0,0.0,0.0,0.0,0.0,0.0,0.0,0.0,0.0,0.0,0.0,0.0,0.0,0.0,0.0,0.0,0.0,0.0,0.0,0.0,0.0,0.0,0.0,0.0,0.0,0.0,0.0,0.0,0.0,0.0,0.0,0.0,0.0,0.0,0.0,0.0,0.0,0.0,0.0,0.0,0.0,0.0,0.0,0.0,0.0,0.0,0.0,0.0,0.0,0.0,0.0,0.0,0.0,0.0,0.0,0.0,0.0,0.0,0.0,0.0,0.0,0.0,0.0,0.0,0.0,0.0,0.0,0.0,0.0,0.0,0.0,1.6447,1.3238,1.1346,1.0964,1.1568,1.16,0.0,0.0,0.0,0.0,0.0,0.0,0.0,0.0,0.0,0.0,0.0,0.0,0.0,0.0,0.0,0.0,0.0,0.0,0.0,0.0,0.0,0.0,0.0,0.0,0.0,0.0,0.0,0.0,0.0,0.0,0.0,0.0,0.0,0.0,0.0,0.0,0.0,0.0,0.0,0.0,0.0,0.0,0.0,0.0,0.0,0.0,0.0,0.0,0.0,0.0,0.0,0.0,0.0,0.0,0.0,0.0,0.0,0.0,0.0,0.0,0.0,0.0,0.0,0.0,0.0,0.0,0.0,0.0,0.0,0.0,0.0,0.0,0.0,0.0,0.0,0.0,0.0,0.0,0.0,0.0,0.0,0.0,0.0,0.0,0.0,0.0,0.0,0.0,0.0,0.0,0.0,0.0,0.0,0.0,0.0,0.0,0.0,0.0,0.0,0.0,0.0,0.0,0.0,0.0,0.0,0.0,0.0,0.0,1.8901,1.3905,1.0353,0.6608,0.2588,0.657,0.8516,0.0,0.0,0.0,0.0,0.0,0.0,0.0,0.0,0.0,0.0,0.0,0.0,0.0,0.0,0.0,0.0,0.0,0.0,0.0,0.0,0.0,0.0,0.0,0.0,0.0,0.0,0.0,0.0,0.0,0.0,0.0,0.0,0.0,0.0,0.0,0.0,0.0,0.0,0.0,0.0,0.0,0.0,0.0,0.0,0.0,0.0,0.0,0.0,0.0,0.0,0.0,0.0,0.0,0.0,0.0,0.0,0.0,0.0,0.0,0.0,0.0,0.0,0.0,0.0,0.0,0.0,0.0,0.0,0.0,0.0,0.0,0.0,0.0,0.0,0.0,0.0,0.0,0.0,0.0,0.0,0.0,0.0,0.0,0.0,0.0,0.0,0.0,0.0,0.0,0.0,0.0,0.0,0.0,0.0,0.0,0.0,0.0,0.0,0.0,0.0,0.0,0.0,0.0,0.0,0.0,0.0,0.0,0.0,1.8047,1.1557,0.8099,0.2358,-0.5508,0.0935,0.5088,0.0,0.0,0.0,0.0,0.0,0.0,0.0,0.0,0.0,0.0,0.0,0.0,0.0,0.0,0.0,0.0,0.0,0.0,0.0,0.0,0.0,0.0,0.0,0.0,0.0,0.0,0.0,0.0,0.0,0.0,0.0,0.0,0.0,0.0,0.0,0.0,0.0,0.0,0.0,0.0,0.0,0.0,0.0,0.0,0.0,0.0,0.0,0.0,0.0,0.0,0.0,0.0,0.0,0.0,0.0,0.0,0.0,0.0,0.0,0.0,0.0,0.0,0.0,0.0,0.0,0.0,0.0,0.0,0.0,0.0,0.0,0.0,0.0,0.0,0.0,0.0,0.0,0.0,0.0,0.0,0.0,0.0,0.0,0.0,0.0,0.0,0.0,0.0,0.0,0.0,0.0,0.0,0.0,0.0,0.0,0.0,0.0,0.0,0.0,0.0,0.0,0.0,0.0,0.0,0.0,0.0,0.0,0.0,1.8585,1.2884,0.8232,0.2814,-0.3485,-0.0615,0.1063,0.0,0.0,0.0,0.0,0.0,0.0,0.0,0.0,0.0,0.0,0.0,0.0,0.0,0.0,0.0,0.0,0.0,0.0,0.0,0.0,0.0,0.0,0.0,0.0,0.0,0.0,0.0,0.0,0.0,0.0,0.0,0.0,0.0,0.0,0.0,0.0,0.0,0.0,0.0,0.0,0.0,0.0,0.0,0.0,0.0,0.0,0.0,0.0,0.8092,0.0,0.0,0.0,0.0,0.0,0.0,0.0,0.0,0.0,0.0,0.0,0.0,0.0,0.0,0.0,0.0,0.0,0.0,0.0,0.0,0.0,0.0,0.0,0.0,0.0,0.0,0.0,0.0,0.0,0.0,0.0,0.0,0.0,0.0,0.0,0.0,0.0,0.0,0.0,0.0,0.0,0.0,0.0,0.0,0.0,0.0,0.0,0.0,0.0,0.0,0.0,0.0,0.0,0.0,0.0,0.0,0.0,0.0,0.0,1.8111,1.24,0.877,0.3727,-0.264,-0.0993,0.0277,0.0,0.0,0.0,0.0,0.0,0.0,0.0,0.0,0.0,0.0,0.0,0.0,0.0,0.0,0.0,0.0,0.0,0.0,0.0,0.0,0.0,0.0,0.0,0.0,0.0,0.0,0.0,0.0,0.0,0.0,0.0,0.0,0.0,0.0,0.0,0.0,0.0,0.0,0.0,0.0,0.0,0.0,0.0,0.0,0.0,0.0,0.0,0.0,0.0,0.0,0.0,0.0,0.0,0.0,0.0,0.0,0.0,0.0,0.0,0.0,0.0,0.0,0.0,0.0,0.0,0.0,0.0,0.0,0.0,0.0,0.0,0.0,0.0,0.0,0.0,0.0,0.0,0.0,0.0,0.0,0.0,0.0,0.0,0.0,0.0,0.0,0.0,0.0,0.0,0.0,0.0,0.0,0.0,0.0,0.0,0.0,0.0,0.0,0.0,0.0,0.0,0.0,0.0,0.0,0.0,0.0,0.0,2.1245,1.7677,1.2187,0.9569,0.4964,-0.1754,-0.0309,0.1234,0.2554,0.0,0.0,0.0,0.0,0.0,0.0,0.0,0.0,0.0,0.0,0.0,0.0,0.0,0.0,0.0,0.0,0.0,0.0,0.0,0.0,0.0,0.0,0.0,0.0,0.0,0.0,0.0,0.0,0.0,0.0,0.0,0.0,0.0,0.0,0.0,0.0,0.0,0.0,1.2777,1.208,0.0,0.0,0.0,0.0,0.0,0.0,0.0,0.0,0.8663,0.0,0.0,0.0,0.0,0.0,0.0,0.0,0.0,0.0,0.0,0.0,0.0,0.0,0.0,0.0,0.0,0.0,0.0,0.0,0.0,0.0,0.0,0.0,0.0,0.0,0.0,0.0,0.0,0.0,0.0,0.0,0.0,0.0,0.0,0.0,0.0,0.0,0.0,0.0,0.0,0.0,0.0,0.0,0.0,0.0,0.0,0.0,0.0,0.0,0.0,0.0,0.0,0.0,0.0,0.0,0.0,2.298,2.1278,1.8792,1.549,1.0652,0.6684,0.3727,0.2401,0.3126,0.6041,0.0,0.0,0.0,0.0,0.0,0.0,0.0,0.0,0.0,0.0,0.0,0.0,0.0,0.0,0.0,0.0,0.0,0.0,0.0,0.0,0.0,0.0,0.0,0.0,0.0,0.0,0.0,0.0,0.0,0.0,0.0,0.0,0.0,0.0,0.0,0.0,0.0,0.0,0.0,1.4086,1.3187,0.0,0.0,0.0,0.0,0.0,0.0,0.0,0.0,0.8626,0.0,0.0,0.0,0.0,0.0,0.0,0.0,0.0,0.0,0.0,0.0,0.0,0.0,0.0,0.0,0.0,0.0,0.0,0.0,0.0,0.0,0.0,0.0,0.0,0.0,0.0,0.0,0.0,0.0,0.0,0.0,0.0,0.0,0.0,0.0,0.0,0.0,0.0,0.0,0.0,0.0,0.0,0.0,0.0,0.0,0.0,0.0,0.0,0.0,0.0,0.0,0.0,0.0,0.0,0.0,2.2937,2.1248,1.9281,1.7067,1.317,1.0025,0.7761,0.5725,0.5996,0.0,0.0,0.0,0.0,0.0,0.0,0.0,0.0,0.0,0.0,0.0,0.0,0.0,0.0,0.0,0.0,0.0,0.0,0.0,0.0,0.0,0.0,0.0,0.0,0.0,0.0,0.0,0.0,0.0,0.0,0.0,0.0,0.0,0.0,0.0,0.0,0.0,0.0,0.0,0.0,1.3753,1.2033,1.0113,0.0,0.0,0.0,0.0,0.0,0.0,0.8494,0.8271,0.0,0.0,0.0,0.0,0.0,0.0,0.0,0.0,0.0,0.0,0.0,0.0,0.0,0.0,0.0,0.0,0.0,0.0,0.0,0.0,0.0,0.0,0.0,0.0,0.0,0.0,0.0,0.0,0.0,0.0,0.0,0.0,0.0,0.0,0.0,0.0,0.0,0.0,0.0,0.0,0.0,0.0,0.0,0.0,0.0,0.0,0.0,0.0,0.0,0.0,0.0,0.0,0.0,0.0,0.0,2.3001,2.1406,1.9776,1.8089,1.556,1.3141,1.0855,0.9198,0.9206,0.0,0.0,0.0,0.0,0.0,0.0,0.0,0.0,0.0,0.0,0.0,0.0,0.0,0.0,0.0,0.0,0.0,0.0,0.0,0.0,0.0,0.0,0.0,0.0,0.0,0.0,0.0,0.0,0.0,0.0,0.0,0.0,0.0,0.0,0.0,0.0,0.0,0.0,0.0,0.0,0.0,1.1613,1.0753,1.0608,0.0,0.0,0.0,0.0,0.733,0.7884,0.0,0.0,0.0,0.0,0.0,0.0,0.0,0.0,0.0,0.0,0.0,0.0,0.0,0.0,0.0,0.0,0.0,0.0,0.0,0.0,0.0,0.0,0.0,0.0,0.0,0.0,0.0,0.0,0.0,0.0,0.0,0.0,0.0,0.0,0.0,0.0,0.0,0.0,0.0,0.0,0.0,0.0,0.0,0.0,0.0,0.0,0.0,0.0,0.0,0.0,0.0,0.0,0.0,0.0,0.0,0.0,2.3122,2.2061,2.0778,1.9204,1.6669,1.4536,1.2909,1.2549,1.2423,0.0,0.0,0.0,0.0,0.0,0.0,0.0,0.0,0.0,0.0,0.0,0.0,0.0,0.0,0.0,0.0,0.0,0.0,0.0,0.0,0.0,0.0,0.0,0.0,0.0,0.0,0.0,0.0,0.0,0.0,0.0,0.0,0.0,0.0,0.0,0.0,0.0,0.0,0.0,0.0,0.0,1.5446,1.1575,1.2992,1.3535,0.0,0.0,1.2059,0.9553,0.7869,0.0,0.0,0.0,0.0,0.0,0.0,0.0,0.0,0.0,0.0,0.0,0.0,0.0,0.0,0.0,0.0,0.0,0.0,0.0,0.0,0.0,0.0,0.0,0.0,0.0,0.0,0.0,0.0,0.0,0.0,0.0,0.0,0.0,0.0,0.0,0.0,0.0,0.0,0.0,0.0,0.0,0.0,0.0,0.0,0.0,0.0,0.0,0.0,0.0,0.0,0.0,0.0,0.0,0.0,0.0,2.5035,2.3792,2.2396,2.1254,2.0333,1.7666,1.5866,1.5046,1.378,1.352,0.0,0.0,0.0,0.0,0.0,0.0,0.0,0.0,0.0,0.0,0.0,0.0,0.0,0.0,0.0,0.0,0.0,0.0,0.0,0.0,0.0,0.0,0.0,0.0,0.0,0.0,0.0,0.0,0.0,0.0,0.0,0.0,0.0,0.0,0.0,0.0,0.0,0.0,0.0,0.0,0.0,0.0,1.3944,1.3908,0.0,0.0,0.0,1.1752,0.8015,0.0,0.0,0.0,0.0,0.0,0.0,0.0,0.0,0.0,0.0,0.0,0.0,0.0,0.0,0.0,0.0,0.0,0.0,0.0,0.0,0.0,0.0,0.0,0.0,0.0,0.0,0.0,0.0,0.0,0.0,0.0,0.0,0.0,0.0,0.0,0.0,0.0,0.0,0.0,0.0,0.0,0.0,0.0,0.0,0.0,0.0,0.0,0.0,0.0,0.0,0.0,0.0,0.0,0.0,0.0,0.0,0.0,2.4651,2.3124,2.1963,2.1131,1.8732,1.708,1.6243,1.4767,0.0,0.0,0.0,0.0,0.0,0.0,0.0,0.0,0.0,0.0,0.0,0.0,0.0,0.0,0.0,0.0,0.0,0.0,0.0,0.0,0.0,0.0,0.0,0.0,0.0,0.0,0.0,2.0197,0.0,0.0,0.0,0.0,0.0,0.0,0.0,0.0,0.0,0.0,0.0,0.0,0.0,0.0,1.6982,1.6165,1.5046,1.3949,0.0,0.0,1.1826,0.7581,0.6847,0.558,0.0,0.0,0.0,0.0,0.0,0.0,0.0,0.0,0.0,0.0,0.0,0.0,0.0,0.0,0.0,0.0,0.0,0.0,0.0,0.0,0.0,0.0,0.0,0.0,0.0,0.0,0.0,0.0,0.0,0.0,0.0,0.0,0.0,0.0,0.0,0.0,0.0,0.0,0.0,0.0,0.0,0.0,0.0,0.0,0.0,0.0,0.0,0.0,0.0,0.0,0.0,0.0,0.0,0.0,0.0,2.5654,2.4626,2.3212,2.1342,2.0013,1.817,1.5861,1.621,1.664,0.0,0.0,0.0,0.0,0.0,0.0,0.0,0.0,0.0,0.0,0.0,0.0,0.0,0.0,0.0,0.0,0.0,0.0,0.0,0.0,0.0,0.0,0.0,0.0,0.0,0.0,0.0,0.0,0.0,0.0,0.0,0.0,0.0,0.0,0.0,0.0,0.0,0.0,0.0,0.0,0.0,1.9512,1.7541,1.718,1.6566,0.0,0.0,1.2703,1.0288,0.7423,0.4849,0.2917,0.0,0.0,0.0,0.0,0.0,0.0,0.0,0.0,0.0,0.0,0.0,0.0,0.0,0.0,0.0,0.0,0.0,0.0,0.0,0.0,0.0,0.0,0.0,0.0,0.0,0.0,0.0,0.0,0.0,0.0,0.0,0.0,0.0,0.0,0.0,0.0,0.0,0.0,0.0,0.0,0.0,0.0,0.0,0.0,0.0,0.0,0.0,0.0,0.0,0.0,0.0,0.0,0.0,2.8149,2.6478,2.5525,2.4532,2.3494,2.1406,1.9863,1.9003,1.8335,1.8138,0.0,0.0,0.0,0.0,0.0,0.0,0.0,0.0,0.0,0.0,0.0,0.0,0.0,0.0,0.0,0.0,0.0,0.0,0.0,0.0,0.0,0.0,0.0,0.0,0.0,0.0,0.0,0.0,2.1767,2.1579,2.1636,0.0,0.0,0.0,0.0,0.0,0.0,0.0,0.0,0.0,0.0,2.1569,2.0136,1.8594,0.0,0.0,1.4,1.2141,1.1004,0.8824,0.7153,0.6935,0.8326,0.0,0.0,0.0,0.0,0.0,0.0,0.0,0.0,0.0,0.0,0.0,0.0,0.0,0.0,0.0,0.0,0.0,0.0,0.0,0.0,0.0,0.0,0.0,0.0,0.0,0.0,0.0,0.0,0.0,0.0,0.0,0.0,0.0,0.0,0.0,0.0,0.0,0.0,0.0,0.0,0.0,0.0,0.0,0.0,0.0,0.0,0.0,0.0,0.0,0.0,0.0,0.0,2.8888,2.7662,2.6718,2.5843,2.5031,2.3085,2.1597,2.0657,1.9752,1.9344,0.0,0.0,0.0,0.0,0.0,0.0,0.0,0.0,0.0,0.0,0.0,0.0,0.0,0.0,0.0,0.0,0.0,0.0,0.0,0.0,0.0,0.0,0.0,0.0,0.0,0.0,0.0,0.0,2.2765,2.2882,2.3169,0.0,0.0,0.0,0.0,0.0,0.0,0.0,0.0,0.0,0.0,2.3283,2.2131,2.0226,1.8658,1.7912,1.5525,1.3613,1.3151,1.1481,1.0401,1.0985,0.0,0.0,0.0,0.0,0.0,0.0,0.0,0.0,0.0,0.0,0.0,0.0,0.0,0.0,0.0,0.0,0.0,0.0,0.0,0.0,0.0,0.0,0.0,0.0,0.0,0.0,0.0,0.0,0.0,0.0,3.3494,0.0,0.0,0.0,0.0,0.0,0.0,0.0,0.0,0.0,0.0,0.0,0.0,0.0,0.0,0.0,0.0,0.0,0.0,0.0,0.0,0.0,0.0,2.9408,2.9317,2.8369,2.7102,2.539,2.503,2.329,2.0149,2.0174,2.0321,2.0247,0.0,0.0,0.0,0.0,0.0,0.0,0.0,0.0,0.0,0.0,0.0,0.0,0.0,0.0,0.0,0.0,0.0,0.0,0.0,0.0,0.0,0.0,0.0,0.0,0.0,0.0,2.3065,2.2923,2.354,0.0,0.0,0.0,0.0,0.0,0.0,0.0,0.0,0.0,0.0,2.5533,2.4574,2.3271,2.2277,2.1404,2.083,1.9169,1.784,1.7329,1.5635,1.4448,0.0,0.0,0.0,0.0,0.0,0.0,0.0,0.0,0.0,0.0,0.0,0.0,0.0,0.0,0.0,0.0,0.0,0.0,0.0,0.0,0.0,0.0,0.0,0.0,0.0,0.0,0.0,3.48,3.515,0.0,0.0,0.0,0.0,0.0,0.0,0.0,0.0,0.0,0.0,0.0,3.6754,3.689,0.0,0.0,0.0,0.0,0.0,0.0,0.0,0.0,0.0,0.0,0.0,0.0,3.0432,2.9321,2.8917,2.8326,2.7496,2.6519,2.5439,2.43,2.327,2.2714,2.2681,0.0,0.0,0.0,0.0,0.0,0.0,0.0,0.0,0.0,0.0,0.0,0.0,0.0,0.0,0.0,0.0,0.0,0.0,0.0,0.0,0.0,0.0,0.0,0.0,0.0,2.5026,0.0,0.0,0.0,0.0,0.0,0.0,0.0,0.0,0.0,0.0,0.0,2.8255,2.7852,2.6923,2.5958,2.5024,2.3757,2.2463,0.0,0.0,0.0,0.0,0.0,0.0,0.0,0.0,0.0,0.0,0.0,0.0,0.0,0.0,2.6605,2.6367,2.5929,2.5562,2.5606,0.0,0.0,0.0,0.0,0.0,0.0,0.0,0.0,0.0,0.0,0.0,0.0,0.0,0.0,3.699,0.0,3.7553,0.0,0.0,0.0,0.0,0.0,0.0,0.0,0.0,3.8139,3.8061,3.7627,3.7743,3.7868,0.0,3.8146,3.805,0.0,0.0,0.0,0.0,0.0,0.0,0.0,0.0,3.1205,3.0122,2.9663,2.9192,2.8635,2.783,2.709,2.6399,2.4999,2.4152,2.407,2.4342,2.4918,0.0,0.0,0.0,0.0,0.0,0.0,0.0,0.0,0.0,0.0,0.0,0.0,0.0,0.0,0.0,0.0,0.0,0.0,0.0,0.0,0.0,0.0,0.0,2.6314,0.0,0.0,0.0,0.0,0.0,0.0,0.0,0.0,0.0,3.006,2.9772,2.9444,2.8981,2.8147,2.7206,2.6186,0.0,0.0,0.0,0.0,0.0,0.0,0.0,1.9916,2.0584,2.091,2.1757,2.3728,2.5425,2.6728,2.7273,0.0,0.0,2.794,2.7512,2.7209,2.7271,2.7745,2.8219,2.8621,2.8617,2.8674,0.0,0.0,0.0,0.0,0.0,0.0,0.0,0.0,3.7869,3.8169,0.0,3.8551,0.0,0.0,0.0,0.0,0.0,4.0785,0.0,0.0,3.8968,3.8599,3.8729,3.8736,3.8762,3.888,3.8992,3.9076,3.9069,3.7681,0.0,0.0,0.0,0.0,0.0,0.0,3.1769,3.1688,3.072,2.9723,2.8863,2.9025,2.8254,2.6403,2.5462,2.4868,2.4577,2.4769,2.5005,2.5269,2.6005,0.0,0.0,0.0,0.0,0.0,0.0,0.0,0.0,0.0,0.0,0.0,0.0,0.0,0.0,0.0,0.0,0.0,0.0,0.0,0.0,2.7422,0.0,0.0,0.0,0.0,0.0,0.0,0.0,0.0,0.0,0.0,3.2353,3.1635,3.075,2.9739,0.0,0.0,0.0,0.0,2.6556,2.5921,2.5246,2.4655,2.4193,2.345,2.3125,2.3676,0.0,0.0,2.665,2.7729,2.8439,2.8958,2.9259,2.9261,2.8938,2.9197,2.9516,2.9747,2.9902,3.0251,3.0493,3.0026,2.9792,4.4979,0.0,0.0,0.0,0.0,4.2798,4.2377,4.1704,4.1614,4.1445,4.1222,4.1227,0.0,0.0,0.0,0.0,0.0,0.0,4.1813,4.1677,4.1404,4.1291,4.1361,4.0753,4.0471,4.0513,4.012,3.9651,3.9135,3.8844,3.7989,3.6596,0.0,0.0,0.0,0.0,3.3257,3.2636,3.2217,3.1527,3.0497,3.0377,2.9754,2.8504,2.8078,2.7687,2.727,2.6636,2.645,2.6772,2.7584,0.0,0.0,0.0,0.0,0.0,0.0,0.0,0.0,0.0,0.0,0.0,0.0,0.0,0.0,0.0,0.0,0.0,0.0,0.0,2.7144,2.7742,2.8409,0.0,0.0,0.0,0.0,0.0,0.0,0.0,0.0,0.0,3.413,3.2845,3.1751,0.0,0.0,3.0636,3.0002,2.9408,2.8628,2.7671,0.0,0.0,0.0,2.587,2.5991,2.6094,2.6439,2.7032,2.7919,2.8996,2.9833,3.0052,3.0802,3.1377,3.1411,3.0454,2.9828,2.9854,3.0096,3.0361,3.0657,3.0315,3.0038,4.8851,4.7772,4.5997,4.5249,4.5163,4.526,4.5067,4.4599,4.4447,4.4282,4.4171,4.4047,4.4151,4.4393,4.4211,0.0,0.0,0.0,4.2902,4.2698,4.2657,4.2638,4.266,4.2221,4.1992,4.1971,4.1635,4.1235,4.0761,4.0524,3.9779,3.8496,0.0,0.0,3.5407,3.4673,3.4029,3.3508,3.3012,3.2431,3.1825,3.1449,3.0928,3.0257,3.0062,2.9765,2.9334,2.8732,2.8456,2.8518,2.9144,2.9639,0.0,0.0,0.0,0.0,0.0,0.0,0.0,0.0,0.0,0.0,0.0,2.8739,0.0,0.0,0.0,0.0,2.848,2.8799,2.9118,2.9625,0.0,0.0,0.0,0.0,0.0,0.0,0.0,3.4201,3.4312,3.452,3.4961,3.4073,3.3148,3.2651,3.2322,3.1874,3.1269,0.0,3.0162,2.9024,2.8702,2.8284,2.7454,2.7543,2.7834,2.82,2.8874,2.9415,2.9793,3.0623,3.1202,3.148,3.2051,3.2636,3.2862,3.1934,3.1168,3.1231,3.1421,3.1649,3.1898,3.1535,3.1127,5.2178,5.1994,4.8724,4.732,4.7245,4.7258,4.725,4.7202,4.652,4.6675,4.7283,4.6725,4.6872,4.759,4.6937,0.0,4.4691,4.444,4.3981,4.3294,4.3302,4.3263,4.3198,4.3273,4.3279,4.3289,4.3272,4.3299,4.3234,4.2486,4.1756,4.0959,3.8554,3.7215,3.6933,3.5407,3.46,3.4619,3.3646,3.3049,3.2919,3.2448,3.2054,3.1644,3.152,3.1294,3.0966,3.083,3.0643,3.0366,3.0592,3.0902,3.1291,0.0,0.0,0.0,0.0,0.0,0.0,0.0,0.0,0.0,0.0,0.0,0.0,0.0,0.0,0.0,3.0584,0.0,3.2411,3.2562,0.0,0.0,0.0,3.4049,3.3935,3.4723,3.525,3.5141,0.0,0.0,3.5122,0.0,3.4697,3.3594,3.3105,3.2453,3.1409,3.1585,3.1372,3.036,2.9796,2.935,2.9076,2.8945,2.9181,2.9997,3.0919,3.1485,3.1829,3.2126,3.2517,3.2787,3.3045,3.3214,3.3437,3.3356,3.3476,3.3328,3.3411,3.3522,3.3579,3.3197,3.2576,5.3119,5.3025,5.1689,5.0799,5.0212,4.9584,4.9043,4.8538,4.8372,4.8098,4.7769,4.766,4.7759,4.7972,4.778,4.7548,4.72,4.7164,4.6683,4.5913,4.5893,4.5566,4.4968,4.4395,4.4114,4.409,4.3568,4.3337,4.3358,4.316,4.3031,4.2878,4.1586,3.9947,3.8014,3.7497,3.7251,3.7211,3.6881,3.604,3.4658,3.4338,3.3807,3.2945,3.2814,3.2887,3.3176,3.1909,3.1433,3.1783,3.1238,3.1046,3.1231,3.1538,0.0,0.0,0.0,0.0,0.0,0.0,0.0,0.0,0.0,3.2253,3.1577,0.0,3.1521,0.0,3.2411,3.3241,3.4051,3.4773,0.0,0.0,3.6084,3.6405,3.5897,3.6096,3.6029,3.5411,3.53,3.5285,3.5315,3.5207,3.5011,3.4769,3.4353,3.3938,3.3566,3.323,3.2915,3.2427,3.205,3.1749,3.141,3.1271,3.1252,3.162,3.1987,3.2332,3.2631,3.2872,3.3105,3.3255,3.3532,3.3743,3.3902,3.4018,3.4128,3.4242,3.4111,3.3979,3.4049,3.3654,3.3062,5.4278,5.4173,5.3522,5.2991,5.2482,5.1243,5.0474,5.0138,4.9774,4.9422,4.9086,4.9144,4.899,4.8736,4.8717,4.8542,4.8229,4.8246,4.7767,4.6973,4.6918,4.651,4.568,4.5274,4.507,4.5056,4.4666,4.4513,4.4536,4.4217,4.4064,4.4091,4.3255,4.2053,4.0576,3.9411,3.8612,3.8156,3.8059,3.7487,3.6463,3.6249,3.5837,3.5227,3.5063,3.5136,3.5311,3.4383,3.3938,3.4181,3.3707,3.3486,3.3574,3.3802,3.406,0.0,0.0,0.0,0.0,0.0,0.0,0.0,0.0,0.0,0.0,0.0,3.4315,0.0,3.4791,3.5171,3.6008,3.6538,3.6878,3.695,3.7403,3.7581,3.7243,3.728,3.7147,3.6698,3.626,3.617,3.6563,3.59,3.5518,3.5872,3.5369,3.4831,3.4515,3.4181,3.3913,3.3642,3.3348,3.3094,3.2849,3.2695,3.258,3.2727,3.2836,3.3057,3.3314,3.3834,3.4174,3.3976,3.4383,3.4665,3.4461,3.4461,3.4572,3.4715,3.4678,3.4578,3.4473,3.4318,3.394,5.5422,5.5275,5.4642,5.4388,5.4239,5.2494,5.1754,5.1628,5.0919,5.0621,5.0644,5.0644,5.0277,4.9693,4.9691,4.9338,4.874,4.8701,4.8256,4.7444,4.7424,4.696,4.6143,4.6093,4.6067,4.6061,4.6022,4.5986,4.5994,4.5298,4.4948,4.4938,4.4267,4.3801,4.3499,4.1362,3.9738,3.8709,3.8541,3.8343,3.8073,3.7953,3.7754,3.747,3.7387,3.7335,3.7234,3.7071,3.6932,3.6875,3.6697,3.6589,3.6589,3.6802,3.6972,0.0,3.7484,0.0,0.0,0.0,0.0,0.0,0.0,0.0,0.0,3.6133,3.6948,3.784,3.7242,3.7198,3.8063,3.815,3.8193,3.8243,3.8315,3.8338,3.8291,3.833,3.8324,3.8227,3.7538,3.7394,3.7964,3.6899,3.6337,3.6889,3.6427,3.5842,3.528,3.4926,3.4534,3.4269,3.4056,3.3792,3.3616,3.3478,3.3449,3.3524,3.3607,3.3707,3.3935,3.4649,3.5104,3.472,3.5114,3.5505,3.5,3.5021,3.5096,3.5276,3.5385,3.5324,3.4994,3.4988,3.4883,5.6014,5.5408,5.5331,5.5343,5.5228,5.4252,5.3144,5.2011,5.1837,5.1448,5.0858,5.0839,5.0761,5.0642,5.0623,5.0581,5.0442,5.0442,4.9997,4.9223,4.9204,4.874,4.7889,4.7256,4.6952,4.6913,4.6313,4.6026,4.6085,4.5862,4.5794,4.5832,4.5648,4.521,4.4529,0.0,0.0,0.0,4.1131,4.038,3.9042,3.893,3.8539,3.775,3.766,0.0,3.84,3.7711,3.7629,3.8228,3.7454,0.0,0.0,0.0,0.0,0.0,0.0,0.0,0.0,0.0,0.0,0.0,3.9772,3.9026,3.7385,3.7469,3.799,3.8834,3.8789,3.9,3.9813,4.0004,4.0077,4.0092,4.0211,4.0002,3.9348,3.9254,3.9023,3.8364,3.8122,3.8103,3.8277,3.7957,3.787,3.7987,3.7839,3.7691,3.7568,3.6147,3.5107,3.4832,3.4711,3.447,3.4285,3.4284,3.4349,3.4269,3.4292,3.4375,3.4461,3.4661,3.4875,3.4752,3.4983,3.5455,3.5959,3.6239,3.6243,3.6421,3.6482,3.6319,3.5482,3.5393,3.5276,5.6448,0.0,5.5724,5.5785,0.0,5.5344,5.4516,5.3411,5.2912,5.2254,5.1544,5.1544,5.1328,5.0956,5.0956,5.0971,5.1005,5.1005,5.054,4.9766,4.9746,4.9282,4.843,4.8057,4.7888,4.7837,4.747,4.7065,4.6696,4.6687,4.6504,4.6114,4.6066,4.5823,4.5412,4.5299,4.4336,4.2536,4.2082,4.1597,4.1127,4.0652,4.02,3.9695,0.0,0.0,0.0,0.0,0.0,0.0,0.0,0.0,0.0,0.0,0.0,3.8747,3.9371,3.9758,3.9842,4.0284,4.0559,4.0559,4.0996,4.0693,3.9296,3.961,3.9885,3.9942,4.0731,4.126,4.1247,4.1732,4.1877,4.1451,4.1438,4.115,4.0412,4.0235,4.0077,3.968,3.9295,3.9167,3.9571,3.8828,3.8641,3.8926,3.8641,3.8381,3.8266,3.7406,3.6642,3.6469,3.6266,3.6102,3.6027,3.5986,3.5718,3.5474,3.5381,3.5211,3.4851,3.5285,3.5545,3.5217,3.5487,3.5993,3.5949,3.6112,3.6218,3.6261,3.6312,3.6229,3.5682,3.5325,3.4982,5.7139,5.6387,5.6387,5.6309,5.6231,5.6249,5.5782,5.4984,0.0,0.0,0.0,5.2446,5.2094,5.1446,5.131,5.1247,5.1314,5.1159,5.0713,5.0054,5.0015,4.9647,4.8968,4.8851,4.8774,4.8729,4.8654,4.8239,4.7556,4.76,4.7252,4.6601,4.6533,4.6406,4.6213,4.5944,4.5085,4.3709,4.2802,4.2603,4.3099,4.2354,4.1923,4.1872,4.1817,4.1418,4.0654,4.0444,4.0328,4.0328,4.0117,4.002,3.996,4.012,4.023,4.0298,4.0519,4.066,4.0713,4.0861,4.1021,4.1187,4.1892,4.197,4.1023,4.1719,4.1925,4.1234,4.2551,4.3109,4.2438,4.2859,4.3005,4.2286,4.208,4.1723,4.1116,4.1019,4.0959,4.0941,4.0404,4.0277,4.0797,3.9843,3.9213,3.975,3.9501,3.8939,3.8844,3.8451,3.7986,3.7816,3.7637,3.7702,3.7696,3.757,3.7345,3.669,3.6594,3.6345,3.5898,3.6166,3.6315,3.5784,3.6233,3.6273,3.591,3.5999,3.597,3.5982,3.6016,3.6013,3.5836,3.5164,3.4627,5.8858,5.8143,5.8143,5.7737,5.7116,5.7188,5.6737,5.5874,5.4258,5.3488,5.3406,5.3378,5.3349,5.3194,5.2457,5.2109,5.2089,5.1411,5.1042,0.0,5.0926,5.0868,5.0693,4.9964,4.964,4.9562,4.8957,4.8541,4.8425,4.8425,4.8358,4.825,4.8239,4.7823,4.7043,4.6261,4.5736,4.5433,4.4573,4.3829,4.3216,4.3061,4.2969,4.2884,4.2954,4.288,4.2687,4.1986,4.1597,4.1527,4.0885,4.053,4.0583,4.0636,4.064,4.0642,4.07,4.0776,4.0808,4.1524,4.2315,4.3044,4.3228,4.2918,4.2022,4.2742,4.3218,4.3112,4.3374,4.3452,4.3277,4.2868,4.2572,4.2299,4.1688,4.1198,4.1081,4.109,4.1081,4.1078,4.1026,4.089,4.0984,4.0812,4.062,4.0831,4.0581,4.0639,4.0333,3.9305,3.8404,3.8257,3.8236,3.8225,3.8338,3.8172,3.8129,3.7943,3.7858,3.775,3.7525,3.7188,3.6908,3.6736,3.6345,3.6192,3.6566,3.6943,3.6817,3.6777,3.6773,3.664,3.6003,3.5171,3.4797,5.9321,5.8605,5.8548,5.8353,5.7985,5.7572,5.6947,5.616,5.538,5.4745,5.4323,5.4299,5.4056,5.3631,5.3236,5.3074,5.3074,5.2214,5.1794,5.1774,5.1347,5.1146,5.1101,5.0755,5.0553,5.0545,5.0197,4.977,4.934,4.9301,4.9068,4.8638,4.8584,4.8373,4.7915,4.7514,4.7279,4.7144,4.5448,4.4544,4.4542,4.4118,4.3906,4.3852,4.3878,4.3646,4.3158,4.2816,4.2599,4.2551,4.2246,4.206,4.2112,4.215,4.2187,4.2214,4.2244,4.2285,4.2316,4.2723,4.3128,4.353,4.3992,4.409,4.3654,4.4,4.4061,4.3653,4.4359,4.4764,4.4335,4.3955,4.3584,4.3097,4.2314,4.1628,4.1202,4.1101,4.1107,4.1103,4.1108,4.111,4.1105,4.1108,4.111,4.1105,4.1103,4.1103,4.1107,4.0418,3.9808,3.9786,3.9772,3.9762,3.9707,3.9682,3.9498,3.9118,3.8991,3.8774,3.8454,3.7909,3.7579,3.7136,3.6713,3.6481,3.6596,3.6456,3.6484,3.6481,3.6467,3.6224,3.583,3.539,3.5108,5.9764,5.9145,5.9165,5.897,5.8525,5.7744,5.6943,5.6233,5.6199,5.5849,5.5259,5.5201,5.486,5.431,5.4103,5.4019,5.3938,5.311,5.2722,5.2663,5.208,5.1781,5.1744,5.1608,5.1502,5.1463,5.1288,5.085,5.0247,5.0208,4.9867,4.9224,4.8996,4.8856,4.8832,4.8619,4.8482,4.8299,4.648,4.5645,4.5963,4.5244,4.4819,4.4819,4.4824,4.4504,4.3833,4.366,4.3557,4.3544,4.3446,4.3373,4.3373,4.3438,4.347,4.353,4.351,4.3635,4.3872,4.3895,4.3968,4.4202,4.4805,4.5192,4.5197,4.5201,4.4949,4.4455,4.539,4.5874,4.5294,4.502,4.4715,4.4036,4.3208,4.2472,4.1829,4.1679,4.1679,4.1679,4.1699,4.1737,4.1699,4.1699,4.1658,4.1504,4.125,4.1113,4.1113,4.123,4.1366,4.1302,4.1166,4.092,4.0959,4.0869,4.0616,4.007,4.0014,3.9759,3.9247,3.8941,3.8517,3.7921,3.7399,3.6972,3.6327,3.6026,3.5968,3.5938,3.5911,3.5772,3.5717,3.553,3.5276,6.0925,6.0867,6.0789,5.9976,5.8557,5.7738,5.697,5.6257,5.6278,5.6272,5.6123,5.6162,5.6117,5.5942,5.5228,5.4883,5.4824,5.405,5.3671,5.3671,5.3593,5.3554,5.3409,5.2728,5.2378,5.2261,5.1619,5.1211,5.1016,5.1026,5.1006,5.087,5.0188,4.977,4.9701,4.8999,4.8596,4.8502,4.8269,4.7766,4.696,4.6195,4.5764,4.5783,4.5808,4.5813,4.5525,4.5004,4.4647,4.4588,4.3986,4.3586,4.3605,4.3614,4.3594,4.3622,4.3642,4.3931,4.4689,4.4787,4.5097,4.5874,4.5972,4.6042,4.6046,4.61,4.6122,4.5952,4.6088,4.6134,4.6044,4.5424,4.4957,4.4781,4.4023,4.3534,4.3378,4.3453,4.3471,4.3471,4.3255,4.3431,4.3236,4.3234,4.3037,4.2343,4.178,4.1406,4.142,4.1872,4.2243,4.2131,4.1659,4.1245,4.1224,4.1107,4.1206,4.1054,4.0996,4.0937,4.0761,4.0272,3.9588,3.9246,3.8366,3.753,3.6937,3.642,3.5905,3.5865,3.5766,3.5551,3.5451,3.5316,3.5158,6.1099,6.1099,6.1099,6.0131,5.8654,5.8277,5.7416,5.6238,5.6285,5.6309,5.6309,5.6341,5.6353,5.6353,5.5975,5.583,5.5754,5.4946,5.4557,5.4518,5.4051,5.3808,5.3702,5.2952,5.2563,5.2561,5.2191,5.1773,5.1327,5.122,5.1211,5.1172,5.087,5.0724,5.0636,5.0324,5.009,5.0064,5.0087,4.9648,4.8701,4.7391,4.6668,4.6629,4.6224,4.5994,4.5956,4.5697,4.557,4.556,4.5285,4.5134,4.5141,4.5129,4.5144,4.5157,4.5137,4.528,4.5655,4.5689,4.5878,4.6257,4.6251,4.6256,4.6256,4.6286,4.6288,4.6268,4.6267,4.6268,4.6171,4.5508,4.5019,4.4902,4.4215,4.372,4.3698,4.371,4.3704,4.37,4.3654,4.3669,4.365,4.3641,4.35,4.3134,4.2724,4.249,4.2582,4.285,4.3,4.3019,4.2729,4.2588,4.2529,4.2591,4.255,4.2548,4.258,4.2568,4.2383,4.23,4.1724,4.065,3.976,3.8778,3.7877,3.7502,3.7024,3.6501,3.5624,3.5268,3.5162,3.4996,3.4887,6.1099,6.106,6.0886,5.9936,5.8596,5.8412,5.7532,5.6296,5.6265,5.6309,5.6309,5.6375,5.6406,5.6386,5.6397,5.6388,5.631,5.5755,5.5473,5.5414,5.4821,5.4538,5.445,5.3691,5.331,5.3268,5.3073,5.2617,5.2055,5.1959,5.193,5.193,5.1754,5.1637,5.1551,5.1366,5.1201,5.1152,5.122,5.0928,5.015,4.8777,4.7858,4.7594,4.7026,4.662,4.6416,4.6444,4.6372,4.6138,4.6181,4.6196,4.6209,4.6209,4.6206,4.6197,4.6221,4.6225,4.6234,4.6284,4.629,4.6297,4.6303,4.6307,4.6288,4.6289,4.6306,4.6303,4.6305,4.6307,4.6228,4.5738,4.5384,4.5304,4.475,4.4406,4.4438,4.4387,4.4436,4.4387,4.4493,4.4325,4.428,4.4169,4.3961,4.3922,4.37,4.3557,4.3635,4.3685,4.3853,4.3884,4.4011,4.3966,4.3704,4.3436,4.3573,4.3543,4.3397,4.3342,4.3441,4.3412,4.3306,4.1801,4.1388,4.0607,3.927,3.8704,3.7877,3.6838,3.5933,3.5227,3.4926,3.4693,3.4508,6.1099,6.0983,6.0286,5.951,5.8538,5.787,5.7009,5.6218,5.6259,5.6311,5.6304,5.6383,5.6386,5.6386,5.6398,5.6388,5.6398,5.6377,5.6347,5.6338,5.6288,5.6327,5.6308,5.5509,5.5041,5.4807,5.4145,5.3794,5.3728,5.3689,5.3766,5.3689,5.2851,5.2497,5.2368,5.1674,5.1291,5.1277,5.1284,5.1257,5.1125,5.0299,4.9437,4.8846,4.8497,4.804,4.7445,4.7381,4.7053,4.6235,4.6228,4.6206,4.6206,4.6197,4.621,4.6222,4.6267,4.6293,4.6293,4.6297,4.6303,4.6307,4.6289,4.6326,4.6422,4.6434,4.6466,4.6381,4.6443,4.6384,4.6482,4.6267,4.6183,4.6214,4.6171,4.6026,4.6016,4.5805,4.6053,4.5962,4.5832,4.5733,4.5896,4.529,4.4829,4.4606,4.4083,4.3656,4.385,4.4316,4.4657,4.4861,4.5123,4.5337,4.3966,4.3925,4.3782,4.3782,4.3967,4.3594,4.3342,4.3195,4.3163,4.2963,4.2425,4.1634,4.0543,3.9429,3.828,3.7222,3.6293,3.5603,3.5026,3.4547,3.4293,6.1099,6.1079,6.0826,5.9915,5.8632,5.8386,5.7504,5.6257,5.6265,5.6309,5.6309,5.6375,5.6397,5.6398,5.6407,5.6437,5.6455,5.6483,5.6483,5.6483,5.6483,5.6483,5.6405,5.5606,5.5217,5.5158,5.4885,5.473,5.4671,5.4203,5.3892,5.3755,5.3031,5.2609,5.246,5.1791,5.1369,5.1369,5.1355,5.138,5.1355,5.1043,5.0985,5.116,4.9595,4.8607,4.8301,4.7805,4.7352,4.704,4.6503,4.6214,4.6261,4.6267,4.6273,4.6256,4.6282,4.6305,4.6307,4.6289,4.6289,4.6288,4.6306,4.6576,4.7003,4.7132,4.7322,4.7673,4.7331,4.7283,4.7557,4.6971,4.6518,4.6889,4.6571,4.6228,4.6151,4.6118,4.6123,4.613,4.6095,4.6047,4.5959,4.5714,4.5528,4.549,4.5204,4.4998,4.5025,4.5304,4.5396,4.5461,4.5609,4.5615,4.515,4.5056,4.509,4.4994,4.4976,4.4896,4.4708,4.4546,4.4511,4.3888,4.3357,4.2827,4.1818,4.0463,3.92,3.7991,3.7021,3.6316,3.5198,3.4989,3.4448,6.1099,6.106,6.0863,6.0126,5.9075,5.8847,5.7998,5.6712,5.6693,5.6562,5.6372,5.6375,5.6407,5.6388,5.6417,5.6455,5.6483,5.6483,5.6483,5.6483,5.6483,5.6483,5.6405,5.5879,5.5626,5.5626,5.5626,5.5626,5.5567,5.5022,5.4749,5.471,5.3857,5.3442,5.3273,5.2389,5.1815,5.1801,5.1557,5.1381,5.1386,5.139,5.1824,5.2316,5.0965,4.9903,4.966,4.9321,4.8708,4.7985,4.7364,4.6839,4.6378,4.6301,4.6305,4.6307,4.6289,4.6289,4.6289,4.6307,4.6422,4.669,4.6727,4.7079,4.7857,4.7985,4.8275,4.8525,4.8357,4.8265,4.8708,4.7947,4.724,4.7411,4.695,4.6442,4.6138,4.6083,4.6056,4.6046,4.5994,4.5941,4.5898,4.5905,4.5873,4.5893,4.5906,4.588,4.5852,4.581,4.5746,4.5731,4.5661,4.5665,4.5452,4.5428,4.5471,4.5428,4.536,4.5536,4.5584,4.555,4.5342,4.4768,4.4267,4.3862,4.2914,4.1541,4.0241,3.8939,3.8371,3.7798,3.671,3.5634,3.5358,6.1099,6.102,6.0263,6.0024,5.9785,5.9211,5.8401,5.767,5.7528,5.7075,5.6516,5.6414,5.6407,5.6407,5.6446,5.6483,5.6483,5.6483,5.6483,5.6483,5.6483,5.6483,5.6483,5.6405,5.6347,5.6366,5.6444,5.6444,5.6366,5.6269,5.6249,5.6238,5.5397,5.4865,5.51,5.3493,5.2689,5.2483,5.1882,5.1472,5.1394,5.1385,5.1818,5.2582,5.2474,5.2043,5.1363,5.1974,5.1098,4.9109,4.876,4.8043,4.6657,4.6326,4.6328,4.6406,4.6365,4.6345,4.644,4.6497,4.6942,4.7425,4.7598,4.7946,4.8662,4.8825,4.8899,4.9074,4.8962,4.9165,4.977,4.912,4.8275,4.7676,4.7381,4.6947,4.6299,4.6037,4.5975,4.5929,4.5905,4.5905,4.5905,4.5867,4.586,4.5847,4.58,4.5771,4.5765,4.5719,4.5665,4.5596,4.5582,4.5566,4.5586,4.5603,4.5603,4.5566,4.549,4.5513,4.5458,4.5399,4.5339,4.4894,4.4684,4.4231,4.3321,4.2008,4.1016,3.9925,3.9602,3.8987,3.7874,3.6883,3.6838,6.1191,6.1206,6.0968,6.0534,6.0084,5.9799,5.9211,5.8389,5.7871,5.7456,5.7118,5.6647,5.6407,5.6407,5.6417,5.6455,5.6483,5.6483,5.6483,5.6483,5.6483,5.6483,5.6483,5.6483,5.6483,5.6483,5.6483,5.6483,5.6483,5.6483,5.6483,5.6336,5.565,5.5236,5.5198,5.4142,5.3357,5.2722,5.2448,5.2023,5.1483,5.1391,5.1808,5.2593,5.2694,5.2558,5.2303,5.199,5.1132,4.9805,4.9218,4.8378,4.7363,4.6621,4.6601,4.7107,4.72,4.7489,4.7955,4.7988,4.808,4.8365,4.8439,4.8864,4.9557,4.9689,4.9956,5.0327,5.0101,5.0043,5.047,4.9534,4.8612,4.8273,4.7738,4.7009,4.6169,4.5949,4.5944,4.5919,4.5866,4.5838,4.5838,4.581,4.5761,4.5712,4.568,4.5651,4.5601,4.5547,4.5494,4.5475,4.5476,4.5476,4.5457,4.5458,4.5438,4.5438,4.5438,4.538,4.5319,4.5275,4.5192,4.5038,4.4857,4.4398,4.3509,4.2679,4.1735,4.0791,4.017,3.9441,3.8603,3.8334,3.8387,6.1227,6.1281,6.1271,6.1011,6.0526,6.0293,5.9821,5.9141,5.8071,5.7597,5.7434,5.6736,5.6398,5.6437,5.6446,5.6474,5.6483,5.6483,5.6492,5.6492,5.6492,5.6483,5.6483,5.6483,5.6492,5.65,5.65,5.648,5.6488,5.648,5.65,5.6363,5.595,5.5691,5.5607,5.4889,5.4162,5.3659,5.3038,5.2436,5.1938,5.1555,5.1969,5.2948,5.2871,5.2891,5.3086,5.2637,5.1836,5.0762,4.9844,4.9004,4.8144,4.7597,4.7518,4.7924,4.8092,4.8278,4.8743,4.8712,4.8977,4.9186,4.9279,4.9669,5.036,5.0575,5.0842,5.1148,5.0881,5.0626,5.0603,5.0217,4.9216,4.8155,4.7639,4.6915,4.6138,4.5887,4.586,4.5847,4.5838,4.5776,4.5765,4.575,4.5684,4.5616,4.5584,4.5568,4.5513,4.5438,4.5419,4.54,4.54,4.538,4.5341,4.5319,4.5297,4.5298,4.5298,4.5256,4.5213,4.517,4.5106,4.4876,4.4681,4.443,4.3689,4.3476,4.2804,4.1853,4.0904,4.0969,4.0653,4.0225,4.0093,6.121,6.1227,6.1271,6.1283,6.1162,6.0578,6.0281,5.9937,5.855,5.7854,5.7592,5.6933,5.6514,5.6522,5.6611,5.6639,5.6522,5.6658,5.6589,5.6519,5.65,5.6492,5.65,5.65,5.6488,5.6496,5.6496,5.6484,5.6498,5.6484,5.6496,5.6457,5.642,5.6446,5.6257,5.5694,5.5298,5.4869,5.3608,5.2811,5.258,5.181,5.2049,5.3514,5.293,5.2812,5.332,5.3457,5.2969,5.1621,5.0605,4.9726,4.9121,4.8944,4.8746,4.8916,4.8903,4.9064,4.9035,4.9435,4.9736,5.0477,5.0497,5.0555,5.131,5.1278,5.1174,5.131,5.1238,5.0942,5.0508,5.0471,4.975,4.7886,4.7209,4.6687,4.6119,4.5924,4.5819,4.5819,4.58,4.5757,4.57,4.5684,4.5635,4.5603,4.5568,4.5532,4.5476,4.5419,4.538,4.538,4.5319,4.5298,4.5258,4.5235,4.5211,4.5103,4.5106,4.5103,4.5033,4.4991,4.4852,4.4648,4.4486,4.4221,4.3986,4.3688,4.3227,4.2249,4.2147,4.2779,4.2493,4.1714,4.1195,6.1294,6.1337,6.1371,6.1386,6.1347,6.1147,6.1064,6.0934,5.9925,5.9009,5.8507,5.7692,5.7021,5.66,5.7108,5.7069,5.6728,5.7069,5.7,5.6547,5.6488,5.6496,5.6484,5.6491,5.6491,5.6498,5.6498,5.6498,5.6485,5.6517,5.6517,5.6498,5.6511,5.6484,5.6425,5.6304,5.5903,5.5259,5.4268,5.3338,5.2705,5.1926,5.1598,5.1933,5.1914,5.1914,5.2168,5.2715,5.291,5.2344,5.0957,5.0137,4.9862,4.9411,4.9406,4.9771,4.9891,5.0406,5.1333,5.1556,5.1993,5.2701,5.2155,5.2051,5.2212,5.1659,5.1367,5.1308,5.1281,5.1178,5.086,5.047,4.9509,4.8288,4.7196,4.6524,4.6626,4.6211,4.581,4.5795,4.5793,4.5651,4.5695,4.5566,4.5495,4.5458,4.5458,4.5438,4.54,4.536,4.5339,4.5298,4.5277,4.5235,4.5192,4.5148,4.508,4.4938,4.487,4.487,4.477,4.4667,4.4477,4.4218,4.4158,4.3974,4.3763,4.3508,4.2978,4.2573,4.2852,4.3185,4.2772,4.2174,4.1887,6.133,6.1376,6.1405,6.14,6.1361,6.1045,6.1084,6.1142,6.0151,5.9631,5.9196,5.8178,5.7449,5.7069,5.7128,5.6952,5.6619,5.6972,5.6912,5.6586,5.6491,5.6498,5.6485,5.6485,5.6485,5.6491,5.6491,5.6712,5.6913,5.6712,5.6692,5.6926,5.6679,5.6509,5.6509,5.6558,5.6391,5.5767,5.5009,5.4259,5.3761,5.2943,5.2576,5.2402,5.2207,5.1953,5.2012,5.2129,5.2305,5.2461,5.207,5.1484,5.0818,5.1008,5.1079,5.1271,5.1503,5.2225,5.2908,5.3182,5.3377,5.3701,5.3362,5.3198,5.2995,5.2353,5.1846,5.1885,5.1518,5.1093,5.0577,4.9831,4.9433,4.9272,4.7893,4.712,4.7599,4.6892,4.6607,4.6538,4.6166,4.5776,4.601,4.5706,4.5438,4.5379,4.5359,4.5338,4.5317,4.5297,4.5277,4.5256,4.5213,4.517,4.5106,4.508,4.4986,4.4815,4.4613,4.4613,4.456,4.444,4.4248,4.4055,4.3915,4.3719,4.36,4.3479,4.3296,4.3183,4.3387,4.3334,4.2992,4.2541,4.2282,6.1297,6.1314,6.1371,6.14,6.1303,6.065,6.0825,6.1025,6.0015,5.967,5.9748,5.8596,5.7985,5.7654,5.7517,5.6903,5.6697,5.7039,5.6725,5.6593,5.6485,5.6497,5.6491,5.6511,5.6497,5.6509,5.6489,5.6885,5.7182,5.6865,5.7094,5.7387,5.6996,5.6704,5.6748,5.668,5.6606,5.6352,5.5599,5.5121,5.4835,5.4175,5.3671,5.3574,5.3144,5.2851,5.2655,5.2342,5.2147,5.2676,5.3378,5.2653,5.1735,5.3054,5.336,5.2963,5.3216,5.3682,5.3988,5.404,5.4145,5.4281,5.4203,5.4028,5.3872,5.3268,5.2656,5.2414,5.1803,5.1142,5.0301,4.9311,4.9558,5.0136,4.9273,4.8713,4.8458,4.7805,4.7503,4.8063,4.6709,4.6296,4.6301,4.6052,4.538,4.5338,4.5317,4.5317,4.5297,4.5275,4.5235,4.5213,4.517,4.5106,4.5061,4.4991,4.4846,4.4712,4.4421,4.4335,4.4364,4.4248,4.4158,4.4023,4.3851,4.3719,4.3566,4.3461,4.3442,4.3442,4.3461,4.341,4.3286,4.2757,4.2397,6.1314,6.1306,6.1371,6.14,6.1381,6.1225,6.1225,6.1342,6.1006,6.0547,6.0195,5.9752,5.889,5.7838,5.8647,5.8744,5.7546,5.778,5.778,5.6535,5.6491,5.6484,5.6503,5.6533,5.6577,5.6563,5.6582,5.6719,5.6894,5.7304,5.7577,5.7714,5.7616,5.7499,5.7421,5.6914,5.6626,5.645,5.5759,5.5394,5.5245,5.4624,5.4139,5.4062,5.3808,5.3709,5.3706,5.3548,5.3216,5.2749,5.2298,5.216,5.2409,5.2914,5.3416,5.376,5.3904,5.4312,5.4768,5.4943,5.5213,5.5645,5.5217,5.4905,5.4866,5.4126,5.331,5.2738,5.232,5.1683,5.0791,5.0506,5.0468,5.0626,5.0439,5.0135,4.9999,4.8883,4.8193,4.7964,4.7259,4.6532,4.6647,4.5897,4.5434,4.5316,4.5277,4.5277,4.5275,4.5254,4.5213,4.517,4.5125,4.508,4.4991,4.4895,4.4745,4.4587,4.4306,4.4147,4.4158,4.4128,4.4055,4.3929,4.3818,4.3667,4.3513,4.3479,4.3461,4.3479,4.3428,4.3358,4.316,4.2806,4.2396,6.131,6.1302,6.1386,6.14,6.14,6.14,6.14,6.14,6.14,6.1181,6.0735,6.039,5.9666,5.8919,5.9348,5.8861,5.7916,5.7663,5.7322,5.6593,5.6485,5.6478,5.6509,5.6558,5.6606,5.6606,5.6606,5.6762,5.7133,5.7289,5.7582,5.8304,5.805,5.7758,5.7797,5.7367,5.6977,5.6606,5.6181,5.5899,5.5792,5.5482,5.4921,5.457,5.4256,5.398,5.3974,5.3522,5.3386,5.3012,5.2169,5.1818,5.2872,5.3826,5.4541,5.4596,5.5031,5.5293,5.5724,5.5821,5.5981,5.6453,5.6015,5.587,5.5569,5.4966,5.4081,5.3243,5.2636,5.2033,5.1102,5.0906,5.0899,5.0827,5.0793,5.0757,5.0545,4.9602,4.8813,4.8508,4.7569,4.6916,4.6415,4.5856,4.547,4.5354,4.5297,4.5277,4.5235,4.5213,4.5148,4.5103,4.5057,4.501,4.4938,4.4796,4.4613,4.4449,4.4248,4.4097,4.4067,4.4023,4.3929,4.3851,4.3753,4.3652,4.3532,4.3513,4.3479,4.3497,4.3428,4.3232,4.2995,4.2673,4.2234,6.131,6.1302,6.1366,6.14,6.14,6.14,6.14,6.14,6.14,6.1361,6.1297,6.0662,6.0336,6.0086,5.9747,5.889,5.7944,5.7165,5.6862,5.6547,5.6491,5.6485,5.6503,5.6553,5.6582,5.6606,5.6821,5.7211,5.7445,5.7406,5.8128,5.8948,5.8441,5.8343,5.8246,5.8011,5.7641,5.6977,5.6844,5.6621,5.6534,5.6421,5.6034,5.5525,5.4995,5.4503,5.4298,5.3826,5.3471,5.3893,5.2702,5.253,5.3373,5.4697,5.6196,5.5435,5.6011,5.6235,5.6277,5.6393,5.6437,5.6492,5.6464,5.6435,5.6183,5.5687,5.4898,5.3899,5.3042,5.1978,5.1051,5.1134,5.1117,5.1043,5.0951,5.0875,5.074,5.0163,4.9739,4.9413,4.8241,4.726,4.6683,4.6124,4.5719,4.543,4.5373,4.5354,4.535,4.5189,4.5163,4.508,4.5033,4.4938,4.4865,4.4685,4.4468,4.4383,4.4158,4.4067,4.3992,4.3947,4.3851,4.38,4.3701,4.36,4.3532,4.3513,4.3479,4.3497,4.3393,4.3214,4.292,4.2555,4.2086,6.131,6.1302,6.1386,6.14,6.14,6.14,6.14,6.14,6.14,6.1394,6.1383,6.1297,6.0853,6.0544,6.0944,6.0215,5.8861,5.7935,5.7174,5.6714,5.6613,5.6608,5.6511,5.6509,5.6538,5.6777,5.7153,5.7621,5.7933,5.8402,5.887,5.971,5.9319,5.9163,5.9436,5.9261,5.848,5.7738,5.759,5.7349,5.685,5.662,5.6542,5.6239,5.5963,5.5625,5.5189,5.4912,5.4615,5.4127,5.442,5.4615,5.4678,5.4752,5.522,5.6079,5.6445,5.6553,5.6497,5.6485,5.6491,5.6488,5.6492,5.6455,5.6378,5.6203,5.5528,5.4492,5.316,5.1889,5.1051,5.1426,5.1758,5.1779,5.1742,5.1664,5.151,5.1029,5.0414,5.0144,4.8854,4.7623,4.7122,4.6659,4.633,4.6118,4.6042,4.6023,4.5979,4.5608,4.522,4.5114,4.4986,4.4889,4.4764,4.4524,4.4344,4.4296,4.4147,4.4023,4.3929,4.3869,4.3804,4.3753,4.3667,4.36,4.3513,4.3479,4.3479,4.3497,4.3358,4.3178,4.2899,4.2566,4.2203,6.131,6.1352,6.1366,6.14,6.14,6.14,6.14,6.14,6.14,6.14,6.1421,6.144,6.1309,6.1098,6.1305,6.0809,5.9699,5.8773,5.7925,5.729,5.7151,5.6874,5.6621,5.6536,5.6553,5.6797,5.7367,5.7836,5.7836,5.8148,5.9222,6.0061,5.9924,6.0022,6.0237,5.9963,5.93,5.8679,5.8433,5.8075,5.7244,5.6894,5.6634,5.6624,5.6621,5.636,5.6044,5.5435,5.5376,5.5259,5.4888,5.5201,5.5415,5.5357,5.524,5.6333,5.6606,5.6577,5.6517,5.6485,5.6491,5.648,5.6464,5.6437,5.6407,5.6258,5.5889,5.4774,5.3309,5.205,5.1617,5.1931,5.201,5.205,5.226,5.2299,5.1972,5.1548,5.1085,5.0582,4.9447,4.8428,4.7752,4.7327,4.6999,4.6825,4.6729,4.6688,4.6666,4.6199,4.5669,4.5181,4.5028,4.477,4.4632,4.444,4.4255,4.4195,4.4116,4.3992,4.3897,4.3837,4.3753,4.3667,4.36,4.3548,4.3513,4.3479,4.3479,4.3479,4.3322,4.316,4.2876,4.2553,4.2374,6.1345,6.1386,6.1386,6.14,6.14,6.14,6.14,6.14,6.14,6.14,6.14,6.1467,6.1503,6.1437,6.1266,6.0886,6.0204,5.9367,5.8568,5.8128,5.802,5.7654,5.7226,5.7004,5.7211,5.7519,5.7816,5.807,5.8168,5.8265,5.9124,6.0178,6.0588,6.0549,6.0627,6.0705,6.01,5.9636,5.9351,5.8895,5.8085,5.7301,5.6842,5.6774,5.6696,5.6595,5.643,5.5981,5.5981,5.5942,5.5571,5.522,5.6216,5.5942,5.5923,5.645,5.6563,5.6548,5.6517,5.6498,5.6484,5.648,5.6446,5.6398,5.6364,5.6219,5.5835,5.4758,5.3746,5.2691,5.2468,5.253,5.2608,5.2626,5.2914,5.2933,5.2337,5.1778,5.1084,5.0506,4.9792,4.9231,4.8573,4.7821,4.7474,4.7621,4.7544,4.7503,4.74,4.6953,4.6345,4.5526,4.5041,4.4697,4.4505,4.4335,4.4207,4.4116,4.4085,4.3992,4.3897,4.3818,4.3753,4.3634,4.3548,4.3513,4.3479,4.3479,4.3479,4.3444,4.3322,4.3269,4.3276,4.313,4.2924,6.131,6.1318,6.1386,6.14,6.14,6.14,6.14,6.14,6.14,6.14,6.14,6.1467,6.1503,6.1379,6.0828,6.0477,6.0126,5.9659,5.9133,5.888,5.8869,5.8769,5.8702,5.8806,5.8513,5.8475,5.8714,5.8929,5.8948,5.8948,5.9807,6.1017,6.0861,6.0744,6.133,6.1349,6.1076,6.0417,6.023,5.9778,5.8964,5.8096,5.7754,5.7512,5.7079,5.6723,5.6723,5.643,5.6469,5.6489,5.643,5.6352,5.6567,5.6567,5.6489,5.6543,5.6538,5.6528,5.6497,5.6498,5.6496,5.6472,5.6426,5.6388,5.6309,5.6179,5.5781,5.4913,5.4407,5.3932,5.3434,5.3764,5.4052,5.3819,5.3491,5.3299,5.2799,5.22,5.1486,5.108,5.0615,5.0052,4.9468,4.8621,4.7968,4.819,4.8376,4.8314,4.8019,4.749,4.679,4.5887,4.5195,4.4843,4.4393,4.4218,4.4128,4.4055,4.4023,4.3961,4.3883,4.3786,4.3686,4.36,4.3532,4.3479,4.3479,4.3479,4.3479,4.3483,4.3468,4.3688,4.3914,4.375,4.3633,6.131,6.1302,6.1386,6.14,6.14,6.14,6.14,6.14,6.14,6.14,6.14,6.1434,6.1452,6.1401,6.113,6.1042,6.0945,6.0575,6.0146,5.9795,5.9698,5.9521,5.9096,5.9072,5.9111,5.9226,5.9197,5.9436,5.9631,5.9944,6.0529,6.1408,6.1349,6.1271,6.1681,6.1701,6.149,6.1073,6.0676,6.0215,5.9702,5.9045,5.8543,5.8499,5.7699,5.7309,5.7153,5.6782,5.6645,5.6606,5.6606,5.6606,5.6606,5.6606,5.6606,5.6582,5.6548,5.6517,5.6491,5.6471,5.6488,5.6455,5.6378,5.6302,5.6213,5.6106,5.5985,5.5543,5.4972,5.4513,5.4149,5.4323,5.4091,5.3916,5.3799,5.3241,5.2855,5.2661,5.2139,5.1768,5.1453,5.1063,5.0612,4.9977,4.9438,4.9425,4.9382,4.9148,4.8561,4.7732,4.6973,4.6093,4.5481,4.499,4.452,4.4177,4.4097,4.4023,4.4023,4.3961,4.3851,4.3771,4.3634,4.3566,4.3513,4.3479,4.3479,4.3497,4.3516,4.3593,4.3705,4.4034,4.4403,4.4729,4.4622,6.1314,6.1306,6.1371,6.14,6.14,6.14,6.14,6.14,6.14,6.14,6.1414,6.1415,6.1464,6.1509,6.1539,6.149,6.1549,6.1588,6.1218,6.0789,6.0536,6.0281,6.0044,5.9833,5.9846,5.9728,5.9998,6.0237,6.0549,6.0783,6.1076,6.1681,6.1622,6.1661,6.1681,6.1701,6.1627,6.1567,6.1072,6.08,6.0559,5.9865,5.9523,5.9109,5.848,5.7797,5.768,5.7035,5.6626,5.6606,5.6606,5.6606,5.6606,5.6606,5.6606,5.6504,5.6327,5.6056,5.6147,5.6242,5.6386,5.6388,5.6314,5.6239,5.6145,5.6082,5.6065,5.5898,5.5458,5.5093,5.4863,5.4708,5.4282,5.4031,5.3837,5.3124,5.2624,5.2698,5.2672,5.2376,5.2235,5.2456,5.1969,5.1434,5.1042,5.0817,5.0481,5.0057,4.9252,4.8325,4.7443,4.6644,4.5876,4.5271,4.458,4.4221,4.411,4.4079,4.4048,4.3929,4.3818,4.3719,4.3634,4.3548,4.3479,4.3479,4.3479,4.3516,4.3589,4.3886,4.4181,4.4525,4.4885,4.5285,4.5494,6.1317,6.1314,6.1371,6.14,6.14,6.14,6.14,6.14,6.14,6.14,6.14,6.1467,6.1495,6.1509,6.1578,6.1588,6.1588,6.1588,6.1471,6.1451,6.1451,6.1266,6.1077,6.1073,6.1231,6.127,6.1125,6.1252,6.1525,6.1388,6.1564,6.1701,6.1701,6.1701,6.1701,6.1705,6.1713,6.1687,6.1463,6.1484,6.1264,6.0786,6.0334,5.9968,5.8831,5.7816,5.7758,5.7133,5.6645,5.6645,5.6606,5.6606,5.6606,5.6606,5.6606,5.6504,5.6035,5.5724,5.564,5.5935,5.632,5.6338,5.629,5.6204,5.6078,5.6029,5.5995,5.5998,5.5692,5.5673,5.5402,5.5052,5.4628,5.4241,5.3991,5.347,5.3103,5.3138,5.3091,5.2886,5.3049,5.3408,5.346,5.29,5.2081,5.1821,5.1357,5.0931,5.0111,4.9227,4.8229,4.7325,4.6403,4.5563,4.4673,4.4433,4.4469,4.4363,4.4257,4.4013,4.3786,4.3701,4.3615,4.3548,4.3479,4.3479,4.3552,4.3718,4.3975,4.438,4.473,4.5069,4.5467,4.5909,4.6035,6.1317,6.1314,6.1371,6.14,6.14,6.14,6.14,6.14,6.14,6.14,6.14,6.1467,6.1484,6.1518,6.1568,6.1588,6.1588,6.1588,6.1588,6.1588,6.1588,6.1597,6.1595,6.16,6.1602,6.1648,6.1666,6.1701,6.1681,6.1701,6.1701,6.1701,6.1701,6.1701,6.1701,6.1713,6.1704,6.1711,6.1698,6.1716,6.1633,6.147,6.1209,6.1076,6.0178,5.9124,5.8597,5.7777,5.7172,5.6743,5.6645,5.6606,5.6606,5.6606,5.6606,5.6582,5.6074,5.5627,5.5191,5.547,5.5784,5.6239,5.6232,5.6145,5.6046,5.6012,5.5996,5.598,5.5924,5.5865,5.569,5.5437,5.5107,5.4626,5.4143,5.3699,5.356,5.3612,5.3778,5.3704,5.4134,5.4606,5.4562,5.4448,5.355,5.2741,5.2262,5.1725,5.0921,5.026,4.9363,4.8503,4.7604,4.7061,4.624,4.5642,4.5064,4.4814,4.4652,4.4276,4.4029,4.3667,4.36,4.3513,4.3479,4.3479,4.3626,4.3975,4.4306,4.4692,4.5148,4.5645,4.6036,4.6475,4.6323,6.1317,6.1314,6.1371,6.14,6.14,6.14,6.14,6.14,6.14,6.14,6.1414,6.1479,6.1484,6.1507,6.1568,6.1588,6.1588,6.1588,6.1588,6.1588,6.1588,6.1588,6.1586,6.1592,6.1595,6.1602,6.1666,6.1701,6.1701,6.1701,6.1701,6.1701,6.1701,6.1701,6.1705,6.1701,6.1709,6.1715,6.1699,6.1715,6.169,6.1665,6.1655,6.151,6.0705,6.01,5.9261,5.8402,5.7543,5.7074,5.6801,5.6626,5.6606,5.6606,5.6606,5.6519,5.623,5.5744,5.5087,5.51,5.5294,5.565,5.6112,5.6075,5.6029,5.5995,5.5998,5.5943,5.5905,5.5865,5.5728,5.5378,5.503,5.4491,5.441,5.4081,5.4073,5.4124,5.4379,5.4574,5.497,5.5174,5.5091,5.49,5.4268,5.3503,5.3136,5.2541,5.1774,5.1168,5.0638,4.9841,4.9039,4.8621,4.8217,4.7504,4.6721,4.6094,4.5764,4.4798,4.4417,4.3999,4.3618,4.3513,4.3479,4.3479,4.3718,4.4066,4.4526,4.5022,4.5694,4.649,4.6439,4.6717,4.6358,6.1317,6.1314,6.1356,6.14,6.14,6.14,6.14,6.14,6.14,6.1394,6.1415,6.1472,6.1495,6.1509,6.1578,6.1588,6.1588,6.1588,6.1588,6.1588,6.1588,6.1588,6.1586,6.1592,6.1595,6.1602,6.1666,6.1715,6.1701,6.1701,6.1701,6.1701,6.1701,6.1701,6.1701,6.1701,6.1711,6.1716,6.1699,6.1717,6.1711,6.1707,6.1697,6.151,6.1037,6.0529,5.9885,5.8987,5.8148,5.7562,5.7055,5.6801,5.6606,5.6606,5.6606,5.6582,5.584,5.5003,5.4118,5.4693,5.4844,5.5007,5.5462,5.5862,5.5952,5.5977,5.5981,5.5924,5.5865,5.5806,5.5495,5.5126,5.4857,5.4701,5.4679,5.4636,5.4626,5.4633,5.4891,5.5014,5.5199,5.5384,5.5339,5.5179,5.4726,5.4245,5.3935,5.3338,5.2589,5.2105,5.1676,5.1009,5.0291,5.0193,4.9765,4.9126,4.841,4.7726,4.6731,4.5648,4.4715,4.4115,4.3805,4.3552,4.3479,4.3479,4.3791,4.4158,4.4985,4.5919,4.6782,4.7409,4.7222,4.6852,4.6477,6.1245,6.1297,6.1341,6.1352,6.1405,6.14,6.14,6.14,6.14,6.1394,6.1415,6.1472,6.1507,6.1509,6.1559,6.1588,6.1588,6.1588,6.1588,6.1588,6.1588,6.1588,6.1578,6.1584,6.158,6.1602,6.166,6.171,6.1701,6.1701,6.1701,6.1701,6.1705,6.1713,6.1717,6.1709,6.1716,6.1716,6.1699,6.1698,6.1711,6.1709,6.1701,6.1681,6.1349,6.0978,6.051,5.9592,5.8948,5.8128,5.7543,5.7231,5.686,5.6743,5.6665,5.6602,5.606,5.5328,5.4153,5.377,5.3584,5.4089,5.4846,5.532,5.5236,5.5747,5.5865,5.5905,5.5846,5.5766,5.5609,5.5511,5.5357,5.5376,5.5333,5.5247,5.524,5.5227,5.5287,5.5275,5.5384,5.5403,5.5358,5.5332,5.4955,5.476,5.4467,5.4059,5.3385,5.307,5.2696,5.2008,5.1456,5.1503,5.133,5.067,5.0266,4.9748,4.8027,4.6112,4.5234,4.4593,4.3862,4.3571,4.3516,4.3516,4.4066,4.4728,4.5937,4.6937,4.7506,4.7681,4.7276,4.6916,4.6495,6.1227,6.1297,6.1306,6.1337,6.1386,6.14,6.14,6.14,6.14,6.1408,6.1447,6.1491,6.1507,6.1539,6.1559,6.1588,6.1588,6.1588,6.1588,6.1588,6.1588,6.1588,6.1597,6.1595,6.158,6.1615,6.1654,6.1705,6.1701,6.1701,6.1701,6.1701,6.1713,6.1697,6.1704,6.1713,6.1717,6.1698,6.1699,6.1717,6.1711,6.1707,6.1701,6.1705,6.1603,6.1427,6.0939,6.0432,5.9905,5.8909,5.8324,5.8011,5.7543,5.7192,5.7074,5.6972,5.5879,5.5092,5.3925,5.2601,5.2477,5.2654,5.397,5.4758,5.4946,5.5571,5.5845,5.5905,5.5846,5.5766,5.5724,5.5705,5.5684,5.5662,5.5599,5.5512,5.5466,5.5432,5.5396,5.5384,5.5403,5.5403,5.5403,5.5358,5.5236,5.5111,5.5028,5.4582,5.4162,5.3883,5.3622,5.3031,5.2606,5.2666,5.2601,5.2251,5.1881,5.1695,4.9769,4.7497,4.6209,4.5604,4.4595,4.3608,4.3552,4.3718,4.4488,4.5315,4.6285,4.7104,4.7773,4.7705,4.7338,4.6962,4.6542,6.1227,6.1297,6.1326,6.1337,6.1386,6.14,6.14,6.14,6.14,6.1441,6.1503,6.1491,6.1507,6.1578,6.1588,6.1588,6.1588,6.1588,6.1588,6.1588,6.1588,6.1588,6.1597,6.1586,6.1592,6.1615,6.1648,6.1685,6.1696,6.1701,6.1701,6.1701,6.1713,6.1701,6.1709,6.1713,6.1717,6.1699,6.1699,6.1699,6.1711,6.1709,6.1701,6.1705,6.1661,6.1642,6.131,6.092,6.051,5.9944,5.9514,5.9222,5.8792,5.8265,5.7992,5.7143,5.5438,5.4457,5.3643,5.2347,5.1556,5.191,5.3519,5.4386,5.4959,5.5376,5.5865,5.5905,5.5846,5.5787,5.5724,5.5724,5.5684,5.564,5.5573,5.5527,5.548,5.5451,5.539,5.5403,5.5403,5.5403,5.5403,5.5358,5.5332,5.5168,5.5066,5.4924,5.4609,5.4564,5.4308,5.4096,5.3796,5.3846,5.3609,5.3126,5.2958,5.2586,5.1416,4.9473,4.8126,4.6635,4.5515,4.4562,4.3791,4.3956,4.4911,4.5682,4.6415,4.7161,4.7941,4.7788,4.7425,4.7025,4.6637,6.1155,6.1227,6.1278,6.1326,6.1337,6.1386,6.14,6.14,6.14,6.1441,6.1503,6.146,6.1495,6.1588,6.1549,6.1559,6.1559,6.1588,6.1588,6.1588,6.1588,6.1588,6.1588,6.1578,6.1584,6.1588,6.1621,6.166,6.1696,6.1701,6.1701,6.1701,6.1709,6.1701,6.1709,6.1715,6.1717,6.1699,6.1699,6.1699,6.1711,6.1709,6.1697,6.1705,6.1701,6.1701,6.1564,6.1447,6.1037,6.0412,6.0198,5.9866,5.9065,5.8831,5.8573,5.7648,5.5996,5.4518,5.3759,5.2714,5.1797,5.1586,5.2931,5.3645,5.4262,5.5028,5.5883,5.5924,5.5885,5.5806,5.5745,5.5724,5.5724,5.5662,5.5573,5.5504,5.5499,5.5446,5.5409,5.5403,5.5403,5.5403,5.5403,5.5403,5.5332,5.5168,5.5066,5.5009,5.4912,5.4829,5.4705,5.4491,5.4287,5.4091,5.4,5.3591,5.3572,5.3292,5.2195,5.1155,4.9861,4.8329,4.6709,4.5388,4.4397,4.4654,4.5535,4.6104,4.6378,4.7346,4.805,4.7788,4.745,4.7098,4.6731,6.1156,6.121,6.1281,6.131,6.1318,6.1366,6.14,6.14,6.14,6.1428,6.146,6.1408,6.1464,6.1519,6.1519,6.1529,6.1588,6.1588,6.1588,6.1588,6.1588,6.1588,6.1588,6.1588,6.1584,6.158,6.1602,6.1654,6.1691,6.1701,6.1701,6.1701,6.1709,6.1701,6.1707,6.1713,6.1716,6.1699,6.1699,6.1699,6.1713,6.1709,6.1697,6.1705,6.1701,6.1701,6.1701,6.1701,6.1369,6.0978,6.092,6.0725,5.9944,5.9592,5.9,5.8058,5.6683,5.5337,5.4408,5.3479,5.2399,5.187,5.2363,5.3097,5.4065,5.5004,5.5629,5.5981,5.5905,5.5826,5.5806,5.5745,5.5724,5.5684,5.5596,5.5523,5.547,5.544,5.5409,5.5403,5.5403,5.5403,5.5403,5.5403,5.5358,5.5195,5.5121,5.5057,5.4941,5.4829,5.4686,5.4505,5.4268,5.4055,5.4,5.3888,5.3795,5.3607,5.3082,5.2098,5.1191,4.9895,4.8179,4.6452,4.4837,4.5296,4.5847,4.5957,4.6287,4.7348,4.8108,4.7888,4.7578,4.7205,4.6824,6.1117,6.1191,6.1281,6.1345,6.1386,6.14,6.14,6.14,6.14,6.1394,6.1396,6.1396,6.1433,6.1509,6.1489,6.1549,6.1578,6.1588,6.1588,6.1588,6.1588,6.1588,6.1588,6.1588,6.1576,6.158,6.1602,6.1634,6.1691,6.1701,6.1701,6.1701,6.1701,6.1709,6.1704,6.1709,6.1699,6.1699,6.1699,6.1698,6.1713,6.1709,6.1701,6.1705,6.1701,6.1701,6.1701,6.1701,6.1701,6.1701,6.1661,6.1564,6.1037,5.9963,5.9228,5.8621,5.7407,5.6047,5.5019,5.4155,5.2814,5.2103,5.1897,5.2627,5.3572,5.4768,5.5453,5.594,5.5904,5.5885,5.5826,5.5745,5.5724,5.5662,5.5638,5.5547,5.5499,5.5465,5.5384,5.5403,5.5403,5.5384,5.5326,5.5307,5.5091,5.5088,5.4939,5.4865,5.4952,5.4791,5.4686,5.4519,5.4284,5.4127,5.4,5.3926,5.3851,5.3643,5.3397,5.3003,5.2059,5.089,4.9627,4.77,4.581,4.5645,4.592,4.603,4.647,4.7624,4.8148,4.8028,4.7723,4.732,4.6793,6.1099,6.1137,6.1245,6.1326,6.1405,6.14,6.14,6.14,6.14,6.1394,6.1415,6.1396,6.1433,6.1498,6.1489,6.1529,6.1588,6.1588,6.1588,6.1588,6.1588,6.1588,6.1588,6.1588,6.1576,6.1588,6.1602,6.1634,6.1696,6.1701,6.1701,6.1701,6.1701,6.1709,6.1701,6.1707,6.1699,6.1699,6.1699,6.1698,6.1715,6.1711,6.1704,6.1713,6.1709,6.1701,6.1701,6.1701,6.1701,6.1701,6.1701,6.1701,6.1622,6.0022,5.956,5.954,5.8353,5.6816,5.5583,5.4718,5.3455,5.22,5.1845,5.2252,5.3063,5.4323,5.5202,5.5631,5.5942,5.5905,5.5846,5.5766,5.5684,5.5682,5.5638,5.5573,5.5504,5.5446,5.5384,5.5403,5.5403,5.5345,5.5269,5.5071,5.4893,5.4657,5.4383,5.4341,5.4753,5.4814,5.4749,5.4603,5.4352,5.4163,5.4055,5.3926,5.3851,5.3736,5.3526,5.3209,5.2834,5.1624,5.0251,4.8453,4.6966,4.6801,4.6489,4.614,4.6764,4.7862,4.8208,4.809,4.7816,4.7446,4.6739,6.077,6.1117,6.1245,6.1345,6.1386,6.14,6.14,6.14,6.14,6.1414,6.1408,6.1415,6.1421,6.1498,6.1489,6.1529,6.1588,6.1588,6.1588,6.1588,6.1588,6.1588,6.1588,6.1588,6.1584,6.1588,6.1634,6.1685,6.1696,6.1701,6.1701,6.1701,6.1701,6.1705,6.1717,6.1707,6.1713,6.1699,6.1699,6.1698,6.1716,6.1711,6.1707,6.1717,6.169,6.1701,6.1701,6.1701,6.1701,6.1701,6.1701,6.1701,6.1442,6.0466,6.0243,6.0161,5.9279,5.7653,5.6399,5.5177,5.3999,5.2627,5.1515,5.1819,5.238,5.3526,5.4216,5.4723,5.575,5.5847,5.5807,5.5745,5.5705,5.5662,5.5618,5.5551,5.5499,5.5421,5.5384,5.5403,5.5403,5.5384,5.5193,5.4696,5.4537,5.4422,5.4084,5.4039,5.4419,5.4836,5.4791,5.4654,5.4371,5.4179,5.4091,5.3944,5.3813,5.3736,5.3619,5.337,5.2954,5.2022,5.0802,4.9462,4.8416,4.7902,4.7553,4.7095,4.715,4.8066,4.8229,4.8151,4.782,4.7469,4.6614,6.0421,6.1097,6.1245,6.1345,6.1405,6.14,6.14,6.14,6.14,6.14,6.14,6.1402,6.144,6.1484,6.1498,6.1549,6.1588,6.1588,6.1588,6.1588,6.1588,6.1588,6.1588,6.1588,6.1584,6.1615,6.1679,6.1691,6.1701,6.1701,6.1701,6.1701,6.1701,6.1705,6.1717,6.1707,6.1713,6.1698,6.1699,6.1716,6.1715,6.1672,6.1587,6.158,6.1627,6.1642,6.1603,6.1661,6.1661,6.1701,6.1701,6.1715,6.1442,6.0787,6.0744,6.0523,5.966,5.8295,5.7111,5.5663,5.4167,5.2705,5.169,5.147,5.205,5.2554,5.323,5.3953,5.4959,5.5673,5.5633,5.5707,5.5686,5.5665,5.5599,5.542,5.5303,5.5205,5.5199,5.5193,5.5193,5.5193,5.5059,5.4543,5.4237,5.4098,5.4059,5.4027,5.4158,5.462,5.4852,5.4635,5.4405,5.4214,5.4108,5.3944,5.3813,5.3697,5.3598,5.3437,5.3125,5.2514,5.183,5.1041,5.0123,4.9334,4.871,4.8233,4.8416,4.8545,4.8267,4.819,4.7937,4.7384,4.6344,6.0437,6.1261,6.1297,6.1326,6.1386,6.14,6.14,6.14,6.14,6.14,6.1414,6.1467,6.1503,6.1503,6.1558,6.1588,6.1588,6.1588,6.1588,6.1588,6.1588,6.1588,6.1588,6.1597,6.1584,6.1634,6.1679,6.171,6.1715,6.1701,6.1701,6.1701,6.1701,6.1705,6.1717,6.1707,6.1715,6.1699,6.1717,6.1713,6.1707,6.1564,6.1213,6.1225,6.1315,6.1095,6.1037,6.1388,6.1603,6.1701,6.1715,6.171,6.147,6.103,6.0847,6.0573,5.9708,5.8479,5.7189,5.5947,5.4407,5.2834,5.1916,5.1341,5.1765,5.1924,5.2459,5.276,5.3745,5.4901,5.5131,5.5455,5.5549,5.5566,5.5542,5.5036,5.4699,5.459,5.4522,5.4473,5.4428,5.4734,5.5154,5.4639,5.4104,5.3989,5.3913,5.3881,5.3849,5.4315,5.4836,5.4648,5.4386,5.4233,5.4091,5.3907,5.3774,5.3716,5.3598,5.3396,5.3272,5.317,5.2564,5.1867,5.1279,5.0563,4.9994,4.9499,4.9224,4.9187,4.8581,4.8247,4.7974,4.7461,4.6506]}]]